GFSSE_sfc_30mbdewp_000.txt.gz
Dewpoint
61 66 67 67 68 66 63 62 60 59 58 55 54 57 59 60 59 58 58 59 60 57 57 58 58 59 60 58 59 61 61 60 58 57 59 58 58 59 59 61 61 63 60
63 65 67 68 68 65 62 61 59 58 57 56 57 58 60 60 60 59 59 59 60 59 57 57 58 59 58 60 61 61 60 59 57 57 58 60 59 58 61 59 57 58 63
61 64 68 68 67 64 62 60 60 58 59 57 57 59 62 59 58 58 57 56 58 59 57 57 58 56 56 58 61 60 59 59 57 57 58 58 60 59 58 57 58 60 61
60 63 67 68 67 64 62 60 59 58 59 57 58 61 61 60 58 59 58 56 55 56 56 56 57 56 55 55 58 59 59 58 57 57 56 58 58 57 58 57 57 58 58
60 61 66 69 66 64 61 60 59 57 59 58 62 61 61 60 57 57 56 55 55 55 55 55 56 56 56 58 58 59 57 56 56 57 56 58 57 57 55 55 54 55 56
57 64 68 69 66 64 61 60 59 58 58 57 58 61 62 60 57 57 54 54 55 55 56 55 56 56 56 57 57 57 56 55 55 54 56 58 55 55 55 55 54 53 53
56 65 67 69 66 63 61 61 59 58 58 56 58 60 59 60 58 57 58 57 57 58 57 56 56 56 57 56 58 57 56 54 52 52 54 55 55 55 54 53 54 53 52
55 63 67 67 65 63 62 61 60 59 58 57 59 59 58 55 58 58 58 60 58 59 57 55 55 56 57 57 56 57 55 53 50 50 54 54 55 54 53 52 53 53 53
55 59 64 65 65 64 63 61 61 60 59 58 59 58 57 57 59 60 61 61 61 58 56 54 51 53 56 57 56 57 55 53 51 51 51 54 54 53 53 51 51 52 52
54 55 59 62 62 61 60 62 61 62 60 60 60 60 59 59 60 61 61 61 60 58 55 50 49 51 55 57 56 54 56 53 47 49 52 55 54 52 51 50 49 49 49
53 53 53 57 59 58 57 61 62 62 61 61 60 60 59 58 59 59 59 60 59 58 55 50 49 52 53 54 55 54 55 53 46 47 53 57 54 52 50 50 47 47 48
53 53 53 54 55 55 53 60 58 60 61 60 59 59 58 56 56 58 60 60 59 58 56 52 50 50 51 47 48 54 55 49 45 46 54 57 54 54 52 51 49 48 48
54 54 54 54 55 54 50 59 57 57 58 57 57 56 57 55 56 57 59 59 59 60 58 55 54 54 50 46 46 52 51 45 40 38 52 57 55 54 55 54 53 51 50
52 54 55 55 56 55 52 50 54 55 56 55 56 54 55 54 53 55 55 57 56 56 57 54 51 50 46 43 42 39 42 41 39 34 46 56 55 53 55 55 54 54 50
49 51 53 55 55 56 54 50 50 53 54 54 54 54 54 54 53 52 52 53 52 52 52 51 49 47 46 43 41 39 36 35 36 36 33 53 56 54 52 52 53 53 53
45 48 51 55 56 57 57 55 51 51 53 53 54 54 53 54 54 52 51 51 52 51 51 51 49 47 47 48 46 40 37 35 35 36 38 38 49 52 48 47 48 49 50
45 46 48 51 57 58 57 57 56 54 53 53 53 54 54 54 54 54 51 51 52 52 52 52 51 50 48 48 48 47 41 37 36 36 36 38 44 49 48 45 45 45 46
47 46 47 48 53 58 58 58 58 57 55 55 54 53 54 55 55 55 54 51 52 53 53 53 52 51 50 50 49 49 45 42 40 38 37 37 38 42 49 50 50 47 47
45 47 48 48 49 55 58 58 58 58 57 57 56 55 54 54 55 55 55 54 52 52 53 53 53 52 52 51 50 49 49 48 45 41 39 39 38 39 40 45 50 51 51
39 42 46 49 49 50 55 58 59 59 59 58 58 57 56 55 55 55 55 56 54 52 53 54 53 53 52 52 51 50 49 48 48 48 47 45 44 42 42 40 44 51 52
34 35 41 44 49 51 53 56 58 58 59 59 59 58 58 57 56 56 56 56 56 55 53 54 54 53 53 53 52 51 51 51 49 48 48 48 48 47 45 44 44 43 44
41 41 39 40 45 49 53 55 57 58 58 59 59 59 59 58 58 57 56 57 57 57 56 54 54 54 54 54 52 51 49 50 51 51 50 49 49 49 48 45 43 45 45
44 43 43 42 42 47 50 54 55 56 57 57 57 58 59 59 59 59 58 58 58 58 57 57 55 54 54 55 54 52 49 47 47 48 49 50 50 50 49 48 46 44 44
44 45 44 41 41 42 47 51 53 53 54 56 56 57 58 59 59 59 59 59 59 59 59 59 58 56 55 54 55 54 52 50 47 46 47 46 45 45 44 45 44 44 46
44 42 41 42 42 43 42 43 46 52 54 55 56 55 55 56 58 59 59 59 59 60 60 59 59 58 57 56 55 54 54 53 52 50 48 49 47 46 45 46 47 47 47
43 42 41 39 39 40 43 47 48 47 47 49 51 52 53 53 54 58 59 59 60 60 60 60 60 60 59 57 56 56 55 53 52 52 50 50 49 49 49 48 48 47 49

GFSSE_sfc_30mbdewp_003.txt.gz
Dewpoint
64 66 67 67 69 67 65 64 62 60 58 56 59 58 60 60 59 59 60 61 59 59 58 58 59 62 60 59 62 62 61 59 57 59 58 59 60 59 61 60 60 62 62
65 67 68 67 69 66 64 63 61 60 58 56 58 58 61 61 60 59 61 61 61 58 58 57 59 60 59 60 61 61 60 59 57 58 59 61 61 60 59 58 58 62 63
65 67 68 69 68 65 63 62 61 59 59 57 58 61 62 61 60 58 58 58 60 59 58 58 58 58 57 62 62 61 59 58 57 58 60 59 59 58 58 59 61 61 62
65 67 69 69 68 64 62 62 61 60 59 58 59 64 63 62 60 60 59 57 56 58 57 58 57 55 55 56 60 59 59 57 57 59 58 60 57 59 57 57 59 59 60
64 66 69 69 67 65 63 61 60 58 60 59 61 62 62 61 59 58 57 55 57 56 56 56 57 56 56 55 60 59 56 56 57 57 58 58 58 55 56 55 55 56 56
61 65 69 70 67 65 64 62 61 59 59 58 61 63 62 61 59 57 55 55 56 56 56 55 57 57 55 56 58 58 56 55 56 53 57 57 55 56 55 55 54 54 53
64 66 69 69 67 65 63 62 61 60 59 58 62 62 61 60 57 58 58 57 57 58 57 56 56 57 57 57 58 58 57 55 53 51 57 55 56 55 54 54 54 53 52
64 67 69 69 67 65 64 63 61 60 59 57 59 61 60 58 59 59 58 58 58 60 59 57 56 57 58 57 57 58 56 54 52 50 55 56 56 55 54 53 53 54 53
65 67 68 67 65 65 64 63 62 62 59 59 60 60 59 58 61 59 60 61 60 61 58 56 54 54 57 57 57 58 56 55 53 50 54 55 56 54 54 52 53 53 53
63 65 66 66 65 64 65 63 63 62 60 60 61 60 60 59 61 62 62 62 62 60 58 56 52 51 53 57 58 57 58 55 51 47 52 54 54 53 53 51 50 50 51
54 61 64 64 64 62 60 63 63 61 60 61 61 61 60 59 60 62 62 62 61 60 58 55 50 51 55 57 57 57 56 56 50 45 50 57 55 53 52 52 49 48 49
54 54 59 62 62 61 59 61 61 62 62 62 61 61 60 59 58 60 61 62 61 60 59 56 51 51 55 52 53 57 55 54 49 46 48 59 56 53 52 51 50 49 48
55 54 54 58 60 60 57 61 60 60 61 61 60 60 59 58 58 59 60 61 60 60 59 58 54 52 52 51 47 47 52 52 47 44 47 60 57 54 53 54 54 52 51
55 55 55 56 56 57 55 60 58 57 59 59 59 58 58 57 56 57 59 59 59 59 59 58 56 53 52 48 47 47 50 50 44 42 40 61 59 56 54 54 56 56 55
53 55 56 57 57 56 55 56 57 57 58 57 57 57 57 56 55 55 56 56 57 57 57 57 55 53 51 48 44 43 44 45 44 40 36 54 59 58 54 54 54 55 56
49 53 55 57 57 58 56 53 52 54 55 56 56 56 55 55 55 53 53 54 54 55 54 54 53 52 48 48 44 42 41 39 36 36 37 36 57 58 56 51 52 52 53
48 49 53 56 57 58 58 56 52 51 53 54 54 55 55 55 55 54 53 52 52 53 51 51 51 50 49 47 48 48 44 40 37 36 35 37 39 54 55 47 47 48 50
48 46 50 54 57 58 59 59 57 54 53 53 53 53 55 55 55 55 54 53 52 53 53 52 52 51 51 49 48 48 48 45 41 38 37 36 37 39 50 54 51 51 52
47 48 47 50 55 58 58 59 59 58 55 54 54 53 53 54 55 55 55 55 53 52 53 53 53 53 52 52 51 50 49 49 48 45 41 39 38 39 40 44 53 52 52
39 40 48 49 51 58 59 59 59 59 58 57 56 55 55 54 55 55 55 55 55 53 53 54 53 53 53 52 52 51 51 50 49 49 47 44 42 40 40 40 41 50 53
43 42 42 43 50 52 57 58 58 58 59 59 58 58 57 56 55 55 55 56 56 55 53 53 53 53 53 53 52 51 52 51 50 49 49 48 48 46 44 42 41 42 43
45 44 43 43 43 50 52 56 58 59 59 59 60 60 59 59 58 56 56 56 56 56 56 54 53 53 53 54 52 51 50 51 51 52 51 49 48 47 48 47 46 45 44
42 43 44 43 42 44 52 56 56 58 58 58 58 59 60 60 59 59 58 57 57 57 56 57 55 54 53 54 54 52 50 48 48 49 51 51 51 50 50 49 48 46 45
42 41 40 41 43 46 46 47 52 53 54 55 56 57 57 59 59 59 59 59 58 58 58 58 58 57 55 54 55 54 53 50 48 48 48 48 49 50 50 50 50 48 46
43 41 40 40 41 41 41 45 47 48 50 52 53 53 54 55 56 59 59 59 60 60 59 59 59 59 59 56 55 55 54 54 53 51 49 49 50 48 47 48 48 46 45
42 42 42 41 41 41 41 40 40 40 43 45 48 48 49 51 53 55 58 60 60 60 60 60 60 60 60 60 58 57 55 54 53 53 52 51 51 50 50 47 46 45 45

GFSSE_sfc_30mbdewp_006.txt.gz
Dewpoint
63 65 67 68 69 68 66 64 63 61 59 57 59 58 59 60 59 60 60 61 59 58 59 58 59 63 61 62 62 62 60 57 59 59 58 59 59 61 60 59 63 62 61
64 67 68 68 69 68 66 64 62 60 58 55 57 57 60 60 59 60 61 61 60 58 58 58 57 61 60 60 61 60 60 57 58 58 60 61 60 58 59 59 63 63 63
64 67 68 69 69 67 65 63 62 60 58 56 59 59 62 61 60 59 59 60 61 60 57 57 56 59 59 64 62 60 59 57 57 59 59 60 59 59 59 61 62 63 62
66 67 68 70 68 65 64 63 61 59 59 58 58 63 62 61 61 60 59 57 57 57 57 59 56 55 56 59 61 60 58 57 58 59 58 59 57 58 58 58 59 61 61
66 67 69 70 67 65 63 63 61 60 59 59 59 63 63 61 60 59 58 56 57 57 57 58 57 55 55 55 59 59 56 56 58 54 58 59 58 56 56 56 57 58 57
65 68 70 70 68 66 63 62 61 59 60 59 63 64 63 61 60 58 56 56 57 56 56 56 57 57 55 55 55 57 55 55 56 52 58 58 54 55 55 55 55 54 53
64 67 70 70 68 66 64 63 61 59 60 58 60 62 62 62 59 57 57 56 57 57 57 56 56 57 55 57 58 57 56 55 53 50 56 56 56 56 55 55 54 53 52
63 67 69 70 68 66 64 63 62 60 60 59 60 61 61 60 59 58 59 58 58 60 59 58 56 56 58 57 57 59 58 56 53 50 56 55 57 55 54 54 54 53 52
66 68 69 69 68 66 65 65 63 61 61 60 58 60 60 59 60 60 59 60 60 60 60 58 56 56 56 58 57 57 58 56 54 50 53 55 57 55 54 53 54 54 53
65 66 68 67 66 65 65 65 63 63 62 60 60 61 60 60 60 61 62 61 61 61 60 58 57 54 54 57 58 58 59 58 54 50 48 53 58 53 55 52 52 53 53
64 65 66 65 64 64 64 65 63 63 62 60 61 61 60 60 60 61 62 61 62 61 60 59 56 52 52 54 58 59 59 57 54 48 46 54 57 53 54 53 51 50 51
60 63 65 65 64 63 62 62 63 62 61 61 61 61 60 59 58 60 61 61 61 61 61 59 57 54 54 56 56 58 58 56 54 50 46 50 58 56 55 53 53 50 49
54 56 62 63 63 62 60 60 61 61 60 60 61 60 60 59 58 58 59 60 62 61 60 60 58 56 53 53 52 50 52 54 53 50 45 50 54 57 56 53 53 52 50
55 55 55 61 62 61 59 59 60 60 60 60 60 60 59 58 57 57 58 59 60 59 59 58 57 56 53 52 51 48 46 49 51 49 44 48 54 58 56 55 54 54 54
54 55 55 56 59 59 58 59 59 58 59 59 59 59 59 58 57 56 57 59 59 59 58 57 57 56 55 52 50 47 46 48 49 48 43 44 50 60 56 56 55 55 56
52 54 56 56 56 57 56 57 58 58 57 58 58 58 58 58 57 56 55 57 57 57 57 57 56 55 54 52 50 47 44 44 45 46 44 42 44 58 59 52 54 55 55
51 51 54 56 57 57 56 54 55 56 56 57 57 57 57 56 56 56 55 54 54 54 55 55 54 53 52 51 49 47 45 43 41 39 38 37 38 48 58 54 51 53 55
50 49 50 54 57 57 57 57 54 52 53 54 55 55 55 55 55 55 55 54 53 53 53 52 51 51 51 50 49 48 48 48 46 43 40 37 37 37 41 55 55 52 52
39 47 48 52 55 57 58 58 57 54 52 52 53 54 54 54 55 55 55 55 54 53 52 52 52 52 51 51 51 51 50 49 49 48 45 41 38 38 38 39 48 54 52
43 42 45 49 53 57 57 59 59 58 57 55 54 54 53 53 54 55 55 55 55 54 53 53 52 52 52 52 52 52 52 52 51 50 49 48 45 41 39 39 39 43 52
45 43 42 43 45 53 58 58 58 58 58 58 57 56 56 55 54 54 55 55 55 55 54 54 53 52 52 53 52 52 52 52 52 52 51 50 49 48 45 43 41 41 41
42 44 43 43 44 50 55 57 58 58 59 59 59 59 58 58 57 56 55 55 55 55 55 55 54 53 53 53 52 52 50 51 52 52 52 51 51 50 49 47 45 43 43
40 40 41 43 46 47 53 56 57 58 58 57 58 58 59 60 60 59 58 57 56 56 56 56 56 54 54 55 54 53 51 49 49 49 50 52 52 51 50 49 48 48 47
41 41 41 41 41 41 46 47 49 50 50 53 54 56 55 56 58 59 59 59 59 58 57 57 57 57 56 54 56 54 54 54 51 50 51 49 50 50 51 51 51 50 49
42 42 41 41 41 41 40 41 41 41 46 48 47 45 46 49 51 53 55 58 59 59 59 58 58 58 58 57 57 56 55 55 54 53 51 51 52 50 50 50 50 50 50
41 42 42 41 41 41 41 41 41 41 41 41 41 42 43 45 47 46 46 48 54 58 59 60 60 60 60 60 59 58 57 55 54 54 53 53 52 53 53 50 49 48 48

GFSSE_sfc_30mbdewp_009.txt.gz
Dewpoint
62 64 67 69 68 69 67 66 64 62 61 58 58 58 57 58 58 60 57 60 59 58 59 58 61 64 63 63 63 61 59 57 59 58 58 59 59 61 60 61 61 60 60
63 64 68 68 69 68 67 65 64 61 58 57 57 56 59 60 59 59 60 61 59 58 56 56 56 62 61 58 61 61 59 57 58 59 60 60 61 59 59 59 63 63 62
63 66 68 69 69 67 66 65 63 61 59 56 58 56 63 61 61 60 60 60 61 59 55 57 56 61 58 62 62 60 59 57 57 59 59 60 60 59 60 61 63 63 62
65 67 68 69 69 68 66 64 63 60 59 57 58 61 63 60 59 59 57 57 56 56 57 58 56 56 56 62 62 60 57 56 58 59 58 60 59 58 58 59 61 61 61
66 67 67 70 69 67 65 64 62 60 60 58 59 63 64 62 60 60 58 57 57 56 57 58 57 56 55 56 56 59 56 55 58 54 58 59 58 57 56 57 58 59 59
66 67 68 70 68 66 65 64 62 61 59 59 60 61 65 62 60 59 57 56 57 57 57 57 58 57 56 56 55 57 57 55 56 51 58 59 57 56 56 55 56 55 55
65 67 69 70 68 66 65 64 62 59 60 60 62 63 62 61 59 57 57 56 57 57 57 56 56 58 57 55 56 57 57 56 54 50 56 57 54 56 55 55 55 54 53
64 67 69 70 69 67 65 64 62 60 60 58 58 60 60 62 60 57 59 58 57 58 58 58 56 56 57 58 57 57 59 58 54 50 53 56 56 56 56 56 55 54 53
63 66 69 69 69 68 66 65 64 62 61 60 59 61 61 61 59 59 59 59 59 59 61 60 59 57 56 57 58 57 59 60 56 51 50 56 57 56 54 55 54 55 54
64 66 68 69 68 67 66 66 65 63 62 63 61 61 61 60 60 61 61 61 60 61 61 61 59 58 56 55 57 58 59 60 58 53 49 52 57 58 55 55 54 54 54
64 66 67 67 67 66 65 65 65 64 63 62 61 61 61 60 59 60 61 62 61 61 62 61 60 59 57 55 56 59 59 59 58 54 49 50 55 58 55 55 55 53 54
61 64 66 66 65 64 64 64 64 63 63 61 60 61 61 60 59 59 60 62 61 61 61 61 60 59 58 54 54 57 59 58 56 54 51 50 52 57 57 54 55 53 52
57 62 64 65 64 63 63 62 63 62 61 60 60 60 60 59 58 58 58 59 61 61 61 61 60 59 57 54 54 53 53 54 55 54 52 52 51 54 57 57 56 55 54
54 56 62 64 63 63 62 60 61 61 60 59 59 60 59 59 58 57 57 57 58 60 60 59 58 58 56 54 52 51 50 48 49 51 51 52 51 52 54 57 57 57 55
53 55 55 61 62 62 61 59 59 59 60 59 59 59 59 59 58 57 57 57 58 59 58 58 57 57 56 55 54 52 50 48 47 47 48 49 51 50 51 54 57 57 56
53 53 55 55 60 61 60 59 59 59 58 59 59 59 59 59 58 57 56 56 57 58 58 57 57 56 56 55 54 53 51 48 46 47 48 48 50 51 49 50 54 56 56
52 53 53 55 56 58 59 58 59 58 58 58 58 58 58 58 58 57 56 55 55 56 56 56 56 55 55 54 53 52 50 48 46 44 43 42 43 46 50 50 50 53 56
42 50 51 53 56 56 56 56 56 57 57 57 57 57 57 57 57 56 56 55 55 54 54 53 53 52 52 52 51 51 50 49 48 46 44 42 41 39 40 45 51 53 55
43 42 43 50 54 56 57 57 56 54 54 54 55 55 55 56 56 55 55 55 55 54 53 53 53 52 51 51 51 51 51 50 50 49 48 47 44 43 41 41 44 49 53
44 43 43 48 52 56 57 58 58 57 54 53 53 53 53 54 54 55 55 55 55 54 54 53 53 53 52 52 51 51 52 52 52 51 51 50 49 46 44 43 43 43 47
42 44 44 45 47 53 57 57 57 57 58 58 57 56 55 54 54 53 54 54 54 54 54 54 53 53 53 53 52 52 53 53 52 53 52 52 52 51 49 45 44 43 43
40 40 41 43 47 51 56 57 58 58 58 59 59 59 59 58 57 56 55 55 55 55 55 55 54 54 53 53 52 53 51 52 52 53 53 52 52 52 51 50 48 46 45
40 40 41 41 41 45 52 55 56 56 55 53 54 54 54 56 57 59 59 58 57 57 56 56 56 55 54 55 54 53 52 50 51 51 51 52 52 52 52 51 50 49 47
41 41 41 41 41 41 42 43 45 45 45 48 49 48 47 49 49 48 50 53 56 59 58 57 57 57 56 55 56 55 54 54 52 52 53 52 51 51 52 52 51 50 49
42 41 41 42 42 42 42 42 42 42 42 43 44 43 44 44 46 45 44 44 45 49 52 55 57 58 58 57 57 57 57 55 55 53 51 51 53 53 52 51 51 51 51
41 41 42 42 42 43 43 44 43 43 43 43 43 43 43 43 44 43 43 43 43 43 43 45 46 49 53 56 57 56 55 53 53 53 53 53 53 54 54 54 51 51 51

GFSSE_sfc_30mbdewp_012.txt.gz
Dewpoint
62 63 68 70 68 68 68 66 65 64 61 59 59 58 57 58 58 56 57 59 59 57 59 59 60 65 65 64 63 61 59 58 59 58 58 59 60 62 60 61 60 59 60
62 64 69 70 69 69 67 66 64 62 61 59 57 55 57 58 58 58 58 60 57 56 56 56 58 62 61 58 59 60 59 58 59 59 60 60 61 61 59 59 62 62 61
63 64 69 70 69 69 67 66 64 62 59 57 58 56 59 60 61 60 61 60 60 58 54 56 56 56 56 60 61 60 59 58 57 58 59 60 61 59 59 61 64 64 63
63 65 68 69 69 68 67 66 64 62 60 57 58 58 63 62 57 57 57 57 57 56 56 58 56 55 56 59 63 60 57 56 57 60 58 59 60 59 59 60 61 62 62
65 67 67 69 69 68 67 65 64 62 60 58 58 59 64 62 61 60 58 58 57 57 56 58 57 58 56 56 58 59 57 55 58 54 56 58 59 59 57 57 59 60 59
65 67 67 69 70 68 67 65 64 61 61 59 59 61 65 64 60 61 58 57 57 57 57 57 58 58 57 57 56 57 58 55 57 52 55 59 59 58 56 56 58 58 56
65 66 67 69 69 67 67 65 63 61 60 59 60 61 63 64 61 58 58 57 57 57 57 57 56 58 58 57 56 57 57 57 55 51 52 58 58 57 56 56 55 55 54
64 66 67 70 69 68 66 65 64 61 60 59 59 61 61 61 63 58 59 58 58 58 58 58 57 56 56 58 57 57 57 59 56 52 50 55 57 57 57 56 56 55 54
64 66 67 70 69 68 67 66 64 62 61 60 59 59 61 61 61 60 59 60 59 59 59 61 60 59 57 56 57 57 58 59 59 55 51 51 57 58 58 56 56 56 55
63 65 67 68 69 68 67 66 66 65 63 63 62 61 61 61 60 61 61 61 60 60 61 61 61 60 59 58 56 57 59 59 60 58 54 50 56 59 59 56 56 56 55
62 64 66 67 68 67 66 65 66 65 64 63 63 62 61 60 60 59 60 61 62 61 60 62 62 61 60 60 57 57 59 59 58 57 56 53 53 58 58 58 56 56 55
59 63 65 66 67 66 66 65 65 65 64 63 62 60 61 60 59 59 59 60 61 62 61 61 60 61 61 59 56 55 55 57 58 57 56 56 55 53 57 58 57 56 56
55 61 64 65 65 65 65 63 63 63 62 61 61 60 60 60 59 58 58 58 58 59 60 60 60 60 59 58 56 54 53 53 54 55 56 57 56 53 54 55 57 58 57
54 56 62 64 64 64 63 62 62 62 61 60 60 59 59 59 58 58 57 57 57 57 58 58 59 59 58 57 56 54 53 51 50 50 51 53 54 54 52 52 55 57 59
52 54 56 62 63 63 62 62 60 60 61 60 59 59 59 58 58 58 57 57 57 57 57 57 57 57 57 56 56 55 53 52 51 49 48 49 50 51 52 51 51 54 55
53 53 54 55 61 62 62 61 60 59 59 59 59 59 58 58 58 58 57 57 56 56 57 57 57 57 57 56 55 54 54 53 52 50 48 47 49 50 52 52 52 49 52
43 48 53 54 56 60 61 61 60 59 59 58 58 58 58 58 58 58 57 57 56 56 56 56 56 56 56 55 55 54 54 53 51 50 48 47 47 50 51 52 52 51 49
42 42 42 52 55 56 58 59 59 59 59 58 58 58 57 58 57 57 57 57 56 55 55 55 54 54 53 53 53 53 52 52 51 50 49 48 47 45 45 48 51 52 52
43 43 45 48 52 56 56 56 57 56 57 57 57 56 56 56 56 56 56 56 56 55 54 54 53 53 52 53 52 52 52 51 51 50 50 49 48 47 46 45 48 50 52
44 45 46 48 49 55 57 57 57 56 54 54 53 53 53 54 54 55 55 55 55 54 54 54 53 54 53 53 53 53 53 52 52 52 51 51 51 50 48 47 47 47 49
41 41 43 47 51 55 56 56 57 57 57 58 58 58 57 56 55 54 54 54 54 54 54 54 54 54 54 54 53 53 53 53 53 53 53 53 52 52 51 49 48 48 47
40 40 41 42 45 51 56 57 57 58 58 56 54 53 54 55 56 57 56 56 56 56 56 55 55 55 55 55 53 53 52 53 53 53 53 53 53 53 53 52 51 48 47
41 41 41 41 41 42 46 49 50 50 48 47 47 46 47 47 45 45 46 48 50 54 55 56 57 56 55 55 55 54 51 51 53 54 52 53 53 53 53 53 52 51 50
41 41 42 42 42 42 43 43 43 43 43 44 45 44 43 44 44 42 42 43 43 45 44 47 48 52 54 53 55 56 56 55 51 50 53 53 52 52 52 52 52 52 51
42 42 42 43 43 44 44 44 43 43 43 43 43 41 41 42 43 42 41 42 42 43 43 44 43 44 45 47 48 51 52 51 52 50 47 47 50 53 54 53 52 52 52
41 42 43 43 44 44 44 44 44 42 41 40 40 40 40 41 41 40 40 41 41 42 43 43 44 43 44 45 46 45 45 46 47 48 47 46 47 48 50 52 54 53 53

GFSSE_sfc_30mbdewp_015.txt.gz
Dewpoint
62 63 69 70 70 68 66 66 65 64 61 60 59 58 57 58 58 56 56 56 58 57 58 60 60 65 65 64 63 61 59 59 59 59 58 60 61 62 60 61 59 57 60
62 63 69 71 68 69 68 66 65 64 61 60 58 57 56 58 58 57 58 59 58 56 55 57 57 62 62 58 59 60 59 58 59 59 60 60 61 62 59 59 62 59 62
62 63 68 70 69 69 68 66 65 63 61 59 58 56 57 59 60 60 61 59 59 57 55 56 57 56 57 56 59 60 59 58 57 58 60 58 59 61 58 60 63 64 64
62 64 68 71 70 69 68 67 65 63 60 58 58 57 59 61 58 56 57 56 58 55 55 57 57 55 57 56 63 61 58 57 57 59 57 56 59 60 57 60 61 63 63
63 64 68 70 69 68 68 67 65 63 62 59 58 59 63 63 60 59 58 58 57 58 56 57 58 56 57 57 58 60 57 56 56 57 55 58 59 58 60 58 59 61 61
64 65 67 70 69 69 68 66 65 63 61 60 58 59 63 64 62 60 59 58 57 58 58 57 57 58 59 57 58 57 58 58 56 55 54 58 59 59 59 57 57 59 59
64 66 66 69 69 69 67 66 65 63 61 59 59 61 61 65 63 59 58 58 57 58 57 57 57 56 58 58 58 57 57 57 57 55 53 56 59 61 60 56 57 57 56
64 66 66 68 70 69 68 66 65 63 61 60 59 61 63 63 61 60 59 58 58 58 58 58 58 58 57 56 57 56 58 56 58 57 54 52 58 61 58 57 57 56 56
64 65 66 66 69 69 68 67 66 64 62 61 60 60 60 61 61 60 60 60 60 60 58 60 61 61 60 59 58 57 58 59 56 58 58 53 52 58 59 59 57 57 57
63 64 65 66 69 68 67 67 66 65 64 63 63 62 61 61 60 61 61 62 61 60 60 61 61 61 61 61 60 59 59 59 57 58 58 57 55 55 59 59 59 56 57
62 63 65 66 68 68 67 66 66 65 65 64 63 63 61 61 60 60 60 60 61 62 61 60 61 61 62 61 61 60 58 54 54 55 57 58 58 56 55 58 58 58 57
59 62 64 66 67 67 67 66 66 65 64 63 62 61 61 61 60 59 59 59 61 61 62 62 61 61 62 60 59 59 57 55 53 53 54 58 59 58 55 55 57 58 58
54 60 63 65 66 66 67 66 65 65 64 64 62 61 60 60 60 60 59 59 59 58 58 58 58 59 59 59 58 58 57 56 54 53 52 56 57 57 57 54 55 56 57
53 54 60 64 65 65 66 65 65 64 63 63 62 61 60 59 59 59 59 59 58 58 58 58 57 57 58 58 58 57 57 56 54 53 52 53 54 52 52 55 54 53 55
52 53 55 60 63 64 64 64 64 63 62 62 62 61 60 59 58 59 58 58 58 58 58 57 57 57 57 57 57 57 56 55 55 54 53 52 53 54 52 50 51 52 51
52 52 54 55 60 63 63 63 63 62 61 61 60 60 59 59 58 58 58 58 57 58 57 57 57 57 57 57 56 56 55 55 55 54 53 52 52 54 55 54 52 51 52
41 43 44 50 56 60 62 62 62 61 61 60 59 59 59 59 59 58 58 57 57 57 57 57 56 56 56 56 55 55 55 55 54 54 53 52 52 52 53 55 55 55 53
44 44 46 46 54 57 59 60 60 60 60 60 59 59 58 58 58 58 57 57 57 57 56 56 55 54 54 54 54 54 54 54 54 54 53 53 52 51 51 52 54 55 56
44 46 49 49 51 56 57 58 58 58 58 58 58 57 57 57 57 57 56 56 56 56 55 55 55 55 54 54 54 54 54 54 54 53 53 53 52 52 52 51 51 53 55
43 44 48 51 54 56 57 57 57 57 57 56 56 57 56 56 55 55 55 56 56 56 56 56 55 55 55 55 54 54 55 55 55 54 54 53 53 53 52 52 52 51 51
41 42 44 50 54 57 57 57 57 57 55 52 51 51 51 53 54 53 53 52 53 54 54 55 55 54 54 55 54 53 54 54 55 55 55 54 54 54 54 53 53 52 51
41 42 42 43 46 53 57 58 57 52 49 47 46 45 44 42 42 41 42 43 43 45 44 45 48 49 50 51 53 53 50 50 51 54 54 54 54 54 54 54 54 53 52
42 42 43 43 43 44 46 47 46 46 46 45 43 42 43 42 40 39 40 40 41 42 41 43 43 44 42 42 45 48 45 45 48 47 50 51 53 54 54 54 54 54 54
42 44 44 44 44 44 45 44 44 44 42 43 42 41 40 40 40 37 38 39 39 40 40 40 40 41 40 40 41 41 44 45 40 40 37 44 45 47 50 50 52 53 53
43 44 44 45 45 45 44 44 43 42 42 41 39 38 38 37 38 34 35 37 36 37 39 39 38 39 40 40 41 41 41 42 42 42 41 40 43 42 45 47 49 50 52
43 44 45 44 43 43 43 42 41 40 38 36 36 33 33 32 33 30 31 31 32 32 34 33 35 37 38 39 40 40 41 41 42 41 40 40 40 40 41 44 45 46 49

GFSSE_sfc_30mbdewp_018.txt.gz
Dewpoint
59 60 70 70 70 69 67 66 65 63 62 60 59 58 58 58 58 57 57 56 56 57 57 59 60 62 65 64 63 61 59 60 59 59 59 60 62 63 60 60 60 56 59
58 59 69 69 70 68 67 66 66 64 62 60 59 58 57 57 57 56 58 57 59 55 55 57 59 61 63 58 59 60 59 59 59 58 59 59 59 61 60 58 62 58 61
58 58 67 71 70 69 67 67 66 65 62 60 58 56 57 59 59 58 60 58 59 56 56 57 59 58 58 57 60 60 60 58 57 58 59 55 53 60 60 58 61 64 62
58 58 65 71 70 70 68 67 65 64 62 59 58 57 58 61 59 60 57 56 58 57 55 57 58 58 56 58 62 62 59 57 57 58 53 51 52 56 60 57 59 62 64
59 59 63 71 70 69 68 67 65 64 63 60 58 59 60 63 59 58 58 58 57 58 57 57 57 57 58 58 58 59 59 57 56 57 51 52 56 54 57 60 57 59 62
58 59 66 71 70 69 69 67 66 64 63 61 59 58 60 64 62 60 59 58 57 58 58 57 57 57 58 59 58 58 59 59 58 55 51 51 57 56 58 59 58 57 60
58 60 63 69 70 69 69 67 66 64 62 61 59 60 61 62 64 61 59 58 57 57 58 58 58 57 56 58 58 58 58 58 55 56 53 50 54 58 60 60 58 57 57
59 61 60 67 69 70 68 67 66 64 62 61 59 58 62 63 62 61 60 59 59 59 57 59 58 59 58 58 57 56 55 58 55 55 54 53 52 57 60 60 58 57 57
60 61 60 61 65 69 69 68 66 65 63 61 60 60 61 61 61 60 60 60 60 61 60 59 61 61 61 61 60 59 59 59 56 53 53 53 53 55 58 60 59 60 58
60 61 60 61 62 65 65 67 67 66 65 63 63 62 62 61 60 60 61 61 61 61 61 60 60 61 62 62 60 61 60 59 54 52 52 53 55 56 56 57 59 59 59
59 60 61 61 62 63 63 64 66 66 65 64 63 62 62 58 58 58 58 59 60 60 60 60 60 61 62 61 60 61 61 55 51 49 49 51 55 58 57 56 57 58 58
55 58 60 62 62 63 63 63 64 62 61 60 59 58 56 55 57 58 59 59 60 61 61 61 60 61 62 56 55 59 57 54 53 51 49 51 53 56 57 57 56 57 58
51 54 58 60 62 62 63 63 62 62 61 60 60 59 57 55 55 57 57 57 57 58 57 56 56 56 55 55 55 55 55 55 54 53 52 53 53 56 54 55 57 56 56
50 51 54 58 60 61 62 63 62 61 61 61 60 59 58 56 55 55 55 56 56 56 55 56 55 55 55 55 55 55 55 55 55 54 53 54 54 56 56 54 52 55 56
51 52 53 55 58 60 62 62 62 61 61 60 61 60 59 57 56 55 55 56 56 55 56 56 56 56 56 56 56 56 56 56 56 55 55 55 55 55 57 57 56 53 52
50 51 51 53 54 57 60 61 61 61 60 60 60 60 59 59 58 58 57 57 57 56 56 56 56 56 56 56 56 56 56 56 56 56 56 56 56 56 56 58 58 57 56
42 42 43 44 49 55 58 59 61 61 61 60 60 60 59 59 59 59 58 58 57 57 57 57 57 57 56 56 56 56 55 55 55 55 56 56 55 56 56 56 58 59 58
44 46 48 49 46 52 57 58 59 60 60 59 59 59 59 58 58 58 58 57 57 57 57 57 57 57 57 56 56 56 55 55 55 55 55 55 55 54 55 56 56 57 59
45 48 50 51 51 55 57 57 58 58 57 57 57 57 57 57 57 57 57 58 58 58 57 56 55 55 55 55 55 55 54 54 55 55 55 55 54 54 54 54 55 56 55
46 50 51 55 55 56 56 56 57 58 58 58 57 57 57 56 56 56 53 50 51 51 50 49 50 50 50 50 50 51 50 51 52 52 53 53 54 55 54 54 54 54 55
44 46 51 54 55 55 56 56 55 51 49 46 45 42 41 41 40 41 41 40 40 40 40 40 40 40 40 41 39 40 42 44 48 45 50 52 49 50 51 53 52 54 54
41 42 44 49 55 56 57 55 49 46 44 44 43 41 40 38 38 37 38 37 38 38 38 38 39 39 38 38 37 38 35 36 36 40 39 38 40 41 45 49 50 52 53
42 42 43 44 47 46 46 45 45 45 44 42 41 40 39 37 35 36 36 36 36 37 36 37 36 37 35 35 35 36 34 35 37 35 35 35 35 39 38 39 43 44 45
44 45 45 44 44 45 45 44 43 42 40 40 38 38 36 35 32 30 30 31 31 31 31 30 29 31 30 31 31 32 35 35 33 33 32 35 35 37 37 38 38 39 40
45 45 44 43 43 42 42 41 39 39 38 37 35 33 32 31 29 25 24 25 25 24 25 25 25 25 28 28 28 30 33 34 33 33 34 28 29 29 30 33 35 37 39
45 45 43 41 41 41 40 38 38 36 33 32 30 26 25 22 23 21 19 18 19 20 20 19 21 24 30 27 27 29 33 32 30 28 25 26 27 27 27 31 34 36 40

GFSSE_sfc_30mbdewp_021.txt.gz
Dewpoint
56 64 71 70 70 68 68 67 66 64 62 61 59 58 58 58 58 58 58 56 57 56 57 59 59 60 64 64 62 61 59 60 59 59 59 58 60 62 62 59 61 59 58
56 61 71 71 70 68 68 67 66 63 63 61 59 58 57 56 57 56 57 58 59 56 57 58 60 61 62 58 59 60 58 60 58 58 59 58 58 60 61 59 59 61 62
54 58 68 70 71 69 67 66 67 65 62 60 59 56 56 58 59 58 59 58 60 56 56 58 60 59 58 60 61 62 60 58 57 57 58 54 52 60 60 59 59 61 63
54 57 62 71 70 69 68 68 67 65 63 60 58 58 58 60 60 60 57 57 58 58 56 57 58 59 59 60 61 60 59 58 57 58 56 49 50 58 59 59 58 60 63
54 56 67 71 70 70 68 67 66 65 63 60 58 59 61 63 63 57 58 58 58 58 58 58 57 58 58 59 59 59 60 59 57 57 54 50 52 54 58 57 59 57 60
54 56 69 71 70 70 69 68 66 65 64 61 60 59 60 62 64 61 59 58 57 58 58 57 57 57 57 59 59 58 59 60 59 54 54 51 50 55 57 58 59 58 58
54 57 65 71 70 69 69 68 66 65 63 61 60 59 61 62 64 62 60 58 58 58 58 58 57 58 58 57 57 57 57 59 56 53 53 54 50 52 57 59 58 58 58
55 57 61 69 70 70 69 67 66 65 63 62 59 60 62 63 61 62 61 59 59 60 59 58 59 60 60 59 59 59 58 59 54 53 53 54 54 52 56 58 60 58 58
57 57 58 60 66 69 69 67 67 65 63 62 61 60 61 61 61 60 60 60 61 61 61 60 60 62 62 62 61 61 61 60 57 54 52 52 53 55 55 57 59 59 59
57 57 57 58 61 64 65 67 66 66 65 64 63 63 62 61 60 60 60 61 61 61 61 61 60 60 61 62 63 62 62 61 57 54 53 52 54 54 55 56 57 58 58
55 57 57 58 59 61 61 64 65 65 65 64 63 62 61 57 56 57 57 57 59 60 60 60 60 60 61 62 61 60 62 57 55 52 49 49 52 54 56 57 57 57 58
52 55 57 58 58 60 60 62 62 61 62 62 60 58 59 54 54 56 58 59 60 60 61 61 60 61 61 57 56 60 59 56 54 53 53 52 52 52 54 56 57 57 57
49 52 55 57 58 59 60 60 60 59 59 58 57 56 55 53 52 54 55 56 58 58 58 57 58 59 56 54 54 54 54 54 54 54 54 54 54 53 55 56 56 55 57
46 49 52 54 57 58 59 60 59 59 59 58 57 57 56 55 54 54 53 54 55 55 55 56 55 55 55 55 55 55 54 54 55 55 55 55 56 55 56 58 58 57 55
47 49 51 52 55 56 58 59 59 58 59 58 59 58 57 56 55 54 54 55 55 55 55 55 56 56 56 56 56 56 56 56 56 56 57 57 57 58 57 57 59 60 58
48 50 51 52 52 54 56 58 59 59 58 59 58 59 59 58 57 57 57 57 57 57 56 56 56 57 57 56 56 56 55 55 55 55 56 56 57 58 59 58 59 60 61
43 43 43 44 47 52 55 57 59 59 59 59 59 59 59 59 59 59 58 58 58 57 57 57 57 57 57 57 56 56 56 54 54 54 54 55 56 57 59 59 59 59 59
43 45 48 49 45 47 54 57 58 59 59 59 59 58 58 58 58 58 58 57 57 57 58 57 57 55 53 53 52 53 54 53 52 52 53 54 55 55 55 59 59 59 58
45 47 50 50 50 51 56 57 57 57 57 57 57 57 58 58 58 58 57 55 52 53 51 50 47 47 47 47 47 47 48 48 49 48 49 51 52 54 55 55 56 58 58
49 50 53 54 54 55 56 56 56 57 56 53 50 49 46 44 45 46 44 41 41 42 40 40 39 40 40 39 38 39 39 41 43 43 48 48 50 49 46 49 52 54 56
48 51 53 53 54 55 55 55 52 50 47 45 42 40 40 39 39 39 39 38 38 38 37 38 38 39 39 39 38 38 38 38 38 38 39 37 37 38 39 40 42 47 49
42 46 51 53 55 55 52 50 48 46 44 43 42 40 37 36 36 35 36 36 36 36 36 35 35 35 35 34 33 33 32 33 35 35 32 34 34 36 38 39 39 41 42
42 43 45 46 46 47 47 46 45 45 43 40 39 38 36 34 30 30 31 30 30 30 30 30 29 30 29 30 30 30 28 27 32 32 32 32 32 31 35 34 32 33 36
44 44 44 44 44 44 44 44 42 40 38 38 37 36 34 33 29 24 24 25 25 24 24 25 23 24 25 27 28 25 30 31 30 29 28 29 28 25 24 28 27 29 32
45 44 43 42 41 41 40 39 38 37 36 35 33 32 29 28 25 22 19 19 19 20 21 21 21 22 24 27 27 26 27 29 31 26 23 23 23 22 23 25 28 29 30
45 43 41 40 39 38 38 37 36 34 33 32 29 26 24 22 21 19 17 15 15 17 18 17 19 22 26 30 27 25 25 29 26 22 21 22 23 26 27 28 30 32 33

GFSSE_sfc_30mbdewp_024.txt.gz
Dewpoint
62 70 72 70 70 69 68 67 65 63 63 61 59 58 59 58 59 58 58 57 59 56 57 59 60 61 64 63 61 60 60 60 59 59 59 59 57 62 62 59 60 61 57
66 69 72 71 69 69 68 67 66 64 63 61 59 59 58 57 58 56 57 60 59 57 58 59 62 62 61 59 61 61 58 60 58 58 58 59 58 58 61 60 60 61 63
62 68 71 71 70 69 68 67 66 64 62 61 59 56 56 57 59 59 58 58 59 57 57 58 60 60 61 61 62 62 61 59 58 58 58 59 55 57 60 60 59 60 63
57 68 69 71 70 69 68 67 67 65 63 61 58 57 57 61 60 60 57 58 58 59 58 58 58 59 59 60 60 60 61 58 57 58 57 56 52 59 59 58 57 59 61
54 63 67 71 71 69 68 68 66 65 63 61 58 59 61 62 63 57 58 59 59 58 58 58 58 58 58 59 59 60 60 60 59 58 56 55 52 53 59 58 58 59 58
54 69 71 71 71 70 69 67 66 65 64 61 60 59 60 62 64 60 60 58 58 58 58 58 58 58 57 57 59 59 58 58 60 57 55 53 53 51 55 59 58 60 58
57 68 71 71 71 70 69 68 66 65 63 61 60 60 62 62 64 62 60 59 58 58 58 59 57 57 59 59 58 57 57 59 58 56 55 53 55 52 53 57 59 58 58
56 64 69 71 70 70 70 68 67 65 63 62 59 60 62 62 62 63 62 60 59 60 60 58 59 60 61 61 60 60 60 59 58 55 54 54 54 55 54 54 58 59 61
57 59 64 68 70 70 70 68 67 66 64 62 61 60 62 61 61 61 61 60 61 61 61 61 59 59 61 62 62 62 62 62 60 58 56 54 54 54 55 56 56 58 60
57 57 60 61 65 66 69 68 67 66 65 64 63 63 62 61 61 61 61 61 61 61 60 60 60 59 59 61 62 64 64 62 61 59 57 55 55 54 54 56 57 57 59
56 57 57 59 61 64 66 67 67 66 65 64 63 62 62 59 58 59 60 60 60 59 59 60 60 60 61 62 61 61 62 61 59 57 55 54 56 52 52 55 56 57 57
53 56 57 58 59 61 61 65 65 64 64 64 62 61 61 59 57 58 58 58 58 60 60 61 61 61 62 60 58 58 61 59 58 57 55 54 55 53 53 54 55 57 57
52 54 56 58 58 60 60 64 63 62 63 62 61 59 59 54 53 56 57 58 58 59 59 59 60 61 60 59 57 55 58 58 56 55 55 55 57 56 55 56 57 57 58
49 51 55 56 58 58 60 60 60 60 59 58 57 57 56 56 55 54 54 55 56 56 58 57 57 56 56 56 56 56 55 55 55 56 56 56 57 59 58 58 58 59 60
46 49 51 54 55 58 58 60 60 59 59 59 59 58 57 57 56 56 56 56 57 57 56 56 57 57 57 57 57 57 56 56 56 56 57 57 58 59 59 59 59 59 60
47 50 51 52 53 55 58 59 59 59 59 59 60 59 59 59 59 59 58 58 59 58 58 57 57 57 58 57 57 57 56 55 55 55 54 55 55 58 59 59 59 60 60
44 43 43 45 47 53 54 59 59 60 60 59 59 59 59 59 59 59 59 59 59 58 58 58 57 57 57 56 54 54 54 54 54 53 53 53 53 55 56 59 60 59 59
43 44 49 48 44 45 54 58 59 60 59 59 59 58 58 58 58 58 58 53 54 57 55 52 48 45 47 47 47 49 51 52 52 51 49 50 51 52 54 56 58 58 58
45 49 51 49 47 49 57 58 58 58 58 57 56 52 48 46 49 50 45 41 42 44 42 41 41 42 41 41 40 39 40 40 41 43 44 44 42 40 38 40 44 52 56
50 53 53 55 56 57 57 57 55 49 46 45 44 42 41 41 40 41 41 40 40 40 40 39 38 40 39 39 37 37 38 38 40 39 39 34 32 36 38 38 39 41 44
53 54 55 55 56 56 56 55 50 47 44 43 41 39 37 37 38 37 38 37 37 37 37 35 35 34 33 34 33 33 32 34 32 32 28 29 33 32 35 33 37 36 33
51 53 54 55 53 51 51 49 47 45 44 42 40 38 34 32 31 32 32 32 31 31 32 30 29 30 31 30 31 29 28 28 31 28 32 33 30 31 28 32 26 25 28
46 47 48 48 48 48 47 45 44 45 43 41 40 37 34 29 26 26 26 26 27 27 26 25 26 25 25 28 30 28 28 27 27 30 29 31 26 24 27 23 20 24 25
44 45 45 46 46 47 46 46 44 40 38 38 36 36 33 28 24 22 23 23 23 24 23 23 23 23 25 27 31 28 28 28 26 27 30 26 24 22 22 23 22 24 29
45 44 43 42 41 41 41 40 39 38 36 35 33 30 27 26 23 20 20 20 20 21 21 20 20 22 26 27 31 28 27 28 27 29 25 22 22 22 24 26 28 27 29
45 43 41 39 39 39 38 37 36 34 33 30 26 25 23 23 22 18 18 16 17 18 19 19 21 21 24 25 28 26 25 22 21 23 24 21 20 21 24 27 28 24 24

GFSSE_sfc_30mbdewp_027.txt.gz
Dewpoint
68 72 72 70 70 69 68 67 65 64 62 60 59 58 59 60 60 60 58 59 59 58 59 62 62 63 65 63 62 61 61 60 59 59 59 59 58 58 62 59 60 60 58
69 72 71 71 70 69 68 67 65 64 62 60 59 58 56 58 58 56 58 60 57 57 58 60 62 62 63 62 63 61 61 59 58 58 59 59 58 58 61 61 60 60 63
69 71 71 71 70 69 68 67 65 64 62 61 58 57 56 58 59 59 58 58 57 57 58 58 60 60 62 62 61 62 61 60 59 58 58 58 57 58 58 60 60 59 62
68 71 71 71 70 69 68 66 65 64 62 61 58 57 57 61 59 59 58 59 59 58 58 58 58 59 59 60 60 60 61 60 58 57 57 56 56 57 59 60 58 58 60
69 70 71 72 71 70 68 67 66 65 62 61 58 59 60 62 62 56 59 59 58 58 58 57 57 57 59 59 59 59 60 60 61 59 58 57 54 51 58 60 58 58 59
65 68 71 72 71 70 69 68 66 65 63 61 59 59 60 62 64 60 60 58 59 59 58 58 58 58 57 56 57 59 59 59 60 58 56 55 55 54 52 58 59 59 60
68 69 71 72 71 71 69 67 66 65 64 61 60 60 63 63 64 62 61 59 59 59 59 59 58 57 59 60 59 59 58 58 59 57 55 54 54 56 55 54 58 60 59
68 70 71 71 71 71 69 68 66 65 63 61 60 62 63 63 65 63 61 60 60 60 60 60 58 60 61 62 62 61 61 61 59 57 56 55 55 57 56 55 55 58 59
66 69 70 70 70 70 70 68 67 65 63 62 59 60 62 62 61 61 63 61 61 61 61 61 61 59 60 61 62 63 64 63 62 60 58 57 56 56 56 56 57 57 57
63 65 68 69 70 69 69 68 68 66 65 64 63 62 62 61 61 61 62 62 61 61 61 59 60 60 60 60 61 63 64 64 63 61 59 58 59 58 57 55 56 57 57
57 61 64 66 67 67 69 68 68 66 65 64 63 62 61 60 60 60 61 60 62 61 60 60 60 61 62 62 62 62 61 61 61 60 58 58 59 59 57 56 56 56 57
56 57 60 62 63 64 67 67 67 66 65 64 63 61 61 61 59 58 59 60 60 60 60 61 61 62 62 61 60 59 58 59 60 59 58 58 59 57 56 58 58 57 57
54 56 57 59 61 62 64 66 66 64 64 63 63 62 61 60 58 57 58 58 58 58 59 59 59 60 60 60 59 58 57 58 59 58 58 58 59 58 58 59 60 60 59
52 54 57 58 58 60 64 64 63 63 62 62 62 61 60 56 54 54 55 56 57 58 57 58 58 57 57 57 57 56 56 56 56 56 56 57 58 59 58 59 61 61 61
51 53 55 57 58 59 61 62 61 61 61 59 58 57 57 56 56 57 57 57 57 57 57 57 57 58 58 58 57 57 57 56 56 56 56 55 56 58 58 57 57 60 60
47 51 54 54 56 58 59 60 60 60 59 59 59 59 59 59 59 59 59 59 59 59 58 58 57 57 56 55 54 53 53 53 52 52 52 53 53 53 55 55 56 57 56
43 45 47 49 52 55 58 59 60 60 60 59 59 59 59 59 59 59 58 55 57 56 51 48 43 44 44 44 42 43 46 46 46 47 49 50 50 51 50 46 46 52 55
43 44 48 46 44 48 55 59 60 60 59 58 57 53 50 51 56 52 43 42 44 44 42 41 41 40 40 40 39 39 39 39 40 41 43 42 37 35 39 42 42 43 46
44 49 49 49 46 50 58 57 54 51 48 45 44 42 41 41 42 41 40 40 40 40 39 38 38 38 36 36 34 33 37 33 38 40 36 28 29 33 36 37 39 43 41
51 52 53 52 55 57 52 48 45 43 42 41 39 38 39 38 38 38 37 35 36 37 34 33 32 31 33 32 29 34 29 33 37 32 28 24 32 31 34 31 35 32 32
54 54 55 56 56 56 51 47 44 42 40 39 36 34 33 34 32 32 32 31 30 32 29 28 30 28 28 29 32 26 28 29 29 26 19 32 28 31 27 24 25 22 20
53 54 55 54 53 52 50 47 44 42 40 39 35 30 28 27 28 27 27 27 26 27 25 24 25 24 28 29 30 29 25 27 28 21 28 26 29 25 24 22 20 20 23
49 49 49 48 48 46 45 44 43 42 40 38 36 32 26 23 23 24 23 24 24 25 22 22 23 23 25 28 30 27 23 24 23 28 22 28 26 24 23 21 24 23 24
45 47 47 47 46 45 45 44 42 40 38 38 36 32 27 22 20 21 20 21 22 22 20 21 22 23 24 24 27 31 28 27 25 23 28 20 25 24 23 23 24 25 28
44 43 42 42 43 43 43 41 39 37 36 35 30 28 25 21 19 19 18 18 18 20 19 18 20 18 21 26 24 26 26 25 26 22 18 18 23 21 22 23 24 26 27
42 40 39 39 38 38 38 37 35 32 28 25 23 21 21 21 18 17 15 15 15 16 16 17 19 17 20 21 21 25 21 19 22 19 17 18 20 18 22 21 25 26 22

GFSSE_sfc_30mbdewp_030.txt.gz
Dewpoint
68 72 72 70 69 68 68 66 64 63 61 61 60 60 63 63 64 60 59 60 57 58 60 63 62 66 66 64 62 62 60 59 59 59 58 58 57 57 62 60 59 60 61
69 72 71 70 70 69 68 65 64 63 61 59 59 58 58 58 58 58 58 58 57 58 59 61 62 64 63 64 63 61 60 59 59 58 59 60 59 57 59 61 60 59 63
71 71 71 71 70 69 68 66 65 63 62 60 58 56 57 59 58 58 58 58 56 58 58 59 61 61 62 62 61 62 61 60 59 58 59 57 57 58 58 60 60 59 60
70 71 71 71 71 69 68 66 65 64 63 60 57 57 57 57 59 59 58 58 59 58 58 58 58 60 60 60 60 60 61 61 59 58 57 57 56 56 59 60 60 58 59
70 71 71 71 71 70 68 66 65 64 63 60 58 57 59 62 61 58 60 59 58 58 58 58 57 58 59 59 59 59 59 60 60 60 58 57 56 55 55 61 60 59 58
69 70 71 71 71 70 69 67 66 64 63 61 58 60 60 62 62 57 60 59 60 59 58 58 57 57 57 57 56 57 58 59 60 59 57 55 56 56 57 54 59 59 60
68 70 71 72 71 70 69 67 66 65 63 61 59 60 61 62 64 61 61 60 60 59 59 59 58 57 58 60 60 60 60 60 59 58 56 55 54 57 58 57 55 59 60
67 69 71 72 71 71 69 67 67 66 64 60 60 62 64 64 64 63 61 61 60 60 60 60 59 59 60 61 62 61 62 62 61 59 58 57 57 57 58 58 57 56 57
69 70 70 71 71 71 69 68 67 66 64 61 61 62 63 62 65 64 63 62 61 61 61 61 61 60 60 60 61 62 64 64 64 62 60 59 59 59 58 57 57 57 58
68 69 70 70 70 70 70 68 68 66 65 64 62 62 63 62 61 62 64 63 61 61 62 61 59 60 60 60 61 62 63 63 62 62 61 60 60 61 60 59 57 57 58
65 67 69 69 69 69 69 68 68 67 65 64 63 62 61 61 60 61 62 61 62 62 62 60 60 61 62 62 62 62 62 61 60 60 60 59 61 61 61 60 60 56 56
60 63 66 68 68 68 68 68 67 67 65 64 63 62 62 61 59 57 59 60 61 62 61 61 61 62 63 62 60 60 59 58 58 59 59 59 61 62 61 61 60 60 59
56 59 62 64 65 65 66 67 67 66 65 64 63 62 61 61 60 59 58 59 60 59 59 59 59 59 59 59 59 59 58 57 58 59 58 59 60 60 60 60 61 60 60
53 56 59 61 62 63 65 66 66 65 64 63 63 62 61 60 57 56 56 57 57 57 57 57 57 57 57 57 58 57 57 57 56 56 56 56 58 56 55 55 56 59 60
48 54 57 59 60 61 64 65 64 63 63 62 62 62 60 58 56 57 57 57 57 57 57 57 57 56 54 52 50 48 49 52 51 52 52 51 54 54 52 54 55 55 58
46 52 56 58 59 60 63 63 62 62 62 61 60 58 58 59 59 59 58 58 57 56 55 47 45 45 44 43 41 42 43 43 43 44 46 47 47 42 42 44 46 48 49
46 50 54 56 57 59 60 61 60 60 60 60 60 59 59 59 59 50 44 44 45 43 42 41 41 40 38 38 36 38 37 37 37 39 43 36 33 36 41 41 42 45 48
43 46 47 49 53 57 59 60 60 60 57 52 46 45 46 45 45 42 41 41 42 40 39 38 36 34 33 33 30 30 33 33 33 40 34 24 30 34 36 36 36 36 36
44 47 48 46 46 56 57 55 50 47 45 43 42 41 40 40 40 38 37 37 38 34 32 33 31 30 31 28 27 28 31 29 36 32 23 23 32 31 31 29 34 28 28
48 50 50 48 56 51 48 45 43 41 40 39 38 37 36 35 35 34 31 31 33 29 27 27 27 27 30 28 29 29 25 30 35 24 19 29 30 30 26 26 25 21 25
53 53 54 55 52 49 47 44 42 39 37 34 33 31 31 29 29 29 28 27 29 25 24 25 25 25 26 29 30 25 26 31 27 19 24 24 27 26 24 23 20 22 23
54 55 56 55 52 50 46 43 41 39 36 33 29 26 25 25 24 24 25 25 25 23 21 22 24 22 25 29 25 30 23 25 25 15 25 23 25 21 26 24 22 23 24
52 53 52 51 49 46 43 41 39 37 36 32 28 25 22 22 22 21 22 22 22 22 20 21 23 21 20 26 28 24 18 20 21 25 19 23 17 24 22 25 22 23 23
49 49 48 47 45 44 43 40 38 36 34 35 31 26 21 20 20 19 20 20 20 20 18 19 22 19 21 22 25 26 28 26 18 19 24 19 21 17 24 22 22 24 24
46 46 46 45 45 44 43 40 39 37 36 33 28 23 20 18 18 17 16 16 16 18 17 17 18 16 20 22 22 25 26 22 22 24 17 15 17 19 20 20 24 21 25
43 43 43 43 42 41 40 38 36 33 29 26 24 22 20 18 16 15 14 14 14 14 15 15 16 16 17 18 19 18 17 16 19 17 13 14 16 17 19 21 20 21 24

GFSSE_sfc_30mbdewp_033.txt.gz
Dewpoint
66 71 72 70 69 68 67 66 65 63 62 62 62 63 64 66 63 60 59 60 57 58 61 63 61 67 66 65 64 62 61 59 58 58 59 59 58 57 61 60 59 60 62
67 72 72 70 69 68 67 66 64 63 61 61 59 60 61 62 61 60 58 58 57 57 59 62 64 64 65 64 63 61 60 60 59 58 59 59 58 59 58 61 61 60 62
69 71 71 71 70 69 66 65 65 63 61 60 59 57 57 57 57 57 57 57 56 58 57 60 61 62 63 62 62 62 61 60 59 58 59 56 57 57 59 58 60 60 58
70 71 71 71 71 69 67 66 65 63 62 60 57 57 57 57 58 58 58 58 59 58 58 58 58 60 60 60 61 60 61 61 60 59 58 57 56 57 59 59 61 60 59
70 71 71 71 71 69 67 66 65 64 63 60 57 57 58 58 59 58 59 58 58 57 57 57 57 58 59 60 60 60 59 59 60 60 58 57 56 57 57 57 62 60 60
70 70 71 72 71 70 69 66 65 64 63 61 58 58 60 63 62 59 60 60 60 59 58 57 57 57 56 57 56 57 57 57 59 58 57 56 56 56 57 58 56 59 59
69 70 71 72 71 71 68 67 66 65 63 61 58 60 61 62 64 58 61 61 61 60 59 58 58 58 58 60 60 61 61 61 60 59 57 56 55 57 57 59 58 56 60
68 70 70 72 71 71 69 68 67 65 64 61 59 61 63 63 64 62 62 61 61 60 59 59 59 59 59 60 60 60 61 63 62 61 60 59 58 60 59 57 58 59 57
67 69 70 71 71 71 70 69 68 66 65 61 61 63 64 64 65 64 63 62 61 61 61 61 61 61 60 60 60 61 63 64 64 63 62 61 61 61 61 60 59 58 58
67 69 70 71 71 71 69 69 68 67 66 63 62 64 64 62 63 64 65 64 62 61 62 62 60 59 60 61 61 62 62 62 62 61 61 60 62 62 62 62 61 60 59
67 68 69 70 70 70 69 69 68 67 66 64 62 62 63 62 61 61 62 63 63 62 62 62 61 61 62 62 62 62 62 61 60 59 60 60 61 62 62 63 62 61 60
64 66 68 69 69 69 69 68 68 67 65 64 63 62 61 60 59 59 59 60 62 62 63 62 62 63 63 62 60 60 59 58 58 58 59 60 61 61 62 62 62 61 60
61 63 66 68 68 68 68 67 67 66 65 64 63 62 61 61 60 59 58 58 59 60 59 59 58 57 57 58 58 58 58 57 57 57 57 58 56 57 57 57 57 58 58
54 59 62 65 66 66 66 67 67 66 65 64 63 62 61 60 59 57 57 57 57 57 57 57 57 57 57 56 53 50 49 51 50 51 50 51 54 53 51 52 54 54 56
47 54 59 62 63 64 65 66 66 65 64 64 63 62 61 60 57 55 56 57 58 58 57 55 51 47 44 44 41 42 43 42 41 42 46 49 44 44 46 47 49 50 52
37 45 57 60 61 62 63 65 64 64 63 63 62 61 60 57 58 58 55 52 46 46 43 43 42 40 39 37 34 35 35 36 36 37 41 31 40 38 42 45 45 48 47
42 47 55 58 60 61 62 64 63 63 62 60 59 59 59 59 50 45 44 43 42 41 40 37 36 34 32 30 26 27 29 34 30 40 28 25 33 37 36 38 40 39 39
45 47 53 57 58 60 61 61 61 60 57 50 49 48 47 44 43 42 41 40 37 34 34 32 29 28 27 25 24 25 30 27 33 30 21 27 31 31 30 35 33 30 32
44 47 49 53 56 58 59 56 51 47 46 43 42 42 41 39 37 36 36 35 31 28 27 28 27 28 26 24 24 28 25 26 36 21 21 27 31 27 26 27 27 25 27
44 48 48 51 55 54 49 45 43 41 40 40 38 36 35 34 31 30 30 29 27 24 23 22 23 25 30 25 25 22 25 29 32 19 24 24 29 25 25 24 22 22 24
50 50 49 53 50 49 47 44 42 39 36 33 31 30 28 28 27 26 26 25 24 21 21 22 22 21 24 27 23 24 26 30 28 20 22 22 21 20 26 21 24 22 24
52 53 54 51 49 48 46 42 39 36 32 29 27 25 24 23 23 23 23 23 21 20 20 21 20 18 21 27 27 29 19 18 24 17 21 24 19 21 23 18 25 21 22
53 54 54 50 48 45 41 38 35 32 29 26 23 22 21 21 21 21 21 21 20 20 18 21 19 17 17 23 27 16 10 15 23 22 17 24 17 21 17 22 24 21 24
53 53 51 48 45 42 40 37 36 33 30 30 24 21 19 19 18 19 19 19 19 19 17 19 19 17 21 19 22 22 25 26 16 14 22 18 19 14 19 22 21 22 24
50 50 48 45 44 42 40 38 37 35 32 27 21 18 17 17 17 16 16 15 16 17 16 16 15 15 19 19 20 22 23 21 23 22 14 15 12 12 17 19 22 21 22
46 47 46 45 43 41 40 38 36 32 28 24 22 19 16 16 15 14 13 13 13 14 14 14 15 15 16 15 16 16 16 16 19 17 14 12 12 12 17 18 19 20 21

GFSSE_sfc_30mbdewp_036.txt.gz
Dewpoint
65 69 72 70 69 68 67 66 65 64 64 63 63 63 65 65 63 60 60 59 58 59 62 61 62 67 65 65 64 62 61 59 58 58 59 60 59 56 58 61 60 59 62
65 70 72 70 69 68 67 66 65 63 63 62 61 63 63 66 62 60 58 57 58 57 61 63 65 65 66 65 64 62 60 60 59 58 60 57 58 59 59 58 61 60 60
67 71 71 70 69 68 67 66 64 63 62 60 59 59 60 60 59 56 56 57 57 58 57 61 62 63 64 62 62 62 61 61 60 59 59 56 56 58 59 59 60 60 59
70 71 71 71 70 68 66 66 65 63 61 60 58 57 57 56 57 57 58 58 59 58 57 58 59 61 61 60 61 61 60 60 61 61 59 58 56 57 58 59 60 61 60
70 71 71 72 71 69 67 66 65 64 62 60 57 58 58 57 58 59 58 58 58 57 57 57 57 58 59 60 60 60 59 59 60 60 59 57 56 57 57 58 57 62 61
70 70 71 72 71 70 67 66 65 64 63 61 58 58 59 62 61 59 60 60 60 58 58 57 57 56 56 57 57 58 59 58 59 58 57 56 57 57 56 58 58 57 59
69 70 71 72 71 70 68 67 66 65 64 61 59 58 60 62 64 60 61 61 61 59 59 58 57 58 58 60 60 61 61 61 61 60 59 58 57 59 59 57 59 58 58
69 70 70 72 71 71 69 68 67 66 64 62 58 60 61 62 64 62 62 62 61 60 59 59 59 59 59 60 61 61 62 63 63 62 61 60 60 62 62 60 58 59 59
69 69 70 71 71 71 69 69 68 66 65 62 59 61 63 64 64 63 63 62 62 61 61 62 61 60 61 60 60 61 62 63 63 62 62 61 61 62 63 62 62 61 60
67 69 69 70 71 70 69 69 68 67 66 63 62 64 64 62 65 65 64 64 63 62 62 62 62 60 60 61 62 63 63 63 61 60 59 59 62 63 63 63 63 63 62
66 68 69 70 70 70 69 69 68 68 67 64 63 64 64 61 60 61 62 64 63 63 62 63 62 62 63 63 62 62 61 60 58 58 58 60 62 62 62 63 63 63 63
64 66 68 68 68 69 69 68 68 67 66 65 63 62 62 61 60 59 59 59 62 63 63 63 62 62 60 59 59 59 58 57 57 57 58 58 56 58 59 59 59 59 59
62 65 67 67 67 68 68 67 67 66 65 64 63 62 61 60 60 59 58 58 58 59 59 58 58 57 57 57 57 55 52 53 50 50 50 52 53 54 53 53 54 55 56
57 62 65 67 67 67 68 67 67 66 65 64 63 62 60 60 59 58 56 56 57 57 57 57 57 55 47 43 42 43 44 43 42 43 45 51 46 47 48 50 50 51 53
51 54 61 65 67 67 67 67 66 66 65 64 63 62 61 60 58 55 56 58 58 57 54 46 44 42 39 37 34 35 35 35 34 38 38 42 42 44 46 48 49 51 49
39 41 55 62 65 65 66 66 66 65 65 64 63 62 62 59 57 59 53 45 43 43 42 41 38 35 31 29 24 26 29 32 30 40 25 34 41 41 42 45 44 44 43
38 39 45 59 63 63 64 65 65 64 64 63 62 61 59 59 53 47 44 41 40 39 36 31 30 30 24 24 21 24 29 27 35 23 25 30 32 33 39 38 38 37 38
39 43 49 57 61 61 62 63 63 63 60 57 56 56 53 47 44 43 40 36 31 29 29 28 25 27 23 22 18 24 26 25 36 18 26 29 31 26 29 33 31 30 32
42 45 49 56 59 60 61 61 57 52 49 46 45 43 41 40 39 38 33 29 26 24 23 24 23 28 23 20 17 23 22 26 31 19 23 28 25 24 26 24 27 27 27
44 47 48 55 58 58 52 47 44 44 42 41 39 37 35 32 31 30 26 24 23 21 20 20 20 23 26 24 21 17 27 29 31 19 24 25 21 22 26 20 23 24 24
45 48 50 54 54 51 48 46 44 42 37 34 32 30 29 28 27 25 24 21 21 20 20 18 21 17 22 27 20 21 25 26 28 25 20 23 20 20 24 17 20 24 23
47 49 51 51 50 50 49 45 41 40 32 29 27 25 25 24 24 22 21 20 20 18 19 18 15 15 20 26 21 24 12 13 20 16 21 24 19 21 18 13 19 23 21
50 51 52 50 49 46 42 37 32 30 26 24 23 22 22 22 21 20 20 19 19 19 19 18 17 17 15 19 26 15 5 8 22 19 18 24 17 18 14 16 20 21 21
51 53 51 49 46 42 40 38 36 34 28 25 22 21 19 19 19 19 18 18 18 17 16 18 17 18 18 16 19 20 22 24 12 12 19 16 18 13 14 17 19 21 22
52 52 49 46 43 41 39 37 35 32 27 23 20 17 16 16 16 16 16 15 15 16 15 15 14 15 18 17 17 19 20 19 22 21 12 14 13 13 14 16 20 18 19
51 49 46 44 42 40 39 37 34 28 23 20 18 16 15 16 15 13 13 13 14 14 14 15 15 14 15 14 15 15 15 15 17 15 14 14 14 13 15 16 18 19 20

GFSSE_sfc_30mbdewp_039.txt.gz
Dewpoint
65 68 73 71 69 68 67 66 65 65 65 64 64 66 65 65 62 61 60 59 58 60 62 59 61 64 66 65 64 62 61 59 59 59 60 59 58 57 57 61 60 57 61
65 69 73 70 69 68 67 66 65 65 64 63 63 64 65 65 62 60 58 57 57 58 61 65 67 66 66 66 63 62 61 60 60 60 59 58 58 59 59 60 60 59 60
66 70 70 71 70 68 67 66 65 63 62 60 60 61 62 63 60 56 57 57 58 58 58 61 63 65 64 63 63 62 61 61 60 60 59 57 56 58 59 60 60 60 59
68 70 69 71 70 68 67 66 64 63 61 60 58 58 57 57 57 57 58 58 58 57 58 58 60 61 61 61 61 61 60 60 62 61 59 58 56 56 58 59 60 60 61
69 70 70 71 70 68 67 66 65 63 61 59 58 57 57 57 58 58 58 58 58 57 57 57 58 59 60 59 59 58 58 58 60 60 58 57 56 54 56 58 58 60 63
69 70 71 71 71 69 68 66 65 64 62 59 58 59 59 60 59 60 60 60 60 58 57 57 56 56 57 58 59 59 60 60 60 58 58 58 58 58 58 57 59 58 58
68 70 70 72 71 69 67 67 65 65 64 61 59 59 59 62 63 61 62 61 61 59 59 58 57 58 58 60 60 61 61 61 61 61 61 61 60 62 61 60 58 59 59
69 70 70 71 71 70 68 67 66 65 64 62 59 59 60 62 64 62 62 62 62 60 59 60 60 60 60 60 60 61 62 63 61 60 61 61 61 62 63 62 62 60 60
69 69 70 69 70 71 69 68 68 66 65 63 59 61 62 64 63 65 63 62 62 61 61 62 61 61 60 61 61 62 63 63 60 60 60 60 60 63 63 63 63 63 62
68 69 69 70 69 69 69 69 68 67 66 64 61 63 64 61 65 65 63 63 63 62 62 62 62 62 61 62 63 63 63 62 60 59 59 59 62 63 63 63 63 63 63
66 68 69 70 70 70 69 68 68 68 67 64 63 64 63 62 61 61 62 64 64 63 63 63 63 63 64 62 62 61 60 59 58 58 58 60 59 60 61 60 60 60 60
64 66 68 69 69 70 69 69 68 67 66 64 61 63 63 62 60 59 59 59 60 62 62 62 61 60 58 58 58 58 57 56 55 54 52 54 55 55 56 55 56 57 57
62 65 67 67 67 68 68 68 68 67 66 64 62 61 61 60 60 59 59 59 59 59 59 58 58 58 57 52 47 46 46 44 43 43 46 51 50 50 51 52 52 53 55
59 62 66 67 66 67 67 67 68 66 66 64 63 62 61 60 60 59 57 57 57 58 58 58 54 45 42 38 36 39 38 37 35 37 42 47 47 48 48 50 51 54 52
53 57 63 66 66 66 67 66 67 66 65 64 63 62 61 60 59 56 57 58 57 55 48 45 42 38 33 29 26 27 29 31 29 39 29 44 45 46 47 49 48 48 47
41 44 54 63 67 66 66 66 67 66 66 65 63 63 62 61 58 59 49 46 44 42 40 39 34 31 26 23 21 24 29 25 34 27 31 37 40 43 44 44 43 42 42
40 40 42 55 64 66 66 66 66 65 65 64 63 63 62 59 58 49 44 41 40 37 31 29 30 27 23 21 19 24 26 24 35 24 30 30 29 37 39 37 36 36 37
40 40 42 52 61 64 65 65 65 65 64 64 62 61 59 53 48 44 39 34 31 29 29 25 26 27 22 21 19 22 23 27 23 26 28 28 26 25 28 30 28 28 30
40 41 44 53 59 62 64 64 64 63 60 56 53 49 46 44 43 38 33 28 25 25 25 23 25 27 21 20 19 20 25 30 21 24 25 26 24 26 24 22 24 24 26
42 44 47 54 60 61 62 57 53 51 49 47 45 41 39 37 34 31 28 24 24 23 21 23 20 23 21 22 19 18 28 32 25 23 22 24 22 22 22 19 16 16 22
42 46 49 56 59 57 54 53 50 47 44 41 36 33 32 31 28 26 24 22 23 20 18 17 21 19 20 24 19 19 23 24 30 29 18 23 22 21 19 15 11 13 16
42 47 51 56 56 54 54 51 48 46 43 39 31 30 29 27 25 23 22 21 21 20 18 17 18 18 19 25 16 20 13 13 21 19 24 23 20 19 15 11 12 14 16
45 47 51 53 52 51 45 43 40 39 35 30 26 27 26 23 22 22 21 20 21 21 19 19 20 20 16 22 20 14 9 8 17 17 17 21 16 15 13 13 13 13 16
47 50 51 51 49 45 43 43 43 43 37 30 26 24 22 21 21 20 20 19 19 20 18 17 18 18 19 15 18 18 20 18 10 8 16 16 16 12 14 14 13 15 16
50 52 51 48 46 43 43 44 44 40 32 24 20 19 18 19 18 18 18 19 18 18 17 17 17 17 17 17 16 17 17 16 20 18 8 10 12 13 14 14 14 15 16
51 52 49 46 43 42 41 39 37 31 24 19 18 17 16 16 16 16 16 17 17 17 17 17 17 17 16 17 17 16 14 13 12 13 12 12 14 12 14 15 16 14 15

GFSSE_sfc_30mbdewp_042.txt.gz
Dewpoint
62 66 72 71 69 69 67 66 65 65 66 67 66 66 65 64 62 61 60 59 59 61 62 59 60 61 66 65 64 62 61 60 60 61 58 58 57 57 57 61 60 54 60
63 66 73 71 69 68 67 66 66 66 65 64 65 66 66 64 62 60 58 58 58 59 64 65 67 66 66 66 63 62 62 61 60 61 58 57 57 59 59 61 59 57 60
63 66 69 70 69 68 67 66 66 65 63 62 64 63 66 64 61 57 57 58 59 57 60 62 64 66 65 64 63 62 62 61 60 61 59 54 52 57 59 60 60 60 59
64 66 67 71 70 68 67 66 64 63 61 60 60 60 60 59 57 58 58 59 58 57 58 59 61 62 62 62 61 61 61 60 61 61 55 52 50 52 57 58 60 60 61
64 65 67 71 69 68 67 65 64 62 61 59 58 58 57 58 57 58 58 59 59 57 57 58 58 59 59 58 58 57 58 58 61 59 54 55 55 53 56 56 58 59 62
64 64 70 71 70 69 67 66 64 63 61 59 59 58 59 59 60 60 60 60 59 58 57 57 56 57 58 59 60 60 60 61 61 58 58 58 58 61 61 59 58 59 59
64 64 68 71 70 69 67 66 65 64 62 59 59 60 61 62 61 62 62 61 61 59 59 58 58 59 59 60 62 61 62 62 60 58 58 59 59 62 62 62 61 59 60
65 65 66 70 71 69 68 67 66 65 64 61 59 60 60 62 64 62 63 62 62 60 60 60 61 61 61 61 61 61 62 62 58 58 59 59 61 62 63 62 62 63 62
65 65 65 67 69 69 69 68 67 66 65 62 60 61 62 63 63 63 64 63 62 61 61 62 62 61 60 61 62 63 63 63 60 59 59 58 61 63 64 63 63 64 64
64 64 64 65 66 66 67 68 68 67 66 64 61 63 63 62 64 65 64 63 63 62 62 63 63 62 62 63 63 63 62 60 58 58 58 59 62 61 62 62 61 61 62
63 63 63 65 65 65 66 68 68 67 66 64 62 64 62 58 61 62 63 64 64 63 63 63 63 64 63 62 60 60 59 57 57 57 57 56 56 57 58 57 57 58 59
61 63 63 64 65 65 65 67 66 65 64 62 58 59 58 56 56 57 59 59 61 62 61 61 60 59 58 57 58 58 54 54 53 53 51 53 54 54 53 53 54 55 56
58 61 63 64 67 66 66 66 66 65 63 62 59 57 57 56 54 54 56 56 57 58 58 58 58 58 54 49 48 47 47 46 46 45 48 49 49 50 51 52 52 56 54
55 59 62 63 66 67 67 66 65 65 64 63 61 57 57 56 57 57 56 57 57 57 58 58 52 46 43 41 39 40 39 39 36 36 42 47 46 47 50 52 52 51 49
52 56 59 63 64 66 66 66 65 65 63 63 61 59 58 58 57 57 56 57 57 56 52 49 43 39 39 36 31 29 30 30 27 32 30 45 45 47 49 48 47 46 46
48 49 54 61 63 65 66 66 66 64 63 63 61 59 59 59 59 57 55 50 46 44 42 42 40 37 33 27 24 23 26 24 28 28 30 38 44 44 44 43 42 41 41
40 41 42 51 60 63 65 65 66 63 63 63 61 61 61 61 59 55 50 47 44 41 37 35 33 29 26 24 23 21 23 21 29 26 29 28 32 38 37 36 34 33 34
43 42 42 42 49 59 63 65 64 63 63 63 63 62 62 60 56 49 43 39 37 36 33 28 28 27 25 23 21 21 21 23 25 26 28 26 26 24 28 30 30 29 30
41 41 42 44 46 54 60 62 63 62 62 63 63 62 60 57 51 44 39 33 31 30 29 24 27 24 22 21 19 18 24 27 25 22 25 23 25 25 23 20 21 19 23
41 41 42 44 49 55 59 61 62 62 63 62 60 57 53 50 43 35 33 29 27 27 25 24 23 22 20 20 18 17 25 29 24 24 24 20 22 23 22 19 16 13 16
42 42 44 46 51 56 58 59 61 59 57 56 54 49 46 41 35 30 30 27 26 24 20 19 20 21 20 21 18 16 21 21 29 28 24 20 22 19 18 14 12 12 13
42 43 45 48 53 57 58 57 57 55 52 48 44 41 40 33 30 27 26 25 23 21 20 19 19 19 19 22 16 19 15 15 20 25 17 20 16 18 14 13 14 13 13
42 43 45 49 55 57 56 57 52 48 43 38 37 36 32 28 25 26 25 24 22 21 21 20 21 20 18 20 18 15 12 11 13 13 17 14 16 13 13 15 14 13 14
41 45 46 50 54 56 54 51 49 51 47 39 36 33 30 27 25 23 22 22 21 20 20 18 18 17 18 16 17 15 18 14 8 8 11 13 14 12 14 15 14 14 15
41 46 48 51 53 52 51 52 52 50 46 37 31 26 25 23 22 21 20 20 19 18 18 18 18 17 15 16 15 14 14 14 15 14 11 10 12 13 14 14 15 15 14
40 49 51 51 51 50 51 51 53 48 39 31 25 24 24 23 20 19 18 19 18 18 18 18 18 18 16 17 15 14 13 12 11 12 11 12 13 12 13 15 15 14 14

GFSSE_sfc_30mbdewp_045.txt.gz
Dewpoint
60 68 73 71 70 69 68 67 67 67 67 66 66 66 65 64 63 61 60 59 61 64 62 61 60 61 66 65 64 62 61 61 61 60 57 57 57 58 57 60 61 56 59
62 67 73 72 70 68 67 66 66 66 67 67 66 66 65 64 62 60 59 57 59 61 64 66 67 61 66 66 63 63 62 61 61 61 58 58 56 59 59 61 61 57 59
63 66 69 71 70 68 67 67 67 66 65 65 65 65 66 64 60 58 59 59 58 58 61 64 65 67 67 65 63 63 62 62 61 61 61 57 52 56 57 59 60 60 59
62 66 67 70 69 68 67 67 66 64 62 62 63 65 64 60 58 58 59 59 58 58 58 60 63 63 63 62 61 61 60 60 61 61 56 50 49 54 54 56 60 61 61
62 64 67 70 69 68 67 65 64 62 61 60 60 59 59 58 57 58 59 59 58 57 57 58 59 59 58 58 58 58 58 58 59 58 55 57 57 59 59 58 57 59 60
61 63 70 70 69 68 67 65 63 62 61 59 59 59 58 59 59 59 61 60 58 58 57 56 57 58 59 61 61 61 61 61 61 57 56 58 58 62 62 61 60 58 60
60 65 68 70 69 68 67 65 64 63 60 60 59 60 60 61 61 62 62 61 59 59 59 59 59 59 60 60 61 61 63 62 59 57 57 58 61 61 63 62 62 62 62
60 63 67 70 70 69 67 66 65 64 62 60 60 61 62 62 63 63 63 62 60 60 60 61 61 61 61 61 61 62 63 62 58 56 58 58 62 62 63 63 63 64 64
60 61 65 67 68 69 68 68 67 65 64 61 61 61 62 63 63 63 63 63 61 61 61 62 62 61 60 61 62 63 63 62 60 57 58 58 62 63 63 63 62 62 62
61 60 62 65 66 66 67 68 68 67 66 63 62 64 63 63 64 65 64 63 62 62 62 63 63 63 63 63 63 62 61 60 59 56 57 58 58 59 60 59 59 59 60
60 59 60 62 64 64 65 67 68 67 66 64 61 64 62 59 62 63 63 64 64 63 63 63 63 63 62 62 60 59 59 56 55 56 56 55 56 57 56 55 56 57 58
59 59 59 61 62 64 66 67 66 65 64 61 57 61 58 56 58 60 60 62 62 62 62 61 60 59 58 57 59 57 53 50 50 50 51 51 52 53 53 53 54 57 57
57 59 59 61 61 61 63 68 65 65 63 62 57 57 55 54 56 55 57 56 58 58 58 59 59 57 52 50 50 49 48 47 47 46 48 49 48 48 50 52 56 54 52
52 57 60 60 61 61 63 63 64 64 63 62 59 55 55 54 52 54 55 56 57 56 56 57 52 49 47 44 43 40 40 40 37 35 46 48 48 50 51 52 50 50 49
49 53 57 59 61 63 63 63 61 63 63 61 60 56 55 55 55 55 55 55 55 56 54 51 48 45 44 41 38 33 31 31 28 32 40 46 47 49 49 48 46 46 45
47 50 54 58 59 62 64 65 63 61 63 62 60 58 56 56 56 56 56 55 52 50 48 47 45 42 39 34 29 26 26 27 25 30 30 42 46 45 44 43 40 38 38
41 47 48 53 57 59 62 65 66 62 62 62 61 58 58 58 59 58 55 53 50 47 44 42 38 35 30 29 27 24 24 23 24 26 29 31 40 39 37 36 35 34 35
42 41 42 43 52 57 59 64 65 63 62 63 62 59 59 60 59 55 53 48 45 43 40 36 32 31 29 26 24 24 23 24 26 25 29 28 29 28 35 29 28 28 28
42 43 42 43 44 49 57 60 63 62 60 63 62 60 60 60 58 52 48 42 41 38 35 29 30 26 25 24 22 18 23 27 27 23 26 25 27 27 27 24 22 21 20
39 41 41 43 45 46 52 59 60 59 61 62 62 61 61 59 54 47 42 38 36 33 30 29 27 25 23 22 20 19 25 29 26 26 25 23 23 24 23 21 20 17 17
38 40 41 42 44 47 52 56 58 59 62 63 63 61 59 55 47 43 38 35 32 30 27 25 24 24 24 23 21 21 24 24 29 28 29 22 22 22 20 17 16 17 16
39 42 42 42 44 49 53 56 57 60 58 57 56 56 52 47 42 37 34 32 28 25 23 23 24 23 23 22 19 23 20 21 22 27 24 21 19 18 17 16 17 17 17
39 40 42 42 46 51 54 57 58 54 50 46 47 45 42 41 37 34 32 29 27 27 26 25 25 24 22 21 20 20 17 17 16 15 19 18 18 17 17 17 18 17 17
37 42 43 44 47 52 56 56 56 53 49 44 44 42 39 35 34 31 29 27 26 25 24 22 21 19 20 19 20 17 21 18 12 12 14 15 15 14 16 17 17 17 17
30 41 45 46 48 54 55 56 54 51 51 43 40 37 35 33 28 26 26 26 25 24 21 22 20 18 17 18 18 18 16 16 16 15 16 14 15 16 17 16 16 17 17
33 39 47 47 51 54 56 53 52 53 44 38 35 35 34 31 27 25 24 24 22 23 22 21 21 20 19 20 18 16 16 15 14 15 14 15 15 15 15 16 16 17 17

GFSSE_sfc_30mbdewp_048.txt.gz
Dewpoint
68 72 72 71 70 70 69 69 68 67 67 67 67 66 65 64 63 61 60 61 63 64 65 65 60 62 66 65 63 63 62 62 61 59 57 56 58 58 58 60 61 59 60
68 71 72 72 70 68 68 68 68 68 67 67 67 66 65 63 61 60 59 58 61 64 65 66 64 61 66 65 64 63 63 62 61 61 60 58 58 58 60 60 61 60 58
68 70 71 71 70 69 67 67 67 67 66 67 67 67 65 63 59 60 59 59 58 61 64 66 66 67 66 65 64 63 62 62 62 61 60 61 57 56 56 58 60 60 60
67 69 70 71 70 69 68 67 66 65 65 65 65 66 64 60 59 59 59 58 58 59 61 64 64 64 63 62 61 60 60 59 59 59 59 55 55 57 55 55 58 60 61
66 67 69 70 70 68 67 67 65 63 62 63 63 64 61 59 58 58 60 58 58 57 59 60 60 60 59 59 59 58 59 59 60 60 58 57 57 61 61 59 58 59 61
64 68 70 70 69 68 67 65 63 62 61 61 59 59 58 58 58 60 60 58 58 57 57 58 59 59 61 61 61 61 61 62 61 60 59 59 61 62 62 62 62 62 60
67 69 69 70 69 68 66 64 63 62 60 60 60 59 61 61 61 62 61 59 59 58 58 59 60 60 61 61 61 62 63 61 59 58 58 61 62 62 63 63 62 64 64
68 67 69 70 69 68 66 65 64 62 61 61 61 61 62 62 63 63 63 60 60 60 61 61 61 61 61 61 62 62 63 61 59 59 58 62 63 63 64 62 64 63 63
66 67 68 69 69 68 67 67 66 64 62 62 62 62 63 64 64 64 63 62 61 61 62 62 62 61 61 62 63 63 62 61 60 60 59 59 61 61 61 61 60 61 62
61 66 67 67 68 68 68 67 67 66 64 63 63 64 63 62 63 65 64 63 62 62 63 63 63 63 63 63 62 61 60 60 60 58 57 58 58 59 59 57 58 58 59
60 61 64 67 66 66 67 68 67 67 65 63 63 64 62 61 64 65 63 63 63 63 63 63 63 63 63 62 61 59 59 59 53 55 53 54 55 55 55 55 56 58 60
59 59 61 65 65 65 66 67 67 66 65 63 61 63 62 60 63 63 63 64 63 63 62 62 61 60 60 60 60 59 56 49 49 51 51 52 52 53 53 54 57 56 55
59 59 58 62 64 64 66 67 66 65 64 62 57 61 60 58 59 60 60 61 61 61 60 61 59 58 50 49 48 47 45 43 42 48 49 48 48 48 52 56 53 53 52
57 59 59 60 61 65 67 67 66 65 64 62 57 58 56 56 55 54 58 57 58 57 59 57 51 48 47 45 40 37 36 36 32 43 47 47 48 49 54 52 50 49 48
53 57 59 60 60 62 63 66 65 65 64 62 61 56 56 55 53 54 57 57 57 55 54 51 48 46 43 39 36 31 28 31 27 39 47 50 51 51 50 48 46 44 43
47 55 59 59 60 62 63 63 63 64 63 62 61 57 56 56 56 56 56 55 54 51 50 49 46 41 38 31 29 27 26 27 26 29 42 48 48 46 45 42 40 39 39
42 49 55 58 59 62 63 64 65 64 63 62 61 58 56 57 58 58 55 53 51 48 46 41 38 33 31 30 28 25 24 23 23 26 35 43 43 41 38 36 34 34 34
43 43 49 55 58 60 62 65 65 65 63 63 61 59 57 60 59 56 54 52 47 45 41 36 34 32 29 27 26 25 25 27 27 26 29 33 36 35 35 31 27 26 27
43 43 44 48 53 57 61 65 65 65 63 63 62 60 59 60 58 54 50 45 44 40 35 32 28 27 26 25 23 20 26 28 27 24 27 26 26 27 28 27 25 22 21
38 43 43 45 44 49 58 64 65 64 63 63 62 61 60 60 55 51 44 42 38 34 31 31 27 26 25 24 22 23 27 30 27 27 26 25 26 24 24 22 21 20 21
35 39 43 44 44 45 47 58 62 61 62 63 63 61 61 59 51 44 41 37 35 33 30 27 27 27 24 23 24 23 26 27 31 27 28 27 24 23 21 19 18 19 19
38 38 38 43 45 46 47 54 59 60 59 59 61 61 58 51 46 41 37 33 30 26 24 25 27 24 25 23 18 23 21 23 25 26 30 23 21 19 18 17 17 18 18
36 39 40 43 43 47 50 56 55 54 52 52 50 47 46 43 41 41 38 32 28 28 27 27 26 26 24 22 20 20 17 19 16 21 22 23 17 20 17 17 18 18 17
35 38 40 43 43 47 52 56 56 56 55 50 47 46 43 41 40 39 37 32 30 28 26 24 24 22 24 21 21 21 21 19 13 10 17 18 17 16 18 18 17 17 17
29 38 39 42 43 47 53 56 56 53 48 47 44 42 40 40 39 36 31 29 27 25 22 22 21 19 20 21 20 19 17 19 17 15 15 17 17 17 18 18 18 18 18
31 31 38 44 45 49 55 57 54 50 46 43 39 39 38 36 31 28 27 26 25 25 23 23 22 21 21 20 19 18 17 16 16 16 16 16 16 17 18 17 17 18 17

GFSSE_sfc_30mbdewp_051.txt.gz
Dewpoint
70 72 72 71 71 71 70 70 69 68 68 67 66 66 65 64 63 61 62 63 64 65 66 64 61 66 65 64 64 63 63 62 61 59 57 57 58 58 60 61 61 60 61
71 72 72 71 71 70 69 69 69 69 68 67 66 65 65 63 62 60 60 62 64 65 65 65 60 64 66 64 64 63 63 62 61 61 61 58 58 57 59 61 61 60 59
70 71 72 71 70 69 69 69 69 68 68 68 67 66 64 62 61 60 59 59 62 64 65 62 63 66 66 65 64 63 62 62 60 59 61 61 56 55 55 57 61 60 60
70 71 71 71 70 69 68 68 67 67 67 67 67 66 63 61 60 60 58 58 61 63 65 65 65 65 64 63 62 61 59 57 58 59 59 57 56 60 57 56 58 60 62
70 71 71 70 70 69 68 67 66 65 65 65 66 64 62 60 59 59 59 58 58 61 63 63 62 61 60 60 59 58 59 60 61 62 60 57 60 62 61 60 60 59 59
68 70 71 70 70 69 68 66 64 62 63 63 65 62 59 59 60 60 58 58 58 59 60 60 60 61 61 61 61 62 62 62 61 59 60 63 61 62 62 63 61 63 63
68 70 70 70 70 68 66 65 63 61 61 61 61 59 59 60 62 61 59 59 58 58 59 60 60 60 61 61 62 63 62 60 58 59 61 62 62 63 63 62 64 64 64
68 68 69 70 69 68 66 65 64 62 61 61 61 61 62 62 63 63 60 60 60 60 61 61 61 61 61 61 62 62 61 60 60 60 61 62 63 63 63 63 62 62 63
67 68 69 69 68 67 66 66 64 63 63 63 63 63 64 64 64 64 62 60 61 61 62 62 61 61 61 62 62 62 61 61 61 60 58 60 61 61 61 60 60 60 60
67 68 68 68 68 67 67 67 65 64 64 64 64 64 63 63 65 65 64 62 61 62 63 63 62 62 62 62 62 61 60 60 60 57 57 59 59 59 58 58 58 61 62
67 67 67 68 68 68 67 67 67 65 64 63 64 63 62 62 65 65 64 63 63 63 63 63 63 63 63 62 61 60 59 58 57 53 54 56 55 55 56 56 59 58 58
65 66 67 67 67 67 67 67 67 66 64 63 63 63 62 61 65 64 64 63 64 63 63 63 62 61 60 60 60 60 53 48 51 51 52 51 51 52 54 58 56 54 55
61 64 66 66 66 66 66 67 67 66 64 62 61 62 62 60 64 63 63 63 63 62 62 63 61 59 51 58 56 41 39 39 47 48 51 49 50 51 57 55 53 52 52
59 59 66 66 65 65 66 66 66 65 64 62 59 61 60 59 61 61 60 61 60 61 59 59 58 49 47 43 38 35 33 31 39 44 47 48 47 52 54 52 50 48 47
59 59 61 64 64 65 66 66 65 65 64 63 58 59 58 57 58 57 57 57 58 58 58 54 48 46 40 34 31 28 29 29 38 44 51 53 53 52 50 47 44 43 43
56 59 59 62 63 65 66 66 66 65 64 62 59 58 57 56 53 53 56 57 55 54 52 49 47 41 33 30 29 26 25 25 31 43 48 50 49 47 45 43 40 39 38
43 57 59 59 62 64 64 65 65 65 64 62 61 57 56 55 54 56 55 54 51 49 46 39 36 32 30 28 26 25 24 23 26 36 44 45 44 42 37 35 33 33 33
42 49 59 59 60 63 63 64 65 64 64 62 61 57 56 56 58 56 54 52 50 47 41 37 33 30 28 27 25 24 25 27 26 30 39 38 37 36 35 30 28 28 27
40 42 52 58 59 62 63 64 64 65 63 63 61 58 57 59 57 55 52 48 45 39 35 31 28 28 25 24 22 21 27 29 26 28 29 28 30 31 29 29 28 26 25
36 40 43 51 58 61 63 64 64 64 64 63 61 59 59 59 55 52 47 44 39 34 33 29 25 26 25 22 21 24 27 30 27 26 26 26 27 25 24 22 19 20 24
35 37 41 44 52 57 63 64 63 63 64 63 62 61 60 56 53 49 46 40 35 32 30 28 27 25 21 23 23 22 27 28 28 27 28 26 25 24 21 18 18 18 19
34 35 38 44 45 51 59 63 63 63 62 62 63 61 60 54 49 46 42 37 34 31 27 26 25 25 24 22 17 25 20 22 25 28 30 27 22 21 19 17 17 17 18
34 36 38 40 44 44 48 58 57 56 55 58 57 55 53 50 46 43 39 35 29 28 26 26 26 26 23 22 21 20 17 16 17 21 25 24 18 20 17 19 19 18 18
28 34 37 40 43 45 50 56 58 59 59 57 53 48 46 45 45 42 39 33 32 30 27 26 26 25 25 20 21 21 21 18 8 5 16 20 18 17 18 18 19 18 17
28 29 35 39 41 45 49 55 57 58 54 50 47 45 45 43 42 41 37 34 33 32 27 23 21 22 23 22 22 20 18 19 18 15 12 16 18 17 18 19 18 18 19
30 30 34 38 41 44 49 56 57 54 51 48 44 44 43 43 41 35 33 34 32 30 28 24 21 20 20 20 19 18 17 15 17 17 16 17 16 17 18 18 18 18 18

GFSSE_sfc_30mbdewp_054.txt.gz
Dewpoint
69 72 73 72 71 71 71 71 71 70 70 68 67 66 65 64 63 64 64 64 65 65 64 62 66 65 64 64 63 63 62 60 58 58 57 60 59 59 61 61 60 61 61
71 72 72 72 71 71 70 70 69 69 68 67 66 65 65 64 62 63 63 65 65 64 62 61 64 66 65 64 64 63 62 60 59 60 60 56 58 57 58 61 60 59 60
71 71 72 72 72 71 70 69 69 68 67 66 65 65 63 63 62 60 61 62 62 62 62 60 63 66 66 65 64 63 61 57 58 60 61 59 56 56 55 59 60 61 60
70 71 71 71 71 70 69 69 68 68 68 67 66 65 63 62 61 60 58 61 62 64 63 63 66 66 65 64 63 61 56 57 59 61 57 58 58 60 58 56 59 61 62
70 71 71 71 70 69 69 69 68 68 68 68 67 64 62 62 60 59 59 59 63 65 65 65 64 63 62 61 60 57 59 61 62 60 58 57 61 62 61 61 60 59 59
70 70 71 71 70 69 69 67 67 67 66 66 66 63 62 60 60 58 58 58 62 63 63 62 61 61 61 61 61 60 61 61 59 58 59 62 61 63 62 59 60 64 64
70 70 71 70 70 69 68 66 65 65 64 66 64 62 59 60 60 59 59 58 59 61 61 61 62 62 61 62 62 62 61 60 59 59 61 61 62 64 63 64 64 63 64
69 70 70 70 70 69 67 65 64 64 63 64 62 59 60 62 62 59 60 58 59 60 61 61 61 61 61 62 62 61 60 61 60 61 62 62 62 62 62 62 62 62 62
69 69 69 69 69 68 66 66 64 64 63 62 63 63 63 64 63 61 60 60 61 61 61 61 61 61 61 62 62 61 61 61 60 60 59 60 61 61 60 60 60 61 63
67 68 69 68 68 67 66 66 64 64 64 63 64 64 65 65 65 64 62 62 61 62 62 62 61 61 62 62 62 61 60 59 59 57 58 59 59 58 59 58 61 61 61
67 68 68 67 67 66 66 66 65 64 65 65 64 64 63 64 65 65 63 63 63 63 63 63 63 63 63 62 62 61 56 56 55 53 55 57 56 56 57 59 59 57 57
65 67 67 67 67 67 66 66 65 64 64 64 64 63 62 62 65 64 63 63 64 64 64 63 63 63 62 60 60 56 47 52 51 51 52 52 50 53 59 57 55 55 55
66 66 67 66 67 66 66 67 66 65 63 62 63 62 62 61 65 64 63 63 64 63 63 64 62 60 54 58 50 40 41 48 47 49 51 51 51 54 56 54 53 52 51
65 65 66 66 66 66 66 66 66 65 63 62 61 62 61 60 64 62 63 62 62 61 60 60 59 52 46 46 37 34 32 39 43 44 47 47 47 57 53 51 48 47 45
62 65 66 66 65 65 66 65 65 65 64 62 59 60 61 59 62 62 61 61 60 60 59 58 55 46 38 32 30 28 30 31 42 46 53 55 55 53 51 47 45 44 43
59 61 65 66 65 65 66 65 65 65 64 63 60 58 59 59 61 60 59 58 58 58 57 55 48 41 32 29 26 25 26 29 41 47 51 52 51 49 46 43 40 38 38
52 59 62 65 65 64 65 65 65 65 64 63 61 58 58 57 58 58 57 56 56 54 52 46 37 32 30 27 26 24 23 24 32 44 47 46 46 43 38 36 34 34 33
42 47 60 63 64 64 65 66 66 65 64 63 61 58 57 56 55 55 55 55 51 49 43 37 33 30 28 26 24 24 25 27 27 42 42 40 37 38 35 31 30 29 31
37 41 54 60 63 64 65 65 65 65 64 63 61 58 57 56 56 55 55 53 49 44 39 35 31 29 26 24 23 21 27 29 27 34 37 35 34 33 29 30 29 27 26
35 37 42 58 61 63 64 64 65 64 64 63 61 58 56 57 56 55 53 49 44 39 34 30 28 26 25 22 21 25 28 31 27 28 29 27 30 27 26 22 19 21 25
34 34 38 44 59 62 63 63 64 63 63 63 62 59 58 58 56 54 50 44 39 36 33 28 26 23 20 23 22 24 28 29 27 27 28 26 26 24 21 19 18 18 19
33 33 35 40 48 60 63 63 63 63 64 63 62 61 59 57 54 52 47 41 36 34 30 27 26 25 22 22 18 24 21 22 25 27 30 28 25 23 19 18 18 18 18
31 34 35 36 43 55 61 62 60 59 58 60 61 61 60 56 53 51 45 40 35 32 30 27 27 25 22 21 22 22 19 16 20 19 25 23 20 20 18 19 18 18 18
29 31 34 37 40 46 57 61 60 59 59 60 60 57 55 52 52 49 44 41 37 34 29 28 28 29 25 20 21 21 21 19 6 5 16 20 19 17 17 19 19 18 19
27 28 30 33 38 44 51 60 60 59 59 55 54 54 51 49 50 46 43 39 37 35 31 29 29 28 25 23 22 20 18 19 18 12 7 14 19 18 18 19 18 19 19
30 30 30 33 38 41 47 55 59 59 55 53 51 50 47 47 48 45 39 39 38 34 33 30 26 24 22 22 21 19 17 15 17 16 16 16 16 17 18 19 18 18 19

GFSSE_sfc_30mbdewp_057.txt.gz
Dewpoint
68 71 72 72 72 71 71 71 71 70 70 69 68 67 66 65 65 66 65 63 62 62 63 65 65 64 64 63 63 62 60 58 59 58 60 61 59 59 60 61 61 61 59
69 71 73 72 72 71 71 71 71 71 70 68 67 66 65 64 64 65 65 65 65 64 62 64 66 65 65 64 63 62 59 59 60 60 59 57 59 57 59 60 60 59 60
70 71 72 72 72 72 71 71 71 70 69 67 66 65 65 63 63 63 64 64 62 59 63 62 66 66 65 65 64 62 57 59 60 61 62 56 56 56 55 61 60 61 59
70 71 72 72 72 71 70 69 69 68 67 66 66 64 64 63 62 60 61 61 61 60 61 62 64 66 66 64 63 57 58 60 62 59 57 57 59 59 57 57 59 61 62
70 71 71 72 71 70 70 69 68 68 68 67 66 64 64 62 61 59 60 61 64 64 64 65 66 65 64 62 59 57 61 62 61 60 56 58 61 61 60 61 61 60 59
70 71 71 71 71 70 70 69 69 69 69 68 66 64 63 61 60 59 59 62 63 65 64 64 63 62 61 61 59 60 62 61 59 59 57 61 62 62 60 61 65 65 64
70 70 71 70 70 69 69 68 68 67 67 68 65 64 61 60 59 59 59 61 63 63 63 63 63 62 62 62 62 61 61 60 59 60 61 61 63 64 63 63 63 63 63
69 70 70 70 70 69 67 68 67 66 66 67 64 63 60 61 59 59 59 59 61 62 62 62 62 62 62 62 62 61 62 60 60 61 61 62 62 62 62 62 62 62 64
69 69 70 70 70 69 68 66 66 66 66 66 64 62 63 63 61 60 59 59 60 61 62 61 61 61 61 62 62 61 61 61 60 59 60 61 62 60 61 60 61 63 61
69 69 69 69 69 68 67 66 65 65 64 65 64 63 64 64 63 61 62 62 61 61 62 62 61 61 62 62 62 61 60 59 59 58 59 60 59 59 58 61 61 60 59
67 68 68 68 67 66 66 66 65 65 64 64 65 64 64 64 65 63 62 62 63 62 62 62 62 62 63 62 61 59 55 58 55 54 56 57 57 57 59 59 58 58 57
66 67 67 67 66 66 65 65 64 64 65 64 64 64 64 64 65 64 62 63 63 63 64 63 63 64 62 60 58 48 54 52 52 51 52 52 52 57 59 57 56 55 54
65 65 66 66 66 65 65 65 64 64 63 63 63 63 62 62 64 64 63 63 63 64 63 64 63 60 57 58 44 42 49 48 48 49 52 53 51 58 55 54 53 51 50
65 66 66 66 66 65 65 65 65 63 63 62 62 62 61 60 63 63 62 62 62 62 61 62 60 55 50 50 37 35 40 44 44 44 46 45 51 56 54 51 48 47 46
65 65 66 66 66 65 65 65 65 64 63 62 61 62 61 60 62 63 62 62 61 60 59 59 57 47 39 34 31 31 30 40 41 48 54 57 57 54 51 48 46 45 42
64 65 66 66 65 65 65 65 65 65 64 62 60 60 61 60 61 62 61 61 60 59 59 58 53 41 31 28 26 27 28 39 44 49 52 53 53 49 47 43 40 39 38
59 63 65 65 65 65 65 65 65 65 64 63 61 58 60 60 60 61 60 59 58 58 57 53 43 33 30 27 25 23 24 31 42 47 48 48 47 45 40 38 36 35 36
43 57 62 66 65 65 65 65 65 64 64 63 62 59 58 58 59 59 59 58 56 55 52 44 36 31 29 27 25 25 25 26 33 44 44 42 38 38 36 33 32 32 31
39 41 58 64 65 65 65 65 65 65 64 64 63 60 58 57 57 58 57 57 53 50 45 37 32 31 28 25 23 23 27 28 31 41 39 36 35 34 30 31 30 28 27
36 38 42 60 63 65 64 65 65 65 65 64 62 60 58 57 56 56 55 54 50 45 40 34 31 27 26 22 23 24 28 30 28 35 36 32 34 30 27 25 20 22 27
35 35 38 48 60 63 64 64 64 63 64 64 63 61 58 57 56 55 54 51 47 43 38 33 28 26 22 23 23 25 28 29 27 28 28 27 28 25 22 19 19 18 19
34 34 35 41 56 61 63 64 63 64 64 64 63 61 58 58 57 55 53 49 45 40 34 29 29 24 22 23 20 23 21 24 26 27 30 27 26 24 19 18 18 18 19
32 33 34 35 43 58 62 63 62 61 60 61 62 62 59 58 57 55 52 48 43 40 35 32 29 27 22 20 23 23 21 19 22 19 25 24 22 20 19 18 19 18 18
29 30 32 34 37 50 60 62 61 60 59 61 62 62 60 57 56 55 52 47 43 43 39 36 32 29 25 20 21 21 20 21 12 8 18 20 19 18 17 19 18 19 19
28 28 29 31 35 41 51 60 61 59 59 59 59 60 56 54 56 53 50 44 42 42 41 37 36 32 28 25 23 19 19 19 17 10 6 15 19 19 19 19 19 19 19
29 29 29 30 32 36 45 57 61 60 58 56 56 56 54 52 52 51 48 47 45 43 39 39 37 33 27 26 23 21 17 15 15 15 12 15 16 16 19 19 19 19 19

GFSSE_sfc_30mbdewp_060.txt.gz
Dewpoint
66 70 73 72 72 71 72 71 71 71 70 69 68 67 67 66 65 64 64 63 64 65 65 65 64 64 64 63 62 60 59 59 59 61 62 60 58 60 60 62 62 61 58
68 72 72 72 72 72 72 72 71 71 70 69 67 67 66 66 66 66 65 66 65 64 63 66 65 65 64 63 62 60 58 60 61 60 58 58 58 57 60 60 60 59 60
69 72 73 72 72 72 72 72 72 71 69 69 67 66 65 65 65 65 65 64 62 61 62 65 66 65 65 64 62 57 60 61 61 61 58 57 58 56 59 60 61 61 59
70 72 72 73 72 72 72 71 71 70 69 68 67 65 64 63 62 63 62 62 59 61 62 63 66 67 65 64 59 59 60 62 60 59 57 58 60 58 57 58 60 61 62
70 71 72 72 72 72 71 70 70 68 68 67 66 65 64 63 61 61 61 60 62 60 62 63 66 66 64 61 57 60 62 62 61 57 57 60 61 60 60 61 62 61 59
70 71 72 72 72 71 70 69 69 68 68 67 66 64 63 63 59 60 61 62 65 66 66 66 64 63 62 60 59 62 62 61 59 58 57 61 62 63 63 64 64 64 64
70 71 72 72 71 71 70 69 70 69 69 68 65 64 63 61 60 60 61 64 62 63 64 63 63 62 62 62 60 62 61 61 59 59 61 61 63 63 63 64 63 63 64
68 70 71 71 70 69 69 69 69 67 69 68 65 64 62 61 59 59 60 63 63 63 63 63 63 62 62 62 62 61 62 61 60 61 61 62 63 62 62 61 62 63 62
68 70 70 70 70 69 66 68 67 67 66 68 66 64 62 62 60 59 59 60 63 63 63 62 61 61 61 61 61 62 61 61 60 60 60 61 61 61 60 63 62 61 60
68 69 69 69 69 68 67 67 67 66 66 66 65 64 64 63 61 61 61 61 61 62 62 62 61 61 62 62 62 61 60 60 58 58 59 60 60 59 60 61 60 59 58
67 68 69 68 68 67 66 66 66 66 65 65 64 64 64 64 63 62 62 63 63 62 62 62 61 62 63 62 61 56 57 57 55 55 56 58 58 58 60 58 58 57 56
65 67 67 68 67 66 66 65 64 65 64 64 64 64 64 64 64 63 61 63 63 63 63 63 63 64 61 60 53 54 54 53 52 51 51 52 55 60 58 57 56 55 53
64 65 66 67 66 65 65 64 63 64 63 63 64 63 63 63 64 64 62 62 63 63 64 64 63 60 59 57 44 51 49 48 49 49 53 53 54 58 55 54 52 50 49
64 64 65 66 66 65 65 64 63 63 63 63 63 63 62 62 63 63 62 61 62 62 62 62 60 53 56 46 39 43 44 45 43 44 45 43 56 56 54 50 48 48 47
64 64 65 66 65 65 64 65 64 63 63 62 62 62 62 60 61 63 62 61 61 61 60 60 57 46 43 36 33 32 37 40 41 49 55 59 57 54 50 48 47 44 43
65 64 65 65 66 65 64 65 64 63 62 62 61 62 62 61 60 62 62 61 60 60 59 58 54 41 33 29 28 29 32 40 46 51 53 55 54 50 48 44 42 41 40
64 65 65 66 66 65 64 65 64 64 63 62 61 61 61 61 60 62 62 61 60 59 58 56 47 34 30 27 25 24 29 39 45 49 49 49 48 46 42 40 39 37 38
52 63 65 66 66 65 65 65 65 64 64 63 62 60 60 61 60 60 61 61 60 58 57 52 40 33 30 28 25 25 25 28 41 46 46 42 40 38 38 36 34 33 33
37 44 61 65 65 65 65 65 65 64 64 64 63 61 58 59 59 60 59 59 58 56 53 47 36 33 30 26 24 25 28 27 36 42 42 37 37 34 31 34 32 30 29
36 37 42 61 65 65 65 65 65 65 64 64 63 62 59 58 58 59 58 58 56 52 48 40 35 29 29 25 22 24 29 29 30 39 37 34 35 30 29 28 19 22 31
36 36 37 47 62 65 64 64 64 63 63 64 64 63 60 58 57 57 57 56 54 51 47 38 31 29 25 23 24 25 28 30 27 30 34 29 30 27 23 19 19 18 19
33 34 35 38 51 63 64 64 64 64 63 64 64 63 61 59 58 56 56 55 52 48 42 35 32 27 23 24 21 23 21 24 28 28 29 27 27 24 19 18 18 18 19
31 32 34 35 40 57 63 64 62 63 62 62 62 63 61 59 58 57 55 54 50 47 43 37 33 31 27 23 24 25 23 23 23 21 27 27 24 22 19 18 18 18 18
29 30 33 34 36 45 61 62 62 61 61 61 62 63 62 59 58 57 56 54 50 47 44 40 37 37 33 28 25 24 21 23 19 14 19 21 20 19 18 19 18 18 20
29 28 29 31 34 38 48 61 62 61 61 60 61 61 61 58 58 57 55 52 48 46 46 43 41 38 38 32 28 26 22 19 16 11 9 18 20 20 19 19 19 18 19
32 32 30 29 30 35 41 52 60 61 60 58 58 60 58 56 56 55 54 51 48 47 45 45 42 40 35 31 29 25 22 18 16 13 11 15 16 16 19 20 19 19 19

GFSSE_sfc_30mbdewp_063.txt.gz
Dewpoint
65 68 73 72 72 72 72 72 71 71 70 69 68 68 67 67 66 66 66 67 67 66 65 65 64 64 63 62 60 60 60 60 61 62 61 60 60 60 62 62 62 57 60
66 71 73 72 72 72 72 72 72 71 70 69 68 68 67 67 66 64 64 64 64 65 66 65 64 64 63 63 60 59 61 61 59 59 59 58 59 60 60 60 60 59 60
67 70 71 73 73 73 72 72 71 71 70 69 68 66 67 66 66 66 66 65 64 64 64 66 64 64 64 62 59 61 61 60 61 59 60 58 55 58 60 61 61 59 58
69 70 71 73 73 73 73 72 71 70 69 69 68 66 66 65 65 66 64 62 61 61 62 66 66 66 64 59 59 60 61 61 60 60 60 60 59 58 58 59 60 62 62
70 70 71 73 73 73 72 72 71 69 69 68 67 66 64 63 63 62 61 60 61 63 64 65 67 66 62 58 60 62 62 62 60 58 60 62 62 60 62 63 63 60 60
70 70 72 73 73 72 71 71 70 68 67 67 66 66 64 62 60 61 61 63 65 66 67 67 66 63 60 59 62 63 62 61 59 58 61 63 63 64 64 64 64 65 65
70 70 71 72 72 71 70 69 68 66 67 68 65 64 63 62 60 61 62 64 66 66 65 64 63 63 62 60 62 62 62 61 59 60 62 63 63 62 63 63 64 64 63
69 70 70 72 71 70 69 68 67 67 68 68 65 64 63 61 60 60 63 62 63 64 64 64 63 63 62 62 62 62 62 60 61 61 62 63 62 62 61 62 63 61 60
68 70 70 70 70 70 68 67 68 68 69 68 66 65 63 62 60 60 62 64 63 63 64 63 63 61 62 62 62 62 62 61 61 60 61 61 62 60 62 63 62 61 59
68 69 69 69 68 68 67 68 67 65 67 68 66 64 63 61 61 60 61 63 64 63 63 62 61 62 62 62 62 61 61 60 59 60 60 59 60 60 62 61 59 57 57
67 69 69 68 68 68 66 67 67 66 65 65 65 64 63 61 61 60 60 62 63 63 62 62 62 63 63 62 60 59 59 58 57 57 57 59 58 61 59 59 57 57 55
65 66 67 68 68 67 66 66 66 66 64 63 63 63 63 62 61 61 61 63 64 63 63 62 63 63 61 59 53 57 56 55 53 53 52 53 59 59 58 57 56 54 52
64 66 66 66 68 67 66 65 64 65 64 64 63 63 63 63 63 61 61 62 63 63 62 63 63 61 60 54 49 53 53 51 50 50 52 53 60 58 56 54 52 50 49
64 65 65 66 67 66 65 64 63 63 63 63 63 63 63 63 64 64 61 61 62 63 63 63 61 57 57 49 46 49 48 47 45 45 45 45 59 57 53 50 49 48 48
63 64 64 66 66 66 65 64 63 62 62 62 63 63 63 62 63 64 63 61 61 62 61 62 59 51 53 42 38 42 43 42 42 47 53 59 58 54 51 50 47 45 45
63 63 65 65 66 66 64 64 63 62 62 62 62 63 63 62 62 63 63 62 61 61 60 60 56 47 45 37 34 33 38 40 45 52 56 56 55 51 49 46 44 42 42
64 65 64 65 65 66 65 64 64 63 62 61 62 62 62 62 61 61 62 63 62 60 59 59 52 40 35 31 30 30 35 40 46 50 52 51 50 48 45 43 41 40 39
53 64 65 65 65 65 65 65 65 64 63 61 61 61 62 62 61 61 61 62 62 61 59 56 49 39 35 32 29 28 29 37 43 47 48 45 44 41 41 38 38 35 35
37 46 62 66 66 65 65 65 65 64 64 64 63 61 60 61 61 61 61 61 62 61 59 55 45 41 36 33 30 29 29 29 39 44 44 41 40 37 36 36 34 32 31
37 38 45 62 65 66 65 64 65 65 64 64 64 62 61 60 60 60 60 60 61 59 57 52 46 36 36 33 23 27 30 31 34 41 41 36 37 34 34 35 28 30 33
36 37 38 44 60 65 65 63 63 63 64 64 64 64 62 60 59 59 59 59 59 58 55 52 43 36 31 29 28 28 30 32 30 36 39 35 35 31 28 25 22 21 22
34 35 37 39 46 62 64 63 63 63 64 64 64 64 63 61 60 59 58 58 57 57 54 48 41 35 31 29 29 29 27 27 30 30 33 31 31 28 25 22 20 21 22
32 33 34 36 39 53 63 64 63 64 63 63 63 63 63 62 60 59 58 57 56 56 53 47 42 40 34 28 28 31 27 29 27 26 29 30 28 27 24 22 21 20 20
30 31 32 35 36 43 59 63 62 60 60 61 62 63 62 62 61 60 58 58 56 55 53 48 43 42 39 34 28 27 26 28 25 21 22 26 25 25 23 21 20 20 22
32 31 31 31 34 37 48 60 61 60 61 61 62 62 62 61 61 60 59 57 56 54 53 48 45 42 42 39 34 30 26 23 19 18 18 20 22 22 21 20 20 19 21
36 36 35 32 31 33 38 50 61 61 61 61 61 61 62 61 60 59 59 58 56 53 51 49 48 44 43 41 37 31 29 24 22 17 13 16 21 21 21 21 20 20 20

GFSSE_sfc_30mbdewp_069.txt.gz
Dewpoint
62 69 73 73 73 72 72 72 72 72 71 71 71 70 70 70 70 69 68 67 67 66 65 63 64 64 62 62 62 63 62 62 62 62 62 62 62 61 61 62 61 62 64
63 69 73 73 73 73 72 72 72 72 71 71 70 70 69 68 68 68 68 68 67 66 65 64 64 63 61 60 61 60 59 59 59 59 60 61 61 60 59 60 60 59 61
64 68 70 73 73 73 72 72 72 71 71 70 69 67 67 66 66 65 65 65 65 66 66 64 64 64 61 61 61 60 60 60 60 58 59 51 57 60 61 62 60 60 61
64 67 68 73 73 73 72 72 72 71 70 70 69 68 68 67 67 67 65 64 64 64 67 66 65 62 61 61 61 61 60 61 61 61 56 53 57 60 60 60 61 61 61
64 65 69 73 73 73 73 72 72 71 70 69 68 68 66 66 67 65 62 61 62 64 66 67 65 61 61 61 62 61 60 61 60 60 58 63 61 64 64 63 62 64 65
63 64 71 73 73 73 73 72 71 71 69 68 67 65 64 64 63 61 61 63 66 67 67 67 63 61 62 62 62 62 61 60 60 58 62 64 64 65 65 65 64 64 65
62 69 70 73 73 73 72 71 71 69 67 67 66 63 62 62 62 62 65 66 66 67 67 65 62 61 63 63 62 62 62 60 59 60 63 62 62 62 64 64 63 62 62
62 68 69 72 73 72 72 71 69 67 66 66 65 63 62 61 62 63 65 66 67 66 66 65 64 62 62 63 62 62 60 59 56 56 62 61 62 62 63 62 61 60 60
63 68 68 68 70 71 70 69 67 65 66 66 65 65 62 62 62 63 63 66 66 66 65 64 63 62 62 63 63 62 60 60 59 56 60 59 63 63 63 61 60 59 58
64 64 66 66 66 67 67 67 66 66 67 66 66 65 63 62 62 63 61 62 65 65 64 64 62 62 62 62 63 62 61 60 57 56 58 59 62 62 61 59 58 58 57
64 62 64 66 65 64 63 65 66 66 67 66 66 64 62 57 58 60 61 62 64 64 63 62 62 63 63 63 62 61 61 57 55 55 58 60 62 61 60 58 57 56 55
65 62 62 61 61 60 60 64 63 64 65 65 64 62 60 54 54 52 59 63 64 64 63 62 64 64 62 56 58 59 58 55 55 54 57 59 61 60 59 57 55 54 52
64 65 63 61 60 59 59 60 60 60 60 59 61 62 58 54 55 54 57 60 61 63 60 61 63 59 57 54 54 54 54 54 53 52 55 56 61 59 57 55 53 52 51
63 64 65 63 61 60 59 59 58 58 58 57 58 59 57 55 56 52 54 55 57 57 55 57 58 56 56 54 52 52 52 52 50 49 50 56 60 58 55 53 51 50 50
62 64 65 65 63 61 60 60 57 56 57 56 57 57 57 56 56 55 52 53 55 54 54 56 56 55 56 54 51 51 50 50 47 45 47 51 60 56 53 52 50 49 49
61 61 64 65 65 64 61 62 60 58 57 56 55 57 57 56 56 56 57 55 54 54 54 55 55 55 54 54 50 49 48 46 45 44 44 55 58 55 52 51 48 47 47
61 62 63 64 65 65 64 63 62 60 58 58 56 56 57 56 56 56 58 60 59 55 54 54 55 54 53 52 48 46 45 44 43 44 45 54 54 53 52 48 46 45 45
57 60 61 62 64 65 65 64 63 62 61 59 58 57 57 56 57 58 58 58 60 59 54 54 54 55 52 50 48 45 42 42 42 43 44 45 52 50 48 47 44 43 42
43 49 57 61 63 64 65 66 64 63 62 61 60 58 58 57 57 58 58 58 57 59 58 55 55 54 52 50 48 44 41 41 42 41 41 43 44 44 44 45 44 40 38
39 40 41 48 57 62 64 65 66 66 64 63 61 60 59 58 58 58 58 58 57 58 60 58 55 54 52 51 47 42 41 40 39 40 40 40 41 42 41 41 39 36 35
35 36 38 39 41 52 57 64 65 64 65 65 63 62 61 60 59 59 59 58 58 58 59 59 57 54 53 52 48 41 41 39 37 37 39 39 39 41 39 37 37 33 35
34 36 37 37 38 40 50 61 63 63 63 64 65 65 64 62 62 60 60 60 59 58 58 59 58 56 53 51 46 44 43 40 37 36 36 38 37 38 36 35 34 29 28
31 33 35 37 38 38 40 48 61 61 62 64 64 64 63 64 64 63 61 61 60 59 58 59 59 57 53 50 47 48 46 45 38 36 34 36 36 36 35 33 31 28 27
34 35 35 36 37 38 40 41 46 56 58 60 61 62 62 63 63 64 63 62 62 61 60 58 59 58 54 51 46 47 45 39 40 35 34 33 35 34 34 32 29 26 26
41 40 38 35 35 35 37 39 43 49 54 56 56 58 60 63 63 63 63 63 62 62 61 60 59 59 54 52 47 44 42 39 36 35 33 31 32 32 32 31 28 26 25
42 41 40 37 34 34 36 37 40 46 51 55 55 56 57 59 62 62 62 62 62 62 61 61 60 59 56 55 50 48 43 44 39 35 34 32 31 30 30 29 27 25 24

GFSSE_sfc_30mbdewp_072.txt.gz
Dewpoint
69 73 73 74 73 73 73 73 73 72 72 71 71 71 70 70 69 69 68 68 67 65 63 64 64 63 63 63 63 62 61 61 61 62 63 63 61 60 61 62 63 64 65
70 72 74 74 73 73 73 73 73 72 71 71 71 70 70 69 69 68 68 68 66 65 65 64 63 62 61 61 60 60 59 59 58 61 61 61 61 59 60 60 60 60 61
69 72 73 73 73 73 73 73 72 72 71 71 69 68 68 67 66 65 65 65 67 66 64 64 64 62 61 61 60 60 60 59 59 59 61 58 61 61 62 62 62 63 63
68 70 72 74 73 73 73 72 71 71 70 70 69 69 68 67 67 67 66 65 64 66 66 65 63 62 61 61 61 60 61 61 61 61 60 58 61 62 60 61 61 61 62
67 67 72 73 73 73 73 72 71 71 70 70 69 68 67 68 67 65 62 62 64 66 67 66 62 62 61 62 60 60 61 60 61 61 64 65 65 65 64 66 66 65 65
65 70 73 73 73 73 72 72 71 70 69 69 67 66 65 65 64 62 61 66 65 67 67 65 62 62 63 63 62 61 61 60 60 64 64 64 65 65 65 64 63 64 64
68 71 72 73 73 73 73 72 71 70 69 67 64 61 62 63 62 65 65 66 67 68 67 63 62 63 64 63 63 62 60 60 60 62 62 62 62 64 64 62 61 61 62
69 69 71 73 73 73 72 71 70 67 66 65 62 61 61 62 63 64 66 67 67 67 65 63 63 63 64 63 63 61 59 59 60 61 61 62 63 63 62 61 60 60 60
67 69 70 71 72 72 71 70 68 66 66 65 64 64 63 63 63 64 66 67 67 66 66 65 63 62 63 63 63 61 59 59 60 61 60 63 64 63 61 60 59 58 58
68 68 68 68 70 70 69 68 66 66 66 65 64 64 63 62 62 64 64 66 67 66 65 64 63 63 63 63 63 61 59 59 59 60 60 63 63 62 60 59 58 58 57
66 66 66 66 67 67 66 67 66 66 66 66 65 63 62 61 61 62 60 64 65 65 64 63 63 63 63 63 62 60 60 59 58 59 60 64 62 61 59 58 57 56 55
64 64 66 66 64 64 64 65 66 67 67 66 64 62 61 59 57 59 62 63 63 64 63 63 64 64 62 60 60 60 59 59 56 58 60 63 61 60 59 57 55 54 53
64 65 64 64 63 62 63 63 63 65 66 66 64 62 61 57 56 59 62 63 63 63 63 63 65 63 61 58 58 57 57 57 54 55 57 62 61 60 58 55 54 52 52
64 64 65 64 60 59 59 61 61 62 61 61 63 62 61 56 55 56 59 60 62 62 61 61 62 61 59 57 56 55 55 53 52 53 55 62 61 59 56 53 52 52 52
63 64 65 65 63 59 60 59 58 59 59 59 59 61 59 56 56 53 56 57 58 59 58 58 58 58 57 56 53 52 52 51 48 49 52 61 60 58 55 53 51 51 51
62 64 65 65 65 63 60 60 59 57 57 57 58 58 58 57 57 56 54 55 56 57 55 57 57 57 56 56 51 51 50 48 46 45 49 58 60 57 54 52 50 50 50
61 63 65 65 65 64 64 62 62 59 58 57 57 58 58 57 57 57 58 57 56 55 55 55 56 56 55 55 52 49 48 46 45 44 54 59 58 56 54 52 49 48 48
61 61 63 65 65 65 65 65 63 62 60 59 58 57 58 57 57 57 58 60 59 59 55 55 55 55 54 53 50 47 45 44 43 44 46 56 54 52 53 51 48 46 46
50 59 61 63 64 64 65 65 66 63 62 61 60 58 58 57 57 58 59 59 60 59 59 55 55 56 54 51 49 48 43 43 42 44 44 46 53 51 48 49 48 46 44
41 42 46 59 63 64 65 65 66 66 66 63 62 60 59 58 58 58 59 59 58 59 59 57 55 56 54 52 48 46 42 42 42 42 42 43 44 47 46 46 45 41 40
36 39 40 41 47 60 64 65 64 64 65 65 65 62 61 59 58 58 59 59 58 58 60 59 58 55 54 53 49 44 43 41 39 39 41 41 42 43 42 41 39 36 38
34 36 38 38 41 43 52 64 64 64 64 64 65 65 65 63 60 59 59 59 59 58 59 59 58 57 54 54 49 43 40 41 39 38 38 40 40 42 40 40 38 35 35
32 34 37 38 38 40 41 50 64 63 63 63 63 64 64 64 64 63 60 60 60 59 59 59 59 58 55 53 49 45 46 45 39 39 36 38 39 39 39 37 36 32 32
39 38 37 37 37 38 41 41 53 62 61 63 63 64 63 63 64 64 64 62 61 61 60 60 60 59 57 53 51 48 49 44 40 36 36 35 37 37 37 35 33 30 28
42 42 40 37 36 36 36 38 40 43 50 59 61 62 62 63 63 63 63 63 63 62 62 61 60 59 59 55 51 49 48 45 40 38 34 33 35 36 36 34 31 27 27
44 43 41 38 36 35 35 37 38 40 43 50 56 56 56 58 62 63 63 62 62 62 62 62 61 60 59 57 53 50 48 47 45 40 39 34 33 33 33 32 29 28 27

GFSSE_sfc_30mbdewp_075.txt.gz
Dewpoint
71 73 74 74 74 74 73 73 73 72 71 71 71 70 70 69 68 68 68 67 66 64 62 64 63 62 63 63 62 61 60 60 61 63 63 62 61 62 63 64 64 65 65
72 73 74 74 74 74 73 73 73 72 72 71 71 70 70 69 69 68 68 66 65 65 64 63 62 62 61 60 60 59 58 59 61 61 61 62 62 61 59 60 61 61 61
72 73 73 74 74 73 73 73 73 72 72 71 70 69 68 67 67 66 67 67 66 64 64 63 63 61 60 60 59 59 59 59 60 61 61 61 62 62 62 63 63 63 63
72 72 73 74 74 73 73 73 72 72 71 70 69 68 67 67 67 67 65 65 67 66 65 63 62 61 61 60 59 61 61 62 62 62 60 60 62 61 63 63 64 64 63
70 72 73 74 73 73 72 72 72 71 70 70 69 69 68 68 66 63 63 64 66 67 66 63 62 62 62 60 60 61 61 62 63 65 65 65 65 65 65 65 65 65 66
69 72 73 73 73 73 72 72 71 69 69 69 67 67 67 65 63 62 65 65 67 68 66 63 63 63 63 62 61 61 61 62 64 63 63 65 65 65 64 63 62 64 65
70 72 73 73 73 73 72 72 70 70 67 65 63 62 63 63 64 64 65 67 68 68 65 64 63 64 63 63 62 61 61 60 62 61 61 62 64 63 61 61 60 62 62
70 71 72 73 73 73 72 71 70 69 66 64 63 62 63 63 64 66 65 67 68 67 64 63 64 64 63 63 62 61 59 60 61 61 62 64 64 62 60 60 59 59 59
70 71 72 72 72 72 71 70 69 67 65 63 63 63 63 64 65 65 66 67 67 66 65 64 64 64 63 63 62 60 59 60 61 61 63 64 64 62 60 60 59 59 59
69 70 71 72 72 71 70 69 67 66 64 64 63 64 63 63 65 65 66 67 67 67 65 65 63 63 63 63 61 59 59 59 60 60 63 64 63 61 60 59 58 58 57
67 68 69 70 70 69 68 67 66 66 65 64 64 63 62 62 63 62 65 66 66 66 65 64 63 63 64 63 61 59 59 59 58 60 63 64 62 61 59 58 57 56 55
66 66 67 67 68 67 67 66 66 66 65 65 64 62 61 60 61 61 62 65 66 65 64 64 64 64 63 61 60 60 59 58 58 59 63 63 62 60 59 56 56 54 54
65 65 65 65 67 65 65 65 66 66 66 65 63 62 61 59 58 61 62 63 63 63 63 64 65 63 61 59 58 58 57 58 57 59 63 62 60 59 58 55 54 53 53
64 64 65 65 64 63 64 64 65 65 66 65 64 62 61 58 57 60 61 62 62 62 62 62 63 62 61 59 57 56 55 56 55 57 62 62 61 60 57 55 53 53 53
63 64 64 65 63 62 63 62 63 63 64 64 64 63 61 56 56 58 59 61 61 62 61 61 61 60 59 58 57 55 54 52 53 54 59 62 61 59 56 54 53 53 52
62 63 64 65 65 62 60 60 60 61 62 60 63 63 61 57 55 55 57 58 60 60 60 59 58 59 58 57 54 52 51 49 48 50 55 61 61 59 56 54 52 52 51
63 63 63 64 65 64 63 61 59 58 59 58 58 60 60 57 56 56 55 56 57 58 57 57 57 57 57 56 54 50 50 47 45 47 52 60 60 58 57 54 52 51 51
61 63 64 64 64 64 64 65 64 60 58 57 57 58 58 58 57 57 58 56 56 56 55 55 56 56 55 55 53 50 48 47 45 44 52 57 58 56 56 55 52 50 50
61 63 64 65 64 63 64 64 65 65 60 59 58 57 57 58 57 57 58 59 59 58 57 54 55 55 55 53 52 49 45 44 44 44 49 56 55 54 53 55 52 50 49
52 61 62 64 64 64 64 64 65 65 66 62 60 58 57 57 57 57 58 58 60 59 59 57 54 55 55 53 50 49 46 43 43 43 44 51 54 52 50 50 51 49 48
34 41 52 57 64 64 64 64 63 63 64 65 64 62 59 58 58 57 58 59 59 59 59 59 56 54 54 53 50 46 44 42 41 42 43 42 47 51 49 48 46 44 45
34 36 38 39 45 62 64 65 64 64 64 64 64 65 65 64 60 58 58 58 59 58 59 59 58 56 55 53 50 44 43 42 41 40 39 41 41 44 45 44 42 39 39
34 36 36 37 39 39 48 64 64 64 63 63 63 63 64 64 65 63 61 59 59 59 58 59 59 57 56 54 50 48 44 44 42 40 39 38 40 42 42 42 40 37 36
40 40 38 37 36 37 37 44 63 62 62 61 62 63 63 63 63 63 63 63 61 60 59 59 59 59 57 55 54 49 49 47 42 42 39 39 39 39 41 39 39 35 34
42 41 41 37 35 35 36 37 40 49 55 60 62 63 63 63 63 62 62 63 63 61 60 60 60 59 59 57 54 53 51 49 43 41 40 38 39 40 41 39 36 32 32
44 44 44 37 38 38 36 36 37 38 40 42 50 58 61 62 62 62 62 63 62 62 62 62 62 60 60 59 56 54 51 50 49 44 41 38 38 37 36 34 32 30 32

GFSSE_sfc_30mbdewp_078.txt.gz
Dewpoint
69 73 74 74 74 73 73 72 72 72 71 70 70 70 69 68 68 68 66 65 64 63 64 63 63 64 63 62 61 60 60 60 61 62 62 63 63 64 65 65 64 65 64
72 73 74 74 74 74 73 73 72 72 71 71 70 70 69 69 68 68 66 65 65 63 63 63 62 61 60 59 58 60 61 60 60 61 63 63 63 60 61 62 62 61 60
72 73 74 74 74 74 73 73 73 72 72 71 70 70 69 68 68 68 67 66 64 64 63 63 61 60 59 59 59 60 60 61 62 61 62 62 63 62 63 63 63 63 62
72 73 73 74 74 73 73 73 72 72 72 71 70 68 67 67 66 66 66 67 66 65 64 63 61 60 59 60 62 62 62 62 62 61 59 62 61 64 64 64 65 64 63
71 72 73 74 73 73 73 73 72 72 72 71 69 69 68 68 65 64 65 67 67 66 64 62 62 61 60 61 62 62 63 65 65 63 65 65 66 65 65 65 66 65 66
71 72 73 73 73 73 73 73 72 71 70 69 69 69 67 66 63 63 64 67 68 66 64 63 63 62 61 61 62 62 64 65 64 64 65 66 65 65 63 62 63 65 65
71 72 73 73 73 73 72 72 71 69 68 67 65 65 65 63 63 63 65 67 68 66 65 64 63 63 63 62 62 61 62 63 61 62 63 64 63 62 61 61 61 61 62
71 72 72 73 73 72 72 71 69 68 66 64 63 63 63 64 65 64 67 67 68 65 65 64 64 63 63 63 61 60 61 62 61 61 64 64 63 61 60 60 60 60 59
71 72 72 72 72 72 72 70 70 67 65 64 64 64 64 65 66 64 66 68 68 65 65 65 65 64 63 63 61 59 60 61 61 63 64 64 63 60 60 60 59 59 59
70 71 71 72 72 72 70 69 68 65 65 64 65 64 64 65 67 65 67 68 67 66 65 65 65 64 63 63 61 59 60 61 60 63 64 64 62 61 60 59 58 58 57
70 70 71 71 71 70 69 68 67 65 64 64 64 63 63 63 64 65 66 67 68 67 65 64 64 64 64 62 61 59 59 59 59 62 64 64 62 61 60 58 58 57 56
67 69 70 70 70 69 67 66 66 65 65 64 63 62 61 61 63 62 66 66 67 66 65 65 64 64 63 61 60 60 59 58 59 61 64 64 61 60 59 57 56 55 55
66 67 68 68 68 67 66 66 65 65 64 64 62 62 61 60 61 61 62 65 65 65 64 64 65 64 61 59 58 58 58 58 58 61 63 63 61 60 58 56 55 54 55
65 66 66 67 67 66 66 65 65 65 65 64 63 61 61 59 58 60 61 63 63 62 62 63 63 62 61 59 57 56 56 57 57 59 63 63 61 60 58 56 55 54 54
64 64 65 65 65 65 65 65 65 65 65 65 64 62 61 58 57 60 61 61 61 61 61 61 62 61 60 59 58 57 56 55 55 57 61 62 62 61 58 56 55 54 54
63 64 65 65 64 64 64 63 63 64 65 65 64 63 61 58 57 58 59 60 61 61 61 60 60 60 59 58 58 56 56 52 53 55 59 62 62 61 58 56 55 54 53
62 63 64 65 65 62 63 62 62 62 63 62 64 64 62 58 56 57 57 57 59 60 60 60 59 58 59 58 57 54 52 50 49 51 54 60 61 60 59 56 55 54 53
63 63 63 64 65 63 63 62 62 60 61 60 61 63 61 59 56 55 55 56 57 58 59 58 58 57 57 56 56 54 50 48 46 47 50 58 60 59 58 58 55 53 53
62 62 63 64 64 64 64 64 65 65 59 59 58 59 60 59 57 56 57 56 56 56 56 56 55 56 55 55 55 53 49 48 46 44 48 53 59 58 56 57 56 54 53
60 62 63 64 64 64 64 64 64 65 65 60 58 57 58 58 58 57 57 58 58 57 57 55 54 55 55 55 53 52 49 46 45 44 44 53 55 56 55 54 56 53 53
47 60 63 64 64 64 63 63 63 63 64 65 61 59 58 57 58 57 57 58 59 59 58 58 56 54 54 54 51 49 47 46 43 43 44 44 53 55 53 52 52 51 51
36 42 51 55 61 64 64 64 63 63 63 64 64 64 62 59 58 58 57 58 58 58 59 59 58 56 55 53 52 47 48 47 44 42 42 43 43 51 52 50 49 47 46
35 36 37 38 39 51 62 64 64 63 63 63 63 64 64 64 63 60 58 58 59 59 58 59 59 57 57 55 52 51 46 47 44 43 41 40 41 43 46 48 46 44 42
39 39 38 37 37 37 39 54 64 63 62 62 62 63 63 63 64 64 63 61 59 59 59 58 59 59 57 56 55 53 50 47 46 45 40 43 42 42 43 43 43 41 38
41 41 40 36 35 35 36 38 55 61 61 60 61 62 61 62 63 63 63 63 62 61 60 59 59 59 59 58 55 53 52 50 45 44 46 43 42 43 44 44 44 44 44
44 44 40 42 44 43 38 37 37 38 41 43 45 54 60 62 62 62 62 61 61 62 62 61 60 60 59 59 59 56 54 52 51 47 45 43 42 39 38 38 39 39 40

GFSSE_sfc_30mbdewp_081.txt.gz
Dewpoint
69 73 74 73 73 72 72 72 72 71 71 70 69 69 69 68 68 66 65 63 64 64 64 64 64 64 62 61 60 60 60 62 62 63 64 65 64 65 65 65 64 63 62
71 73 74 74 73 73 73 73 72 72 71 71 70 69 68 68 67 66 65 64 63 63 63 62 61 60 59 59 61 61 59 59 61 63 63 63 62 63 63 63 62 61 61
72 73 74 74 74 73 73 73 72 72 71 71 70 69 69 68 68 66 66 64 64 64 63 61 60 59 59 60 61 61 62 62 61 63 63 62 63 62 62 64 63 63 62
72 73 73 74 74 73 73 73 72 72 71 71 70 69 68 67 68 68 67 65 64 64 63 60 59 59 61 62 63 63 62 61 60 61 60 62 63 64 65 65 65 64 63
71 72 73 73 73 73 73 73 72 72 71 71 69 68 67 67 66 66 68 67 65 65 63 61 60 60 63 63 63 64 65 65 63 63 65 65 66 65 64 66 66 66 66
72 72 73 73 73 73 73 72 72 72 71 70 70 69 68 66 64 65 66 68 67 65 63 62 61 61 62 62 63 66 66 66 65 65 66 65 65 63 62 63 63 64 66
71 72 72 73 73 73 73 72 72 71 70 69 69 67 66 64 63 63 67 68 66 65 64 63 62 62 63 62 62 64 65 63 62 64 64 63 62 61 62 62 60 61 61
69 72 72 73 73 73 72 72 71 69 67 65 65 64 64 64 63 65 66 68 66 65 64 64 62 62 63 62 62 63 63 61 61 63 63 63 62 61 61 60 60 59 60
71 72 72 72 72 72 72 71 69 67 65 64 64 63 64 66 65 66 66 68 67 66 65 65 64 63 63 62 61 61 62 61 61 63 63 63 61 61 60 60 60 59 59
70 71 71 72 72 71 71 70 68 66 64 64 64 64 65 65 66 65 67 69 67 66 67 66 65 64 63 63 61 60 61 61 62 63 63 63 62 61 60 59 59 58 58
69 69 71 71 71 70 70 69 67 65 64 64 64 64 63 64 65 65 67 68 67 66 65 65 65 65 63 63 61 60 59 60 60 62 63 64 62 61 60 59 58 57 56
67 67 69 70 70 70 69 68 66 65 64 64 63 63 62 63 63 65 66 67 67 66 65 65 64 65 64 61 60 60 58 58 58 61 63 64 62 61 59 58 57 56 56
67 66 68 69 70 69 67 66 65 64 64 63 62 62 61 61 62 62 65 66 66 65 65 65 64 64 61 59 58 58 58 57 59 61 63 64 62 61 59 57 56 56 56
66 67 68 69 69 67 66 65 65 64 64 63 62 61 60 59 61 60 62 64 64 64 63 63 63 63 61 59 57 56 56 56 57 59 62 64 63 60 60 57 56 55 55
65 66 67 67 67 66 65 65 65 64 64 63 62 61 60 58 57 60 60 62 62 62 61 61 61 62 60 59 58 58 57 55 55 57 60 63 63 61 60 58 56 55 55
65 65 66 66 66 65 65 65 65 65 65 64 63 62 61 59 56 58 60 60 61 61 61 60 60 60 59 58 58 58 57 56 54 56 58 61 62 62 60 58 57 55 55
64 65 65 65 64 65 64 64 64 64 65 64 64 63 62 59 58 57 58 59 60 60 60 60 60 59 59 58 57 57 56 54 52 53 55 60 61 62 61 58 57 56 55
63 64 64 65 64 63 64 63 63 63 63 63 64 64 63 60 58 57 57 58 58 59 60 59 59 58 58 57 57 57 55 52 49 50 52 56 60 61 61 60 58 56 55
63 63 63 64 64 62 63 63 62 62 61 62 61 63 63 61 58 56 56 56 57 57 58 58 58 57 56 56 56 56 55 51 49 46 47 50 57 59 59 58 59 57 56
62 62 63 63 64 64 63 63 64 64 61 59 60 60 61 61 59 57 56 56 56 56 56 56 56 56 56 55 55 54 54 51 48 47 45 48 52 58 58 57 57 57 56
59 61 62 63 64 64 63 63 63 63 64 63 59 59 58 59 59 58 57 57 58 56 56 56 55 55 54 54 53 52 50 49 48 45 45 45 50 54 56 56 55 55 54
40 56 61 62 63 63 63 63 63 63 63 64 64 62 59 58 58 58 58 57 58 58 58 57 56 55 54 54 53 50 51 51 47 46 45 44 44 51 54 54 53 53 52
35 38 47 54 57 63 64 64 63 63 62 62 63 63 64 62 60 58 58 58 58 58 58 58 58 57 57 55 53 53 49 49 47 46 43 42 43 43 47 52 51 50 47
38 38 37 37 38 40 51 63 63 63 62 62 62 63 63 64 64 63 61 59 58 58 58 58 58 58 58 57 54 53 52 48 49 49 43 43 43 41 42 44 46 46 45
40 40 38 36 36 36 36 42 58 62 62 61 61 61 61 62 63 63 64 63 61 59 59 58 58 59 59 58 57 55 54 51 47 47 49 49 43 44 44 44 45 45 45
43 40 43 43 44 42 38 37 40 52 57 56 55 56 57 60 61 61 62 62 62 62 61 60 60 59 59 59 58 57 55 53 51 50 48 49 47 43 40 40 42 43 44

GFSSE_sfc_30mbdewp_084.txt.gz
Dewpoint
67 72 73 73 72 72 72 71 71 71 70 70 69 69 68 67 66 65 65 65 64 64 65 65 64 63 62 62 61 62 62 63 63 65 65 66 66 66 65 64 63 61 60
70 73 73 73 72 72 72 72 72 71 71 70 69 69 68 67 66 65 64 64 64 63 63 62 61 60 61 61 60 58 59 61 63 63 63 62 64 64 64 63 62 61 62
71 73 73 73 73 73 73 72 72 72 71 70 69 68 68 68 66 66 64 64 64 63 61 60 60 60 61 62 62 62 62 61 63 63 63 63 62 62 63 64 63 62 62
72 73 73 73 73 73 73 72 72 71 71 70 70 69 68 69 67 67 65 64 64 63 60 59 60 61 62 63 63 62 61 61 62 61 62 62 63 66 66 65 65 65 63
72 73 73 73 73 73 73 72 72 72 71 71 70 68 67 67 68 68 66 65 65 63 61 60 62 64 64 64 64 64 64 63 63 64 65 66 66 65 66 66 66 67 65
72 72 73 73 73 73 73 73 72 71 71 70 69 68 68 66 66 67 68 67 66 64 62 60 62 64 63 64 66 66 66 66 65 65 65 64 63 62 62 62 61 65 65
70 72 72 73 73 73 73 72 72 71 70 69 69 68 66 65 64 66 69 67 66 64 63 61 62 63 63 63 65 66 65 64 64 64 63 62 62 62 61 61 60 60 61
70 71 72 72 73 73 72 72 71 71 69 70 68 66 65 64 63 65 68 67 66 65 64 62 62 63 63 62 64 65 63 62 63 63 63 62 62 61 61 60 60 60 60
70 71 72 72 72 72 72 72 71 68 66 66 65 65 65 65 64 65 67 68 66 65 65 64 62 63 63 62 62 63 62 61 62 63 63 62 62 61 60 60 59 59 59
69 70 71 72 72 72 71 70 68 66 65 65 64 63 65 66 65 67 67 68 67 67 66 66 64 63 63 62 61 61 62 61 62 63 63 63 62 61 60 59 58 58 58
68 68 70 71 71 70 70 69 66 65 64 63 64 64 64 65 65 66 67 68 67 67 66 66 65 65 63 62 61 60 61 60 61 63 63 64 62 61 60 59 57 57 56
65 67 68 70 70 70 69 68 66 65 64 64 63 63 63 64 64 65 65 67 66 66 65 65 65 64 62 60 59 60 58 58 58 61 63 65 62 61 60 58 57 56 56
65 66 68 68 70 69 68 67 65 64 64 63 62 62 61 62 62 64 65 66 66 65 65 65 64 63 61 58 58 57 58 57 58 60 62 64 63 61 60 58 56 56 56
66 65 67 68 69 68 67 66 65 64 63 62 62 61 59 61 61 62 63 64 64 64 63 63 63 62 61 59 56 55 56 56 57 59 61 63 64 61 61 58 56 55 56
65 66 66 68 68 67 66 65 65 64 63 62 62 61 60 58 60 60 61 62 63 63 62 61 61 61 61 59 58 57 56 55 55 56 58 61 63 63 61 59 57 56 55
65 66 67 67 68 67 66 65 64 64 64 63 62 61 61 59 56 60 59 59 61 62 61 60 60 60 60 59 57 57 57 57 56 55 56 59 62 63 62 60 58 57 56
65 65 66 67 67 66 65 65 64 64 64 64 63 62 61 60 57 56 59 59 60 60 60 60 59 59 59 58 57 56 56 56 54 53 54 57 60 62 63 61 58 58 56
64 64 65 66 65 66 65 64 64 64 64 64 64 63 62 61 59 57 57 58 59 59 60 59 59 58 58 57 57 57 57 56 53 51 52 54 57 60 61 62 60 58 57
64 64 64 65 64 64 65 64 63 63 63 63 63 64 63 62 60 58 58 58 58 58 58 58 58 58 56 56 56 56 56 55 54 50 48 50 53 58 59 60 61 60 58
63 63 64 64 64 63 63 63 63 62 62 62 62 62 63 63 61 59 57 57 57 56 56 57 57 56 57 56 55 55 55 54 53 51 49 47 48 52 57 58 58 58 58
60 62 63 63 64 64 63 62 62 62 63 61 60 61 61 62 61 59 58 57 56 55 55 56 55 55 55 55 54 53 52 52 52 51 49 47 47 50 53 56 56 56 56
54 59 61 62 63 64 63 63 62 62 63 63 63 60 60 59 60 60 59 58 57 57 56 56 55 54 54 54 53 51 52 52 50 48 47 46 45 46 50 53 54 55 54
38 47 56 61 63 63 63 63 63 62 62 62 63 63 62 60 59 59 58 58 58 58 57 58 57 56 55 55 53 54 51 50 49 49 45 44 44 44 46 50 53 53 53
36 37 40 43 49 52 62 63 62 62 61 61 61 62 63 63 62 60 59 58 58 58 58 58 58 58 57 57 55 54 54 51 52 50 47 44 44 42 43 44 46 49 48
39 38 37 36 37 36 38 51 61 62 62 61 61 61 61 62 63 63 63 61 59 58 58 58 58 58 58 57 57 55 54 52 50 50 50 51 45 44 43 43 45 46 46
41 40 41 41 42 41 38 37 38 47 56 58 59 58 59 59 60 61 62 62 62 61 60 59 59 58 58 58 58 57 56 54 52 50 49 50 50 47 41 41 41 42 44

GFSSE_sfc_30mbdewp_087.txt.gz
Dewpoint
68 71 73 72 72 72 72 71 71 71 70 69 68 68 67 66 66 65 65 65 66 66 66 66 65 64 63 63 63 63 63 63 65 65 66 67 66 65 64 63 61 59 61
69 71 73 72 72 72 72 72 72 71 71 69 68 68 67 66 65 65 64 64 64 63 63 62 62 63 61 60 59 60 62 63 63 62 62 64 65 64 63 62 63 62 61
70 71 72 72 73 72 72 72 72 71 71 70 69 68 67 66 66 64 64 64 63 62 61 61 62 62 63 63 62 61 60 62 63 64 64 61 61 64 65 64 63 63 61
70 71 71 72 72 72 72 72 72 72 71 70 69 68 68 67 66 65 64 64 62 60 60 61 62 62 62 62 62 62 62 62 63 63 63 64 65 66 66 66 66 64 64
71 71 72 72 72 73 72 72 72 71 71 71 70 69 69 67 68 66 65 65 62 60 61 62 64 64 65 65 64 64 63 64 65 66 66 65 64 64 64 63 66 65 65
71 71 73 73 73 73 72 71 72 72 71 70 69 68 67 67 68 67 66 66 64 62 62 64 64 64 65 66 66 66 66 66 66 64 63 63 62 62 61 62 62 66 66
70 71 72 73 73 73 72 72 72 71 70 69 68 68 67 66 67 69 67 66 65 62 61 63 64 64 64 65 66 66 66 65 64 63 62 62 62 61 61 61 60 60 61
70 71 71 73 73 73 73 72 72 71 70 69 69 67 66 65 66 68 67 66 65 63 62 63 64 64 63 65 65 64 64 64 63 62 62 62 62 61 61 60 60 60 59
70 70 71 71 71 72 72 72 71 70 69 68 67 66 65 64 65 67 68 67 66 65 64 63 63 63 63 63 65 63 62 62 62 62 61 61 62 61 60 60 59 59 59
70 69 70 71 70 70 70 71 69 67 67 66 66 65 65 65 66 66 68 67 67 67 66 65 63 63 63 62 62 62 62 62 62 63 62 61 62 61 60 59 58 58 57
68 69 69 70 70 70 70 69 67 66 65 65 64 64 64 65 65 65 67 68 67 67 66 66 65 64 63 62 61 60 61 61 62 62 62 64 62 61 60 58 57 57 57
66 66 68 69 70 69 69 67 65 64 63 62 63 63 63 65 64 65 65 67 67 67 66 65 65 64 60 60 60 59 60 60 59 61 62 64 62 61 59 58 57 57 56
65 66 67 68 70 69 68 66 64 63 63 63 62 62 62 63 64 64 65 67 66 65 65 64 64 63 61 58 58 58 58 58 58 59 61 64 64 62 60 58 56 56 56
64 66 68 68 69 69 67 66 64 63 63 62 62 61 61 62 63 64 65 66 66 65 64 64 63 63 62 59 56 56 56 57 57 59 60 62 65 62 61 59 57 56 56
64 64 66 68 69 68 67 66 64 63 63 62 62 61 59 61 61 63 63 64 64 64 63 63 62 62 62 60 58 56 56 56 55 56 58 59 62 64 62 60 58 57 56
65 64 65 68 68 68 67 66 64 64 63 63 62 62 60 58 59 61 61 62 63 63 63 62 61 61 61 60 59 56 57 58 58 57 56 57 60 63 63 61 60 58 57
64 65 65 67 68 68 67 66 65 64 64 63 62 62 61 60 58 58 60 60 60 61 62 62 61 60 60 59 58 56 56 57 57 56 55 56 58 61 63 62 60 59 58
64 65 66 66 67 67 67 66 65 65 64 64 63 63 62 61 60 58 57 58 59 60 60 60 60 59 59 58 57 57 57 58 57 55 53 53 56 58 60 63 63 60 58
64 64 65 66 66 66 66 65 65 65 64 64 64 64 63 62 61 60 59 58 58 59 59 59 59 59 57 57 57 57 57 57 57 55 54 52 53 55 57 60 61 62 60
64 64 65 65 65 65 65 65 64 64 64 64 64 64 64 63 62 61 60 60 59 58 58 58 58 58 57 57 56 56 56 56 56 55 54 53 51 51 53 56 58 59 60
61 63 64 64 64 64 63 63 63 63 63 63 63 63 63 64 63 61 61 60 58 58 57 57 57 56 56 56 55 55 55 55 55 55 54 53 51 50 50 52 54 56 57
56 60 62 63 64 64 64 63 63 63 63 64 63 62 62 62 63 62 61 60 59 58 57 56 56 55 55 55 54 53 53 54 53 52 52 51 50 49 49 50 52 53 55
34 51 60 62 63 64 64 63 63 63 62 63 63 63 62 60 60 61 61 60 59 59 59 58 57 56 56 56 56 55 52 52 51 52 48 46 46 46 46 48 50 52 53
34 37 44 56 61 63 63 63 63 62 61 62 62 63 63 62 61 60 60 59 59 60 59 59 59 58 57 57 56 54 56 54 53 52 51 48 45 45 45 45 45 47 49
38 38 39 41 44 45 56 62 63 62 62 62 62 62 62 63 63 63 61 60 59 59 59 59 59 58 58 58 58 56 55 54 53 52 51 52 49 46 44 43 46 47 47
40 39 39 40 41 39 39 41 53 59 60 60 60 60 60 61 61 62 63 63 62 60 59 59 59 59 58 58 59 57 56 55 53 52 50 51 51 50 43 42 43 43 45

GFSSE_sfc_30mbdewp_090.txt.gz
Dewpoint
66 68 72 72 72 72 72 71 71 71 70 69 68 67 67 66 65 66 66 67 67 67 67 66 65 65 64 64 63 63 64 66 65 66 66 67 65 64 61 62 60 57 64
66 68 72 72 72 72 72 72 71 71 70 69 68 67 66 65 65 65 65 64 64 64 64 64 63 61 60 60 61 62 62 63 62 63 64 64 64 63 64 63 63 60 61
66 68 69 72 72 72 72 72 72 71 70 69 68 67 67 65 64 64 64 63 63 62 62 63 63 62 62 61 60 60 61 63 64 63 62 62 63 66 66 65 64 63 62
66 68 67 72 72 72 72 72 72 71 70 70 69 67 67 65 64 65 63 62 61 62 63 63 62 63 63 63 63 62 63 64 65 65 64 63 63 65 65 67 64 64 65
66 68 68 72 72 72 72 72 72 71 71 70 70 69 68 66 65 66 64 61 61 62 63 64 65 65 65 64 64 64 65 67 66 65 62 61 60 62 64 66 65 66 66
65 67 71 71 72 72 72 72 71 71 71 70 70 69 69 68 66 66 65 62 63 64 64 65 65 66 67 66 66 66 67 66 63 61 61 61 59 61 62 62 62 63 65
65 67 70 71 73 72 72 71 72 71 70 69 68 68 67 68 68 67 65 63 62 63 64 64 64 65 66 66 66 67 66 64 60 59 59 58 60 61 61 61 61 60 61
65 67 69 72 73 72 72 72 72 71 70 68 69 67 66 66 69 67 66 65 62 62 64 64 64 64 66 66 65 65 65 62 58 58 58 59 62 61 60 60 60 60 60
67 67 68 69 71 71 72 72 71 71 70 69 67 67 66 65 67 68 67 66 64 62 64 64 64 63 64 65 64 63 62 62 58 58 57 58 62 61 60 59 58 59 59
65 66 66 68 69 68 69 71 70 70 68 67 67 66 65 65 65 68 67 67 67 65 64 63 64 63 63 63 63 63 62 61 58 59 59 61 62 61 60 58 58 57 57
65 65 65 66 67 67 67 68 68 67 67 66 65 65 63 58 59 64 67 67 67 67 66 64 64 64 63 62 61 62 61 58 58 59 59 63 62 61 59 58 57 57 57
64 65 66 66 67 66 66 67 65 64 63 62 61 61 57 58 59 58 66 67 67 67 67 66 65 62 60 56 58 59 57 58 57 58 59 63 62 61 59 58 57 56 56
65 66 67 67 66 66 66 65 64 63 62 61 58 56 56 59 60 59 62 67 66 65 64 64 63 61 58 52 55 56 56 56 56 57 60 63 65 62 60 58 57 57 56
65 65 67 68 67 65 65 65 63 62 62 60 59 54 55 58 59 57 59 62 63 63 63 63 61 61 60 58 51 51 53 54 55 57 59 61 64 64 62 60 57 57 56
64 65 66 67 67 66 65 64 63 62 62 61 61 58 54 55 58 60 60 61 61 62 61 61 60 60 60 59 56 51 50 52 53 54 55 59 61 64 63 62 59 57 56
64 64 66 66 66 66 65 65 64 62 62 62 61 61 59 56 56 58 60 60 60 60 60 59 58 57 57 58 57 53 52 54 55 56 55 56 57 61 64 62 61 59 58
63 64 64 66 67 67 65 65 64 63 63 62 62 62 61 60 59 59 56 57 58 58 57 59 59 58 56 55 55 53 50 53 56 56 56 56 56 59 62 63 62 61 59
63 64 65 66 67 67 66 65 65 64 63 63 62 62 62 61 61 60 59 56 56 57 58 58 57 57 56 56 55 55 56 55 55 56 56 56 56 56 59 62 63 62 60
62 63 64 66 66 67 67 66 65 65 64 63 63 63 62 62 61 61 60 59 57 57 58 58 57 57 56 56 57 56 56 56 56 56 56 56 56 55 56 58 61 62 62
62 62 63 65 66 67 67 66 66 65 64 64 64 63 63 63 62 62 61 61 60 59 59 58 58 58 57 56 56 55 56 57 57 57 56 56 55 55 55 55 56 56 60
62 62 62 62 65 66 66 65 65 65 65 65 64 65 64 64 63 63 62 61 61 60 59 59 58 57 57 57 56 56 56 56 56 56 56 56 54 54 54 53 53 53 54
60 62 63 62 63 65 65 65 65 65 66 66 66 65 64 64 64 63 62 62 61 61 60 59 58 57 57 57 55 56 54 54 55 55 54 54 53 52 52 52 52 52 52
42 57 62 62 63 65 65 64 64 64 64 64 65 65 64 64 63 63 63 62 62 61 60 60 59 58 57 58 57 56 54 53 53 53 53 51 50 49 48 48 49 50 51
37 38 47 60 63 64 65 64 63 63 62 63 63 65 65 63 62 62 62 62 62 61 61 61 61 60 59 58 58 57 57 57 54 53 53 52 49 48 48 47 47 48 49
40 40 42 47 58 62 64 64 64 63 64 64 63 63 63 64 64 63 62 61 61 60 61 61 61 60 59 59 59 59 57 56 55 54 52 53 52 48 46 46 47 48 48
42 41 42 43 45 47 56 61 63 63 63 62 62 62 63 63 63 64 64 64 63 62 61 60 60 60 60 60 59 59 58 56 55 54 53 53 53 51 47 46 46 46 46

GFSSE_sfc_30mbdewp_093.txt.gz
Dewpoint
65 69 73 72 72 72 72 71 71 70 69 68 67 67 66 66 67 68 68 68 68 68 67 66 65 64 64 63 63 65 65 66 66 66 66 65 63 63 64 64 59 61 65
65 67 73 72 72 72 72 72 71 71 70 68 67 66 65 65 65 66 66 66 65 65 64 63 62 61 61 61 62 62 62 62 64 64 63 65 66 66 65 64 63 61 62
64 66 70 72 72 72 72 71 71 70 70 69 67 66 65 65 65 64 64 64 64 64 63 62 62 61 61 60 61 61 62 63 64 64 64 64 65 67 66 65 65 65 65
64 66 68 72 72 72 71 71 71 70 70 69 68 67 65 64 64 63 62 63 63 63 63 63 64 64 64 63 64 65 66 66 66 65 62 62 61 65 66 66 66 66 66
64 64 68 72 72 72 71 72 71 70 70 70 69 68 66 65 65 63 62 62 63 64 64 64 65 65 65 65 65 67 67 66 65 59 60 59 59 63 64 64 64 66 66
65 64 70 71 72 72 72 72 71 71 70 70 69 69 68 66 66 63 62 64 65 65 65 65 67 67 66 66 67 67 66 65 64 58 58 59 60 61 61 62 62 63 64
64 68 68 71 72 72 72 72 71 71 70 70 69 68 69 67 66 64 63 64 65 65 65 65 66 66 66 67 67 66 64 61 57 57 57 59 61 60 60 60 61 62 62
64 69 67 71 71 72 72 72 71 71 70 69 68 67 67 69 67 65 64 63 64 65 65 65 65 66 66 66 66 65 63 62 56 57 59 60 62 60 59 59 59 59 60
65 68 67 68 70 71 71 71 71 69 68 68 67 67 67 68 68 66 66 64 63 64 65 64 64 65 66 64 63 62 61 60 58 57 57 60 62 60 59 58 58 58 58
66 67 65 66 68 68 69 71 70 70 68 67 67 66 65 66 68 68 67 66 65 64 64 64 64 63 65 64 63 61 60 60 57 58 59 62 62 60 59 58 57 57 57
65 66 65 65 66 67 66 69 70 69 67 67 65 65 63 58 64 67 66 67 67 65 64 64 64 64 62 62 62 62 60 57 57 57 60 63 62 60 59 57 57 57 56
63 64 65 66 66 66 67 67 67 66 64 63 63 62 58 54 55 64 66 66 66 67 66 65 64 62 60 57 59 59 59 56 56 57 61 64 62 61 59 58 57 56 56
64 66 64 66 66 66 66 65 66 63 62 60 58 58 54 56 58 62 66 67 66 65 64 64 63 60 56 51 53 54 54 54 54 55 61 63 65 62 60 59 57 57 56
64 65 67 66 67 65 65 64 65 62 60 59 56 52 54 56 56 55 60 64 65 63 64 63 60 59 59 56 50 49 51 52 53 54 60 61 63 64 63 60 58 57 57
65 64 65 65 66 65 63 64 64 61 60 59 57 53 51 54 55 54 57 59 60 60 62 60 58 58 58 58 55 49 48 50 52 53 54 59 60 63 64 62 60 58 57
65 65 65 65 64 64 64 64 63 62 61 60 59 58 53 52 54 57 58 58 58 59 58 58 57 56 56 56 55 53 49 50 52 54 55 57 58 59 63 63 62 60 59
64 65 66 66 66 64 64 64 63 62 61 61 60 60 59 57 55 56 56 57 57 57 55 56 56 56 54 53 53 52 50 49 53 55 56 56 57 57 60 64 63 62 60
61 63 64 66 65 66 64 64 64 63 62 62 61 61 61 60 59 59 58 55 55 56 56 57 56 56 54 54 53 54 54 52 53 54 56 56 56 56 59 61 63 63 62
60 61 63 64 65 65 66 65 65 64 63 61 61 61 61 61 60 60 59 57 55 56 57 57 56 56 56 56 56 56 56 56 57 56 56 56 56 57 57 60 61 63 63
60 60 62 64 65 65 66 66 66 65 64 62 62 62 61 61 61 61 60 60 58 57 57 58 58 57 57 56 55 55 56 57 58 57 57 57 56 56 56 57 59 59 59
60 60 61 63 64 66 66 66 65 64 65 64 64 64 63 62 62 62 61 60 60 59 59 59 58 58 58 58 57 57 57 57 57 57 58 57 55 55 55 54 55 55 57
59 61 61 60 62 65 66 66 65 65 66 66 66 65 65 65 64 63 62 62 61 61 60 60 59 58 58 58 57 56 55 56 57 56 56 55 54 54 53 53 53 53 53
59 60 60 59 59 63 65 66 65 65 65 65 66 66 66 65 65 65 64 63 63 62 61 61 60 59 58 58 58 57 55 54 54 55 53 53 52 51 50 49 49 50 51
44 55 60 60 62 64 65 64 63 62 59 62 62 64 65 66 65 65 65 64 63 63 63 62 62 61 60 59 59 59 58 58 55 53 55 54 51 49 50 48 50 50 50
42 43 47 58 61 63 64 64 63 61 62 62 63 64 64 65 65 64 64 63 63 63 62 62 62 62 61 60 59 59 58 58 57 55 53 54 54 50 48 48 48 49 49
44 44 45 47 54 60 63 63 60 59 59 61 62 62 63 64 64 64 65 64 63 62 62 62 62 62 61 60 60 60 58 57 56 55 54 53 54 52 49 48 47 47 47

GFSSE_sfc_30mbdewp_096.txt.gz
Dewpoint
69 72 73 73 73 73 72 71 71 69 67 67 66 66 67 68 69 69 69 69 68 68 65 65 64 63 63 64 65 66 67 66 64 64 66 67 66 64 62 62 62 64 65
70 72 73 73 72 72 72 71 71 70 69 67 66 65 66 67 67 67 67 66 66 65 63 62 62 61 61 62 61 62 64 64 64 65 66 66 67 65 65 65 65 63 64
69 71 72 72 72 72 72 71 70 70 69 68 66 65 65 65 65 65 65 65 64 63 62 61 61 60 61 61 61 63 66 66 65 65 64 63 67 66 66 67 67 66 63
68 69 71 72 73 73 72 71 70 70 69 68 67 66 64 64 64 64 64 64 64 63 63 64 64 63 64 66 66 67 66 66 65 62 60 62 63 66 66 66 66 66 64
67 68 70 72 72 71 71 70 70 70 69 69 67 67 66 64 62 62 63 63 63 64 64 65 65 65 66 67 67 67 67 65 64 59 61 61 61 63 64 64 65 65 66
65 69 71 72 71 70 71 71 71 71 70 70 68 68 67 65 62 63 64 65 65 64 65 67 67 66 67 67 67 66 65 63 60 59 60 62 60 60 61 63 63 63 64
64 69 71 72 72 71 71 71 71 71 71 70 69 68 67 65 62 63 65 66 66 65 66 67 66 67 67 67 66 65 64 61 58 59 61 61 59 59 59 59 60 62 62
67 68 70 72 72 72 71 71 71 71 71 70 69 69 68 66 64 63 65 66 65 65 65 66 66 66 66 66 65 62 61 61 58 60 61 62 61 59 58 58 58 58 59
67 67 69 70 71 72 71 71 71 70 69 69 68 69 69 67 66 64 65 65 65 65 65 65 66 66 65 64 62 60 60 60 58 60 61 62 61 59 58 58 57 57 58
67 67 68 69 70 70 70 71 70 68 68 67 67 66 68 67 67 67 65 65 66 66 65 65 64 66 65 64 61 59 59 60 59 61 62 63 61 59 58 58 57 57 57
66 65 67 67 68 69 69 69 69 68 67 66 65 64 65 68 67 66 66 65 65 65 65 65 64 64 63 62 62 60 60 60 58 61 63 63 61 60 58 58 57 57 57
66 65 66 65 67 68 68 68 68 67 66 64 64 63 62 62 67 66 66 66 65 65 65 65 64 62 60 59 58 58 59 59 57 61 63 63 62 61 59 58 58 57 57
65 65 66 66 67 67 67 66 67 66 64 64 63 61 60 57 65 66 66 66 66 65 65 64 62 59 57 56 58 57 56 55 56 59 62 64 63 62 60 58 58 57 56
64 65 65 67 66 67 66 66 66 64 63 61 59 58 57 59 59 65 65 65 65 65 64 64 63 62 59 56 54 50 53 54 54 59 61 62 64 64 62 60 58 58 57
64 65 66 67 66 66 66 65 65 64 61 59 55 52 56 57 57 56 64 65 64 64 63 62 62 59 59 58 56 51 48 49 52 54 60 60 61 63 64 63 60 58 58
65 64 65 66 66 65 65 65 64 63 60 60 58 54 52 55 57 56 58 62 62 63 63 61 58 57 57 57 57 53 50 50 52 54 58 59 59 60 63 64 63 61 59
65 66 65 65 65 65 65 64 63 62 61 61 60 58 56 55 55 58 59 59 59 58 57 58 57 56 55 54 54 54 51 49 53 55 56 57 58 58 59 63 63 63 61
64 65 66 66 66 66 65 65 65 62 62 61 61 60 60 58 58 58 58 57 58 57 56 57 57 56 55 55 54 54 54 51 51 54 55 56 57 58 59 61 63 63 63
64 64 65 66 66 66 65 66 65 64 63 62 62 61 61 61 60 60 60 58 55 57 57 58 57 57 56 56 56 56 57 57 56 56 56 56 57 57 58 59 61 62 63
62 63 64 65 65 66 65 65 65 65 64 63 62 61 62 61 61 61 61 60 56 57 57 58 58 58 57 57 56 55 56 57 58 58 57 57 57 58 57 58 59 60 60
61 62 63 64 65 65 66 65 65 63 64 64 64 63 62 62 62 61 61 61 60 58 58 58 58 58 58 58 57 57 57 57 57 58 58 57 57 56 55 55 56 56 58
60 61 62 64 65 65 65 66 65 65 64 65 65 65 65 64 64 62 62 62 61 61 60 60 59 58 58 59 57 57 55 56 58 57 58 56 54 54 53 52 52 52 53
59 61 62 63 64 66 66 66 65 65 65 64 64 65 65 65 65 65 64 63 63 62 61 61 60 59 58 58 58 57 55 53 54 55 54 53 52 51 50 49 49 50 51
59 61 61 61 62 64 65 65 63 62 61 62 62 63 63 64 65 65 65 65 64 64 63 62 62 61 59 58 59 58 58 58 55 53 54 53 50 50 49 50 50 50 50
50 56 61 61 62 64 64 63 63 60 59 59 61 61 63 63 65 65 64 64 63 63 63 63 63 62 61 60 60 59 58 58 58 55 53 53 52 49 48 48 48 48 49
45 46 47 60 61 62 60 58 56 56 56 59 59 59 61 63 64 64 64 64 63 63 62 63 63 62 62 61 60 60 58 57 57 56 54 54 53 50 48 47 46 46 47

GFSSE_sfc_30mbdewp_099.txt.gz
Dewpoint
70 73 73 73 73 72 71 70 68 67 67 66 66 69 70 70 70 70 69 69 68 66 65 64 63 63 65 66 67 65 65 66 67 67 68 67 65 63 63 64 64 65 67
71 72 73 73 73 72 71 70 68 68 68 66 65 67 68 68 68 68 67 66 65 64 63 62 61 62 62 63 64 65 65 66 67 66 67 67 67 67 67 66 65 64 66
71 72 72 72 72 72 71 70 69 69 67 67 66 65 66 66 66 66 65 64 63 62 61 61 61 60 60 62 66 67 66 66 66 64 64 66 67 67 67 67 65 62 63
71 71 71 72 72 71 70 70 69 69 68 67 66 65 64 64 65 65 64 64 63 63 63 62 63 64 65 67 67 67 65 63 63 62 61 63 65 65 66 67 66 66 65
70 71 71 72 72 71 70 70 69 69 68 67 67 66 63 63 64 64 63 63 64 64 65 65 66 67 68 68 67 66 64 62 62 62 61 60 62 63 64 64 63 65 65
69 71 72 72 72 70 69 70 70 70 69 68 67 66 63 63 63 63 64 65 66 66 66 66 67 67 67 67 66 64 63 61 61 61 60 60 59 60 61 63 62 63 63
69 70 72 72 70 70 71 70 70 70 69 69 68 65 62 63 63 65 65 66 67 68 67 67 67 67 67 66 64 63 62 61 61 61 61 59 59 59 59 60 61 61 61
69 70 71 71 71 70 71 71 70 70 70 69 69 66 63 62 64 65 65 66 65 66 66 66 67 67 67 65 63 61 62 60 61 61 61 61 60 58 58 58 59 59 59
69 70 71 70 71 71 70 71 71 71 70 70 69 68 66 64 65 65 66 66 65 66 66 66 66 65 64 62 60 60 61 61 61 61 61 61 60 59 58 58 58 58 58
68 70 70 70 71 71 70 70 70 69 68 69 69 68 66 66 65 66 66 66 66 66 66 67 66 65 63 61 59 59 60 60 61 61 62 62 60 59 59 58 58 58 58
67 68 69 70 70 70 70 69 68 67 66 66 67 68 66 67 65 64 65 66 66 66 65 64 65 65 63 61 60 59 60 60 61 62 62 62 61 60 59 58 58 58 57
66 67 68 69 69 69 69 68 67 67 65 64 64 66 66 67 66 65 64 64 65 65 65 65 63 62 60 59 58 58 58 59 61 61 63 63 62 61 59 59 58 58 57
65 67 67 68 69 68 67 67 66 65 64 64 63 62 63 66 65 65 65 65 64 64 64 63 62 61 59 59 58 57 57 56 60 61 63 63 63 62 60 59 58 57 57
65 66 66 67 68 67 66 67 66 65 64 63 63 61 60 62 66 65 65 65 64 64 64 63 61 59 58 57 57 53 53 54 56 61 62 63 64 63 62 60 59 58 57
64 66 67 67 67 66 66 67 65 64 64 62 60 58 59 62 65 65 64 65 64 64 64 63 63 62 60 58 56 51 48 49 53 60 60 61 63 64 64 62 60 59 58
65 65 67 67 67 67 66 65 64 64 61 58 56 54 58 58 59 63 64 64 63 63 64 63 62 60 59 58 57 53 49 49 51 54 59 60 61 62 64 64 63 61 60
64 65 66 66 66 66 66 65 64 63 61 57 55 53 53 57 57 57 63 63 63 62 63 62 59 57 55 55 55 55 51 49 51 54 57 58 59 59 61 62 63 63 62
64 65 65 66 66 65 65 65 64 63 61 60 58 57 56 56 57 58 59 60 59 59 57 57 57 56 55 54 53 53 53 50 52 54 55 56 57 57 59 61 63 63 63
64 65 65 66 66 65 65 65 64 64 62 61 60 59 58 58 59 58 58 57 57 57 57 57 57 57 56 55 55 56 56 55 54 54 56 56 57 58 58 59 61 63 63
64 65 65 65 66 66 66 66 65 64 64 62 62 61 60 60 59 59 60 59 56 57 57 58 57 57 57 57 56 56 56 57 57 57 57 57 57 57 57 58 60 60 60
64 64 64 64 65 65 65 64 64 64 64 64 63 63 62 61 60 60 61 60 58 56 57 57 58 58 57 58 57 56 57 57 57 57 58 58 58 57 56 56 58 57 56
62 63 64 64 65 65 65 65 65 64 64 64 64 64 63 63 62 61 61 61 61 57 57 58 58 58 58 58 56 56 55 56 57 57 58 58 55 54 52 51 51 52 55
60 62 63 64 65 65 65 65 65 64 64 64 64 64 65 65 65 64 62 62 62 61 59 60 59 58 57 58 58 56 54 53 54 55 54 53 52 50 49 49 50 51 52
59 61 63 64 64 65 65 65 63 62 61 63 63 63 63 64 65 65 65 65 64 64 63 62 62 61 59 58 59 59 58 57 54 53 54 51 50 49 50 50 49 49 49
59 60 61 62 64 65 65 64 62 61 60 61 61 61 61 62 63 63 64 64 63 63 63 63 63 62 62 60 60 59 58 58 57 55 53 52 49 48 48 48 47 48 47
54 54 59 61 62 64 63 62 61 58 59 59 60 60 61 62 62 63 64 63 63 62 61 61 62 62 61 61 61 60 58 57 57 56 55 54 53 49 47 46 46 46 46

GFSSE_sfc_30mbdewp_102.txt.gz
Dewpoint
70 72 73 72 72 71 69 67 66 67 67 69 70 70 70 70 70 70 69 68 67 65 64 64 64 67 65 66 66 67 66 67 66 66 67 67 65 63 64 65 67 67 66
71 72 73 72 72 71 69 67 67 68 68 69 70 70 70 70 69 67 67 66 65 63 63 63 64 66 65 66 66 66 66 66 67 67 67 67 67 66 64 64 66 66 67
71 72 72 72 72 71 69 68 68 67 67 68 68 69 69 68 67 66 65 63 63 62 61 61 61 63 65 67 67 65 66 64 65 65 65 66 67 67 65 64 65 64 66
71 72 72 72 71 70 70 69 68 67 67 67 67 68 67 66 65 64 64 62 61 62 62 62 63 66 67 67 66 64 64 63 63 62 61 63 65 66 66 66 66 66 66
70 71 71 72 71 70 70 69 68 67 67 66 66 66 66 65 64 64 63 63 63 64 64 65 67 68 68 67 65 64 63 63 62 61 61 61 62 65 64 62 64 65 65
70 70 71 71 70 70 70 70 69 68 66 65 65 65 65 64 63 63 64 65 66 66 66 67 67 68 67 65 65 63 63 62 60 59 59 60 60 61 62 61 61 62 63
70 70 71 71 70 70 70 70 69 68 67 65 63 63 63 63 63 64 65 66 67 67 67 67 67 67 66 65 63 63 63 62 60 60 59 59 59 59 59 60 60 60 60
70 70 71 71 70 70 70 70 70 69 69 67 64 63 63 64 64 65 67 68 67 67 67 67 67 67 65 63 64 63 62 61 61 60 60 60 60 59 59 59 59 59 59
70 69 70 70 70 70 70 70 70 69 69 68 65 64 65 66 65 65 66 67 67 66 66 67 66 65 63 62 62 63 62 61 60 61 60 61 60 59 58 58 58 59 59
69 69 70 69 69 70 70 70 70 70 69 69 67 65 66 66 66 66 66 66 67 67 67 66 65 63 62 60 60 61 61 61 61 61 61 61 60 60 59 59 58 58 59
68 69 69 69 70 70 70 70 69 68 69 68 66 65 65 65 66 66 66 67 67 66 67 66 65 63 61 60 59 60 60 60 61 61 62 62 60 60 59 59 58 58 58
67 68 69 69 69 69 68 68 67 66 66 67 66 65 65 65 64 65 66 66 66 66 65 65 64 62 60 58 57 58 59 60 61 61 62 63 61 60 59 59 59 58 58
67 67 68 69 69 68 67 67 65 64 64 64 66 65 66 65 65 64 64 64 64 64 64 64 62 60 59 58 58 57 57 59 60 62 63 64 63 61 60 59 58 58 58
66 67 68 68 68 67 67 66 65 63 63 63 63 65 65 64 65 64 63 63 62 63 62 61 59 58 57 57 56 57 54 55 60 61 62 64 64 63 61 60 59 58 58
66 67 67 68 67 66 66 65 65 64 64 63 62 62 61 65 65 64 64 64 63 63 63 62 61 60 60 59 55 51 49 53 58 60 61 63 64 64 63 62 60 59 58
66 66 67 68 67 66 66 65 64 64 64 63 61 60 59 63 65 64 64 64 63 63 63 63 62 62 62 59 57 54 49 49 53 59 59 60 62 64 64 64 62 61 60
65 66 67 67 67 65 66 66 64 64 63 62 59 58 59 61 63 64 63 63 63 63 63 63 62 59 58 57 57 57 53 50 50 53 58 59 60 61 62 63 63 63 62
65 66 66 67 67 66 66 65 64 63 61 59 56 56 57 58 60 60 63 63 63 62 62 61 59 56 55 54 53 53 53 52 50 52 55 57 58 59 59 61 63 63 63
65 65 66 66 66 66 66 65 64 63 60 58 56 55 55 55 57 58 59 61 61 60 59 58 57 56 56 55 55 55 55 54 52 52 53 55 56 57 57 58 60 63 63
64 65 66 66 66 65 66 65 65 64 62 61 59 58 57 57 58 58 59 58 58 57 57 57 57 57 56 56 56 56 56 57 57 57 56 57 57 57 58 58 59 60 61
64 65 65 65 66 65 65 64 63 63 63 63 62 60 59 59 59 59 59 59 56 56 57 57 57 57 57 57 56 56 57 57 56 56 58 58 58 58 57 58 58 58 56
63 64 64 65 65 65 65 65 64 64 64 64 64 63 62 62 60 60 60 60 59 56 57 57 57 57 58 58 56 56 54 55 57 57 58 58 57 55 52 52 52 55 55
62 63 63 64 65 65 65 65 64 64 64 64 64 64 64 64 63 62 62 61 61 59 57 58 59 58 57 59 58 56 54 53 54 55 53 53 52 50 50 50 51 52 52
61 63 63 64 64 65 65 64 63 63 62 63 63 64 64 65 64 64 64 64 64 63 62 61 62 61 60 58 59 59 58 57 55 53 54 51 50 49 50 49 49 49 48
60 61 62 63 64 64 65 64 63 62 62 62 63 63 63 63 63 64 64 64 64 64 64 63 62 62 62 60 60 59 59 58 58 56 53 51 49 48 48 48 48 48 46
58 59 61 62 63 64 64 63 62 60 60 60 61 61 61 62 62 63 63 63 63 63 62 61 61 61 60 60 60 59 58 56 56 56 55 54 52 48 47 46 46 46 46

GFSSE_sfc_30mbdewp_105.txt.gz
Dewpoint
69 72 72 71 71 69 67 67 67 68 70 70 70 70 70 70 70 69 68 67 66 65 65 65 65 65 66 66 66 66 65 66 67 68 67 65 64 65 66 67 67 67 66
70 72 72 71 70 68 67 67 67 69 70 70 70 70 70 70 69 68 67 65 64 63 63 65 64 66 66 67 66 66 67 67 67 67 67 67 66 64 65 66 67 67 66
71 72 71 71 71 69 68 67 67 68 70 70 70 70 69 68 68 66 65 63 63 62 63 64 65 66 67 66 66 65 66 66 66 65 65 67 67 66 66 65 66 66 66
71 71 71 71 70 69 67 67 67 67 70 70 69 69 68 67 65 64 63 62 62 61 62 65 67 68 66 65 66 65 64 64 64 63 62 63 64 65 64 65 66 66 65
71 71 71 71 70 69 68 68 67 67 68 69 69 69 67 65 65 63 62 62 63 64 66 67 68 66 66 66 64 63 62 62 62 61 61 61 62 61 61 62 62 61 62
71 71 71 70 70 69 68 68 67 66 66 67 67 68 66 64 64 63 63 65 66 67 67 67 67 65 66 65 64 61 61 61 60 59 59 61 61 61 61 61 60 59 59
70 70 70 70 69 69 69 68 68 66 65 65 66 65 64 64 63 64 65 66 66 67 67 67 66 65 66 65 63 62 62 61 59 59 58 59 59 60 60 60 60 60 59
69 69 69 69 70 70 69 68 68 66 65 64 65 64 63 63 64 65 66 67 67 67 67 67 66 64 64 64 63 62 62 60 60 60 60 60 60 59 59 59 59 59 59
69 69 69 69 70 70 70 69 69 68 66 65 65 64 64 65 66 68 68 68 67 67 67 67 66 64 64 64 63 62 61 61 60 60 60 60 60 59 59 59 59 59 59
69 68 69 69 69 70 70 69 69 69 66 65 65 66 65 65 66 67 67 67 67 67 67 67 65 63 63 63 63 62 61 61 60 60 61 61 60 60 60 59 59 59 59
68 69 69 69 69 70 70 69 69 69 67 66 66 65 65 66 66 66 66 67 68 67 66 65 64 62 61 61 61 62 61 60 60 61 61 62 61 60 60 59 59 59 58
66 67 68 68 69 69 69 69 68 68 67 65 64 65 65 65 65 66 66 66 67 67 67 66 65 62 59 58 58 59 60 60 61 61 62 62 61 60 60 59 59 59 58
65 67 68 68 68 68 68 67 66 67 66 65 64 64 64 64 64 65 65 65 65 65 64 64 62 60 58 57 57 57 57 59 60 61 62 63 62 61 60 60 59 59 58
66 67 68 68 68 67 67 65 64 65 65 65 65 64 64 63 63 63 63 63 62 62 61 60 59 58 58 57 57 57 55 58 60 61 62 64 63 62 61 60 59 59 58
65 66 67 68 68 67 66 64 63 62 63 64 64 64 64 64 63 62 62 62 61 62 61 60 58 57 57 59 57 55 50 54 58 60 61 63 64 64 63 61 60 59 59
65 67 67 67 67 66 65 64 63 63 63 62 63 64 63 64 64 63 62 62 62 62 62 61 61 61 61 61 58 55 50 50 54 59 60 61 62 64 65 64 62 61 60
66 66 67 67 67 66 65 64 63 63 63 63 61 61 62 65 65 64 63 63 63 63 62 63 62 61 60 60 58 57 55 50 50 54 58 59 60 61 63 64 63 63 62
66 66 67 67 66 65 65 65 64 64 63 62 61 59 60 61 64 64 63 63 63 63 62 62 61 59 57 56 54 54 54 53 50 50 54 57 58 59 60 61 63 63 63
65 66 66 67 66 65 65 65 64 64 62 61 59 57 58 59 61 62 63 63 63 62 61 61 59 57 56 55 55 54 54 55 53 51 52 54 56 57 58 58 59 61 62
65 66 66 67 66 65 66 65 64 64 62 59 57 56 56 57 58 60 60 61 61 61 60 59 57 57 56 56 55 55 56 56 57 56 55 56 56 57 57 57 58 59 60
64 65 66 66 66 65 65 64 63 62 61 60 58 57 56 56 57 58 58 58 59 58 58 57 57 56 56 57 56 56 56 57 57 56 57 58 58 58 58 58 58 58 58
63 63 65 65 65 65 65 64 64 63 63 61 61 61 59 59 58 58 59 59 57 57 57 57 57 57 57 57 56 55 54 54 56 55 57 57 56 54 54 54 54 56 56
62 63 64 64 65 65 65 64 64 64 64 63 63 62 62 61 61 60 60 61 60 58 57 57 58 58 57 58 58 56 54 53 54 54 52 53 53 53 51 51 52 52 51
60 63 63 64 65 65 65 64 63 62 61 63 63 64 64 64 63 63 62 62 62 62 61 59 60 60 60 59 60 60 59 58 55 54 54 50 49 50 50 50 50 49 48
60 61 63 63 64 64 64 64 63 62 62 62 63 63 63 64 64 64 64 64 64 64 64 63 62 62 61 60 59 59 59 59 58 57 54 53 50 49 49 49 49 47 47
59 60 62 62 63 63 64 63 63 62 61 61 62 62 62 62 63 63 63 63 63 63 63 63 63 62 62 61 60 60 57 56 56 56 55 54 52 48 48 47 47 47 46

GFSSE_sfc_30mbdewp_108.txt.gz
Dewpoint
68 71 71 71 69 69 69 68 68 69 69 70 70 70 70 70 69 69 68 67 66 66 66 65 65 65 65 64 65 66 67 67 68 66 66 66 66 66 67 67 67 66 65
69 71 72 71 69 68 68 68 70 71 70 71 71 70 70 70 69 67 66 65 65 65 63 66 66 67 65 65 66 67 67 67 68 68 67 65 65 65 66 66 66 65 65
70 71 71 71 69 68 67 68 70 71 71 71 71 70 69 69 68 66 65 64 63 65 64 65 67 66 66 65 66 66 67 66 66 66 66 67 67 67 66 66 66 65 65
70 71 71 70 69 68 67 68 70 70 70 70 70 70 69 68 66 65 64 63 63 65 65 67 67 66 66 66 65 66 65 65 64 63 62 62 61 64 65 64 64 63 62
70 71 71 70 69 68 67 67 70 70 70 70 69 69 68 66 65 64 63 63 65 66 68 68 67 66 65 65 64 63 63 63 62 61 61 61 61 61 62 60 60 59 60
70 70 71 70 69 69 68 68 69 69 70 69 69 68 67 65 64 63 63 65 66 68 68 66 66 66 65 63 61 61 61 61 60 59 60 61 61 61 61 61 60 60 59
70 71 70 70 70 69 68 68 68 69 69 69 68 67 65 64 64 64 65 66 68 68 67 66 66 66 65 63 61 61 61 60 59 59 59 59 60 60 60 60 60 60 59
69 69 70 70 69 69 67 67 67 67 68 68 67 66 64 64 64 64 65 67 68 67 67 65 65 65 65 63 61 61 61 60 59 59 60 61 61 60 60 60 60 59 59
69 69 69 69 69 69 68 67 66 66 67 66 66 65 64 65 65 66 67 68 68 68 67 66 65 65 64 64 62 62 61 60 60 60 60 61 61 60 60 60 59 59 59
68 68 68 68 69 68 68 68 67 66 66 66 65 65 65 66 67 68 68 68 68 68 68 67 64 64 65 64 63 61 61 60 60 60 61 62 61 61 60 59 59 59 59
67 68 68 68 69 69 68 68 67 66 66 66 65 65 65 66 67 67 67 67 68 68 67 65 64 63 63 63 63 62 60 60 60 60 61 62 61 61 60 60 59 59 59
66 67 68 68 68 69 68 69 68 66 65 65 65 65 65 65 65 66 66 67 68 67 66 65 63 61 59 58 59 60 60 59 60 61 62 62 61 61 60 60 59 59 59
66 67 68 68 68 68 67 68 68 66 65 64 64 64 64 64 65 65 65 66 65 65 65 63 61 59 57 57 57 57 59 59 60 61 62 63 62 61 60 60 59 59 59
65 66 68 68 68 67 66 66 66 65 64 63 64 64 63 63 63 63 63 63 63 62 62 60 59 58 57 57 57 57 55 58 60 60 61 64 63 62 61 60 59 59 58
63 66 67 67 67 67 66 65 65 65 64 64 63 64 63 62 62 62 62 61 61 60 59 58 57 56 56 58 58 55 50 54 58 60 60 63 64 64 62 61 60 60 59
64 65 67 67 67 67 66 64 63 64 64 64 64 63 63 63 61 61 60 60 60 60 60 59 58 58 60 61 60 56 51 50 54 58 60 60 62 64 65 63 62 61 60
61 65 67 67 67 66 65 64 62 62 63 64 64 64 63 64 62 62 61 61 61 62 62 62 61 61 61 60 59 58 57 52 49 53 59 59 59 62 63 64 64 63 62
64 65 66 66 67 66 65 64 63 62 63 62 62 63 63 64 64 63 62 62 62 62 62 62 61 60 59 57 56 55 55 54 52 50 53 56 58 59 60 61 63 63 63
64 66 66 66 66 66 65 64 64 63 63 63 61 61 62 63 64 64 63 62 62 62 62 61 61 59 58 56 55 55 54 54 54 51 51 53 56 57 58 58 59 60 62
65 66 66 66 66 65 65 65 64 63 62 62 60 58 59 60 62 64 63 63 62 62 61 60 60 58 56 56 56 55 56 56 56 56 55 54 55 56 57 57 57 58 60
63 66 66 66 66 65 65 64 63 62 61 60 59 58 57 58 59 60 61 61 62 61 61 60 58 57 56 57 56 56 56 57 57 57 57 57 58 58 57 58 58 58 60
61 64 65 66 66 65 65 64 63 63 62 61 60 58 57 57 58 58 59 58 58 59 59 58 57 57 57 57 56 55 54 54 55 54 56 57 56 55 55 56 57 56 55
61 63 64 64 65 65 65 64 64 63 63 62 61 60 60 59 58 58 59 59 58 58 58 57 57 57 56 58 58 57 54 53 55 54 52 54 54 54 53 53 54 53 52
61 63 62 64 65 65 65 64 62 62 61 62 62 62 62 62 61 60 60 61 60 60 59 59 60 59 59 58 60 60 59 58 55 54 53 51 51 51 52 52 51 51 50
61 62 63 63 64 64 64 63 60 61 63 63 63 63 63 63 63 63 62 63 63 63 63 63 62 61 61 60 59 59 59 58 58 56 54 54 51 51 51 51 50 49 48
59 60 61 62 63 63 64 63 63 62 61 62 62 62 63 63 63 64 64 64 63 63 63 63 63 62 61 61 60 59 58 56 56 56 55 55 54 51 50 50 49 48 48

GFSSE_sfc_30mbdewp_111.txt.gz
Dewpoint
68 70 71 71 69 69 69 69 70 71 72 71 71 70 70 70 69 69 68 66 66 68 66 65 65 66 64 66 67 67 67 65 65 66 67 67 67 67 67 66 65 64 64
68 70 71 70 70 70 69 70 70 71 72 71 71 70 70 69 68 68 67 65 66 63 65 65 65 65 66 67 67 68 67 67 67 66 66 66 67 67 66 66 66 65 63
68 70 70 70 70 70 70 71 70 70 71 71 70 70 69 69 67 66 67 66 65 65 67 67 66 64 66 67 67 67 67 67 67 66 66 65 66 67 66 66 65 64 61
69 70 70 70 70 69 70 71 71 71 72 71 70 70 70 69 67 66 65 66 66 67 67 67 67 66 65 66 66 66 66 65 64 62 61 61 60 63 62 62 62 61 60
69 70 69 69 69 69 70 71 71 71 72 70 69 69 70 67 65 64 65 67 67 69 68 67 67 66 65 65 65 65 65 64 63 62 61 62 60 62 62 61 60 60 59
69 69 70 69 69 69 70 71 71 71 70 70 69 69 68 66 64 64 66 67 69 69 68 67 66 65 63 62 62 62 62 62 60 61 61 62 60 61 61 60 60 59 59
69 69 69 70 69 69 70 71 71 70 70 69 69 67 66 65 64 64 66 68 69 68 67 67 66 64 61 61 61 61 61 60 59 60 60 60 60 61 60 60 60 59 59
68 69 69 69 69 69 69 70 70 70 70 69 68 67 65 65 64 65 67 69 69 67 66 66 65 64 61 61 61 62 61 60 59 60 60 60 61 61 60 60 60 59 59
69 69 68 68 68 68 68 69 69 69 69 68 68 67 66 65 65 65 68 69 68 67 67 67 66 65 62 61 61 62 61 61 59 60 60 60 61 61 60 60 60 59 59
68 68 68 67 66 66 67 68 68 68 68 67 66 66 65 65 66 67 68 68 68 68 66 66 66 65 64 62 62 62 61 60 59 60 61 61 61 61 60 60 60 59 59
67 67 68 67 67 67 65 66 67 67 66 66 65 65 65 64 65 66 67 67 67 68 66 66 65 65 65 63 62 61 59 59 59 60 61 62 61 61 61 60 60 59 59
66 66 67 67 66 66 66 65 65 65 64 64 63 64 66 67 66 65 66 67 67 67 66 64 63 62 60 60 61 61 59 60 59 60 61 62 61 61 61 60 60 59 59
65 66 67 66 66 66 66 66 65 65 64 64 64 64 66 66 66 66 66 67 66 65 64 62 60 58 58 58 58 59 60 60 60 60 62 62 62 61 61 60 60 59 59
65 65 66 67 66 66 67 66 65 64 64 64 64 64 65 65 65 65 65 65 64 63 62 61 58 58 58 58 57 56 57 60 60 60 61 63 63 62 61 60 60 59 59
64 65 66 67 66 65 64 66 65 63 63 63 64 64 64 64 63 64 63 63 62 62 60 59 57 57 57 57 57 56 53 57 59 60 61 62 64 63 62 61 60 60 59
64 66 66 66 67 65 64 64 65 63 63 63 63 64 63 63 62 62 62 61 61 60 59 57 56 57 58 60 59 56 51 52 55 59 60 60 62 64 65 63 62 61 60
64 66 66 66 66 66 65 65 64 64 63 62 62 63 62 62 62 61 60 59 59 60 60 60 60 61 62 61 61 59 58 54 51 53 58 59 60 61 63 65 64 63 63
63 65 66 66 66 66 65 64 64 65 64 63 62 62 62 62 61 60 59 60 61 62 62 62 62 61 61 59 59 58 56 56 55 51 53 56 58 58 60 61 62 63 62
63 65 65 66 65 65 65 64 63 63 64 64 63 63 62 63 62 62 61 61 62 62 62 62 61 61 60 59 57 56 55 55 55 53 52 52 55 58 58 59 59 60 61
63 65 66 65 65 65 65 64 63 63 62 63 62 63 63 63 64 64 63 62 62 62 62 62 61 60 59 57 56 56 56 57 57 56 54 53 54 56 57 58 58 58 59
64 65 65 65 65 65 64 63 62 61 62 62 61 60 61 62 63 64 64 63 63 62 62 61 60 60 58 57 57 57 57 57 57 57 57 57 58 58 58 58 58 59 60
63 65 65 65 65 65 65 64 63 63 62 62 61 60 59 60 60 61 62 61 62 62 61 60 59 57 57 58 56 56 55 55 56 55 56 57 57 56 57 59 59 59 57
62 63 65 65 65 65 65 64 64 63 63 62 61 61 59 59 59 59 60 60 60 60 60 59 59 58 57 58 58 57 55 53 56 56 53 54 56 55 55 55 56 55 54
59 63 64 64 63 65 65 64 63 62 61 62 62 62 61 60 60 60 60 60 60 60 60 59 59 59 59 58 60 60 60 59 55 54 54 52 52 52 53 53 52 52 51
62 62 63 63 63 62 64 64 62 61 62 62 62 62 61 61 61 61 61 62 62 62 61 61 60 60 60 60 60 59 59 59 59 57 54 55 54 53 53 52 52 51 50
60 62 62 61 61 62 62 63 61 59 60 62 63 62 62 63 63 63 63 63 63 62 63 63 62 62 61 61 61 60 58 56 56 56 55 55 55 54 52 51 51 50 49

GFSSE_sfc_30mbdewp_117.txt.gz
Dewpoint
61 68 72 72 71 72 73 72 72 73 72 72 70 69 69 69 69 69 69 69 67 68 66 64 64 66 65 65 67 67 67 67 68 68 68 68 67 67 65 64 61 60 61
63 67 71 71 71 71 73 72 72 72 72 72 70 69 69 69 69 68 69 68 67 66 66 65 67 68 67 65 65 65 65 66 67 67 67 67 67 65 64 62 62 61 61
63 66 69 71 71 71 73 73 73 72 72 72 70 70 69 69 68 69 69 68 67 66 65 67 67 67 67 67 67 67 67 65 66 66 65 63 63 62 61 61 61 61 60
63 66 67 71 71 71 72 73 73 72 72 72 71 70 69 68 68 68 69 69 68 67 67 68 68 68 67 66 66 66 64 61 60 61 56 57 59 61 61 61 60 60 60
64 67 67 70 70 71 71 73 73 72 72 72 71 70 69 69 68 68 67 68 68 68 67 67 67 68 67 65 66 64 61 59 58 56 57 58 58 61 61 60 60 60 60
66 67 70 70 69 71 71 72 72 72 71 71 70 70 69 68 68 67 69 69 69 69 67 66 66 66 66 66 65 62 61 59 56 56 57 59 60 61 60 60 60 60 60
66 67 69 71 70 71 71 71 72 72 71 71 70 69 69 68 68 69 70 69 69 68 66 65 64 64 63 62 61 61 60 57 55 56 58 59 60 61 60 60 60 60 60
65 69 68 70 70 71 71 71 72 71 70 70 69 69 68 67 68 70 69 69 68 67 65 62 62 62 62 61 61 61 58 59 56 57 59 60 61 61 60 60 60 59 60
66 68 68 68 68 71 71 71 71 71 70 69 69 68 67 68 68 69 69 68 68 67 65 63 62 62 61 62 61 61 59 58 56 56 58 60 62 61 60 60 60 59 59
67 67 67 66 66 66 70 71 70 70 69 68 68 67 66 67 68 69 68 68 68 67 66 64 63 62 62 62 62 59 58 57 56 57 58 61 62 61 61 60 60 59 59
66 67 67 65 62 63 67 69 70 69 69 68 66 65 65 62 64 67 65 68 68 67 67 65 64 63 63 62 61 59 58 54 55 56 59 62 61 61 61 61 60 59 59
65 66 66 64 59 61 66 69 68 68 67 66 65 64 60 59 63 66 66 67 67 67 67 66 64 62 60 58 58 59 56 54 55 57 60 62 61 61 61 61 60 60 59
63 65 67 62 58 59 64 67 67 67 66 65 64 61 53 57 63 66 66 64 64 64 63 64 62 60 58 56 57 55 54 54 55 56 61 63 62 61 61 61 60 60 59
59 63 66 61 57 57 62 66 66 66 65 64 63 56 53 56 63 65 64 63 60 60 59 59 57 56 56 55 55 55 55 55 55 57 61 63 62 62 61 61 61 60 60
60 61 64 63 58 55 59 64 65 65 63 63 63 53 55 57 59 64 64 63 59 58 57 56 55 55 55 54 54 53 54 55 55 56 60 62 63 62 62 61 61 60 60
59 62 61 65 60 55 55 61 63 64 63 58 57 58 62 59 59 62 63 63 60 58 57 54 53 54 54 53 53 52 51 52 53 55 57 61 63 64 63 62 62 61 61
57 64 64 65 58 55 54 53 55 60 59 56 56 61 63 60 59 61 60 59 58 58 55 53 52 52 53 54 54 53 52 51 51 52 53 56 61 62 64 65 64 63 62
59 63 64 64 59 57 55 54 54 55 55 55 56 59 61 58 59 59 58 58 57 55 54 52 52 53 56 58 58 57 57 57 55 54 53 53 55 57 61 63 65 64 64
57 62 64 64 60 62 60 58 55 54 55 56 56 58 58 58 58 58 56 56 55 54 52 53 53 55 58 59 58 57 57 55 55 54 53 53 54 55 57 60 60 62 63
60 59 62 64 63 63 63 63 60 55 54 56 57 57 57 57 57 56 55 53 54 56 57 59 58 59 59 58 57 55 56 57 56 55 54 54 53 54 55 57 60 59 59
59 59 63 64 63 63 63 64 63 59 55 54 55 54 56 54 55 54 54 55 57 58 58 59 59 59 60 60 57 56 56 56 57 57 57 57 56 57 57 58 58 59 59
59 57 60 63 64 63 63 63 63 63 62 61 60 56 54 54 56 56 58 58 59 60 60 60 60 60 60 60 56 55 54 56 56 57 57 58 58 58 59 59 60 60 61
55 58 58 61 63 64 63 64 63 62 62 62 62 62 61 61 61 61 61 60 61 61 61 61 61 61 59 59 58 57 53 53 56 57 57 56 57 58 57 57 58 58 57
56 56 61 60 63 64 64 63 62 61 60 61 61 62 62 61 63 63 63 63 62 63 62 62 62 62 62 60 60 60 60 58 55 53 56 55 55 55 56 56 56 55 55
58 58 61 61 63 64 63 63 63 62 61 61 62 61 61 61 62 63 62 62 62 63 63 62 62 61 61 60 59 60 59 59 58 56 53 55 56 57 57 55 55 54 53
59 60 61 61 61 63 63 62 63 62 62 61 62 61 61 61 61 62 62 62 62 62 62 62 62 62 61 61 60 60 59 58 57 56 55 55 55 55 56 55 54 54 54

GFSSE_sfc_30mbdewp_120.txt.gz
Dewpoint
68 72 73 73 73 73 73 73 73 72 71 71 69 70 69 69 69 68 68 68 67 67 64 64 64 65 67 67 67 68 68 68 68 68 68 67 66 64 62 61 62 61 61
69 72 73 72 73 73 73 73 73 73 72 71 70 69 69 69 69 69 69 68 68 65 65 67 65 65 66 66 66 66 67 67 67 67 66 65 64 62 62 62 62 61 61
68 70 72 72 73 73 73 73 73 73 72 71 70 69 69 69 69 69 68 68 68 66 67 67 66 65 66 66 67 67 67 67 67 66 63 62 62 61 61 61 62 61 61
67 69 70 72 72 73 73 73 73 73 72 71 70 71 70 69 69 69 68 68 67 68 68 68 68 68 67 67 65 63 61 62 63 63 58 60 60 61 61 61 61 60 61
65 67 69 72 72 73 73 73 73 73 72 71 70 70 70 69 69 69 68 68 69 69 68 68 68 66 64 66 64 61 60 60 59 59 59 60 61 61 61 61 61 60 60
66 66 70 71 72 72 73 73 73 72 72 71 70 70 69 69 68 69 69 69 69 68 68 67 67 65 64 66 62 61 61 59 58 59 60 62 61 61 61 60 60 60 60
66 67 69 70 71 71 72 72 73 72 72 71 70 70 68 69 69 69 69 69 68 67 66 66 66 65 65 63 61 60 59 59 58 60 61 61 61 61 61 60 60 60 60
66 69 69 69 69 71 72 72 72 72 71 71 70 69 68 68 70 69 69 69 68 66 65 63 63 62 62 61 61 61 59 59 59 60 61 62 62 61 60 60 60 60 59
69 69 69 69 69 70 71 72 72 71 71 70 69 68 68 68 70 69 69 68 67 65 64 63 62 62 62 61 61 58 58 59 59 60 61 62 62 61 61 60 60 60 59
69 69 68 68 68 69 70 71 72 71 71 70 69 68 68 69 69 69 69 68 67 65 64 64 63 62 62 62 60 58 58 57 58 60 62 62 62 61 61 60 60 60 59
67 68 68 67 67 67 69 71 71 70 69 68 68 67 67 68 68 67 67 68 67 66 65 64 63 63 63 60 59 58 58 57 58 61 62 63 62 62 61 61 60 60 59
65 67 67 67 66 65 67 70 70 69 68 67 66 65 64 65 66 66 67 67 67 67 66 64 64 62 59 58 57 58 58 56 59 61 62 62 62 62 62 61 61 60 59
63 67 67 66 64 63 65 69 68 68 67 65 64 63 61 63 66 66 66 66 67 67 66 65 63 61 60 58 57 58 56 56 58 60 63 63 62 62 62 61 61 60 60
57 57 66 66 67 64 67 68 67 67 66 65 63 61 58 62 66 65 64 64 64 64 64 62 61 61 60 57 57 55 55 56 59 61 62 63 62 62 61 61 61 61 60
55 56 61 64 63 65 66 67 67 66 65 64 63 59 58 63 65 63 63 62 61 61 61 60 59 57 56 55 54 54 55 55 57 60 62 62 63 62 62 61 61 61 60
57 56 56 63 62 61 66 66 67 66 64 64 62 56 55 63 64 63 62 62 60 59 59 58 56 56 55 54 53 53 52 54 55 58 61 62 63 63 63 62 62 61 61
57 57 56 58 61 61 64 65 66 65 64 63 62 61 60 60 63 62 61 62 61 59 56 54 54 54 53 55 54 52 51 51 52 54 59 60 62 63 64 64 63 63 63
57 55 57 61 60 60 61 64 65 64 63 59 60 62 61 61 62 61 60 62 60 57 55 54 53 53 56 57 58 56 57 57 55 52 53 58 60 61 62 64 65 65 64
56 55 55 61 60 61 63 57 61 63 59 56 61 61 60 61 61 61 60 59 57 55 54 53 53 54 58 59 58 58 57 56 56 55 54 54 55 57 59 60 61 63 63
57 57 56 57 63 62 60 56 55 55 56 56 58 60 60 59 59 58 57 56 55 54 55 55 54 58 59 59 58 57 57 57 57 56 55 54 54 55 55 59 60 60 60
58 59 57 60 61 61 60 57 54 54 56 56 57 59 59 58 58 56 55 54 55 57 58 59 59 59 60 60 58 57 57 57 57 57 58 58 58 59 59 61 62 60 60
58 59 58 58 62 62 61 59 55 55 55 57 58 58 58 57 57 55 55 55 58 58 59 59 60 60 60 60 57 56 55 56 57 57 58 58 58 59 58 59 60 61 61
58 58 58 58 62 63 62 60 59 57 55 56 55 57 56 56 56 56 58 58 59 60 59 60 61 61 59 60 58 58 53 54 56 57 57 57 57 57 57 57 58 58 58
57 58 58 59 61 64 63 61 61 59 57 57 56 56 56 57 58 60 61 60 61 62 61 62 62 62 62 59 59 59 59 59 55 54 55 54 55 55 56 56 56 56 56
56 57 59 58 59 60 61 62 61 60 60 61 61 61 60 61 62 63 62 63 63 63 63 62 61 61 60 60 59 60 59 58 58 56 53 55 56 56 57 56 55 54 53
57 57 59 59 57 59 62 63 61 61 61 61 61 61 61 62 63 63 63 63 63 63 62 62 61 61 60 60 60 60 59 57 57 56 54 53 54 55 56 56 55 54 53

GFSSE_sfc_30mbdewp_123.txt.gz
Dewpoint
70 72 73 73 74 74 73 73 72 71 70 70 70 70 69 69 68 67 66 66 67 67 66 65 67 68 68 68 67 68 68 68 67 66 66 65 63 62 62 62 62 61 61
71 72 73 74 74 73 73 73 72 71 71 70 70 69 69 69 69 68 68 67 66 65 64 65 67 67 67 67 67 67 67 66 65 64 64 64 63 62 62 62 63 62 61
71 72 73 74 74 73 73 73 72 72 72 71 71 69 69 69 69 68 68 68 66 67 67 65 66 66 66 68 68 68 68 67 65 64 63 62 62 61 62 62 61 61 61
70 72 72 74 73 73 73 73 72 72 72 71 70 70 70 69 69 68 69 68 68 68 68 67 67 67 67 66 64 62 63 65 62 61 60 61 61 62 62 61 61 60 60
70 71 72 73 73 73 72 73 72 72 72 71 71 71 70 70 70 69 69 70 69 69 68 68 67 67 66 64 63 62 63 62 61 60 61 61 61 61 61 60 61 59 60
69 70 72 72 73 72 72 72 72 72 72 71 70 70 70 70 69 69 70 70 69 69 69 66 65 66 65 63 62 61 62 62 61 61 62 62 61 61 61 61 60 59 60
67 70 71 72 72 72 72 72 72 72 72 71 70 70 70 70 69 70 70 69 69 68 66 64 63 66 65 62 61 61 62 61 60 61 61 61 61 61 61 61 60 60 60
66 69 70 71 71 72 72 72 72 72 71 71 70 70 69 69 70 70 69 68 68 67 66 64 65 64 62 62 62 60 62 61 61 61 61 62 62 61 61 61 60 60 59
68 68 69 70 71 71 71 71 71 71 71 71 70 69 69 70 70 69 69 68 67 65 65 64 62 61 61 62 59 60 62 61 61 61 62 62 62 61 61 60 60 60 60
68 68 68 68 69 70 71 71 71 71 71 70 69 69 69 69 69 69 69 67 66 65 64 64 62 61 62 60 59 59 60 61 61 61 62 62 62 61 61 60 60 60 59
67 68 68 68 69 70 70 71 70 70 70 70 68 67 68 69 69 68 68 66 66 65 65 64 63 62 60 59 58 58 58 59 61 62 62 63 62 62 61 61 60 60 59
61 66 68 68 68 68 69 70 70 70 70 69 67 67 68 67 67 68 67 66 66 65 65 64 63 60 58 57 57 58 58 59 61 62 63 63 62 62 62 61 60 60 59
59 63 63 67 67 67 67 69 69 69 68 67 67 66 66 66 66 67 67 66 65 65 64 64 62 59 55 56 57 58 58 59 61 62 63 63 62 62 62 61 61 60 59
58 58 58 60 67 66 68 68 68 68 67 66 65 63 65 65 66 66 66 66 65 65 63 62 60 60 59 58 57 57 56 59 60 62 63 63 63 62 62 62 61 61 60
53 57 57 58 64 66 68 68 68 67 65 65 64 62 63 66 65 64 64 64 64 64 63 61 60 60 60 58 56 55 56 58 60 61 62 62 63 62 62 62 61 61 61
55 54 56 57 58 64 67 67 67 67 65 65 63 59 62 66 64 62 63 63 62 62 62 60 59 58 56 54 54 53 53 57 59 60 62 62 63 63 63 62 62 62 61
55 53 53 55 59 61 62 62 65 66 65 65 63 58 61 65 63 62 61 61 61 60 60 59 57 56 54 55 53 52 51 53 55 60 60 61 63 63 63 63 63 63 63
55 55 55 55 56 60 61 62 61 66 65 65 63 57 62 64 62 61 61 61 61 60 57 55 54 53 54 56 57 54 53 53 52 54 59 60 61 62 63 64 65 65 64
54 56 55 55 53 60 61 61 59 66 65 65 62 57 61 63 62 60 60 60 60 57 55 54 53 54 56 58 58 58 57 56 56 55 53 57 60 60 60 61 63 64 64
48 54 55 55 53 58 61 61 61 63 64 63 60 59 62 62 61 60 59 61 57 55 54 53 52 56 59 59 58 57 57 57 56 56 55 55 55 57 58 59 60 60 61
52 55 56 56 55 58 60 60 62 63 60 60 59 59 60 61 61 60 59 58 55 54 54 54 55 57 59 59 58 57 56 57 57 57 58 58 58 59 60 61 61 60 60
52 54 56 56 58 60 61 60 62 62 58 59 59 58 59 59 59 58 57 55 55 55 56 57 58 59 60 59 57 56 55 56 57 57 58 57 58 58 58 58 59 61 60
51 56 57 57 58 57 62 59 59 59 58 57 59 58 59 59 57 56 55 56 56 57 58 59 60 60 59 60 58 56 54 53 56 57 57 56 56 57 57 56 57 57 57
49 53 58 58 57 57 63 58 57 56 55 56 58 58 58 58 56 57 57 57 58 59 60 60 61 61 60 58 59 60 59 57 52 55 55 54 55 55 55 56 55 56 55
50 54 58 58 57 61 61 60 56 56 55 56 57 57 57 57 57 58 57 58 60 61 61 62 61 61 60 59 58 59 59 58 57 55 52 54 55 55 56 56 55 54 53
51 56 58 58 57 56 56 61 57 56 56 56 56 56 57 57 57 60 60 60 62 62 62 62 61 61 60 60 60 59 58 56 56 56 55 53 53 55 56 56 54 53 53